<?xml version="1.0" encoding="UTF-8" standalone="no" ?>
<gpx xmlns="http://www.topografix.com/GPX/1/1" xmlns:xsi="http://www.w3.org/2001/XMLSchema-instance" xsi:schemaLocation="http://www.topografix.com/GPX/1/1 http://www.topografix.com/GPX/1/1/gpx.xsd" version="1.1" creator="VisuGPX - https://www.visugpx.com">
  <metadata>
    <name>Tentative le Vallonet</name>
    <desc><![CDATA[Casse mécanique.]]></desc>
  </metadata>
  <trk>
    <name><![CDATA[Tentative le Vallonet_1]]></name>
    <extensions>
      <line xmlns="http://www.topografix.com/GPX/gpx_style/0/2">
        <color>0000FF</color>
        <width>4</width>
      </line>
    </extensions>
    <trkseg>
      <trkpt lat="44.47789" lon="6.79509">
        <ele>1530.2</ele>
        <time>2021-08-11T06:35:56Z</time>
      </trkpt>
      <trkpt lat="44.47782" lon="6.79515">
        <ele>1530.6</ele>
        <time>2021-08-11T06:36:00Z</time>
      </trkpt>
      <trkpt lat="44.47776" lon="6.79522">
        <ele>1531.3</ele>
        <time>2021-08-11T06:36:04Z</time>
      </trkpt>
      <trkpt lat="44.47771" lon="6.79529">
        <ele>1532</ele>
        <time>2021-08-11T06:36:08Z</time>
      </trkpt>
      <trkpt lat="44.47766" lon="6.79537">
        <ele>1532.9</ele>
        <time>2021-08-11T06:36:12Z</time>
      </trkpt>
      <trkpt lat="44.47763" lon="6.79546">
        <ele>1534.1</ele>
        <time>2021-08-11T06:36:16Z</time>
      </trkpt>
      <trkpt lat="44.47759" lon="6.79554">
        <ele>1535.1</ele>
        <time>2021-08-11T06:36:20Z</time>
      </trkpt>
      <trkpt lat="44.47756" lon="6.79563">
        <ele>1536.3</ele>
        <time>2021-08-11T06:36:24Z</time>
      </trkpt>
      <trkpt lat="44.47753" lon="6.79572">
        <ele>1537.4</ele>
        <time>2021-08-11T06:36:28Z</time>
      </trkpt>
      <trkpt lat="44.47752" lon="6.79583">
        <ele>1539.1</ele>
        <time>2021-08-11T06:36:32Z</time>
      </trkpt>
      <trkpt lat="44.47749" lon="6.79593">
        <ele>1539.3</ele>
        <time>2021-08-11T06:36:36Z</time>
      </trkpt>
      <trkpt lat="44.47748" lon="6.79603">
        <ele>1539.6</ele>
        <time>2021-08-11T06:36:40Z</time>
      </trkpt>
      <trkpt lat="44.47747" lon="6.79613">
        <ele>1540</ele>
        <time>2021-08-11T06:36:44Z</time>
      </trkpt>
      <trkpt lat="44.47748" lon="6.79623">
        <ele>1540.8</ele>
        <time>2021-08-11T06:36:48Z</time>
      </trkpt>
      <trkpt lat="44.47748" lon="6.79633">
        <ele>1541.4</ele>
        <time>2021-08-11T06:36:52Z</time>
      </trkpt>
      <trkpt lat="44.47748" lon="6.79645">
        <ele>1542.2</ele>
        <time>2021-08-11T06:36:56Z</time>
      </trkpt>
      <trkpt lat="44.47747" lon="6.79655">
        <ele>1542.5</ele>
        <time>2021-08-11T06:37:00Z</time>
      </trkpt>
      <trkpt lat="44.47746" lon="6.79667">
        <ele>1543</ele>
        <time>2021-08-11T06:37:04Z</time>
      </trkpt>
      <trkpt lat="44.47745" lon="6.79678">
        <ele>1543.8</ele>
        <time>2021-08-11T06:37:08Z</time>
      </trkpt>
      <trkpt lat="44.47744" lon="6.79689">
        <ele>1544.6</ele>
        <time>2021-08-11T06:37:12Z</time>
      </trkpt>
      <trkpt lat="44.47743" lon="6.79699">
        <ele>1545.4</ele>
        <time>2021-08-11T06:37:16Z</time>
      </trkpt>
      <trkpt lat="44.4774" lon="6.79708">
        <ele>1545.5</ele>
        <time>2021-08-11T06:37:20Z</time>
      </trkpt>
      <trkpt lat="44.47737" lon="6.79717">
        <ele>1545.7</ele>
        <time>2021-08-11T06:37:24Z</time>
      </trkpt>
      <trkpt lat="44.47734" lon="6.79725">
        <ele>1545.8</ele>
        <time>2021-08-11T06:37:28Z</time>
      </trkpt>
      <trkpt lat="44.47734" lon="6.79734">
        <ele>1546.7</ele>
        <time>2021-08-11T06:37:32Z</time>
      </trkpt>
      <trkpt lat="44.47733" lon="6.79742">
        <ele>1547.3</ele>
        <time>2021-08-11T06:37:36Z</time>
      </trkpt>
      <trkpt lat="44.47734" lon="6.79751">
        <ele>1548.4</ele>
        <time>2021-08-11T06:37:40Z</time>
      </trkpt>
      <trkpt lat="44.47736" lon="6.7976">
        <ele>1549.6</ele>
        <time>2021-08-11T06:37:44Z</time>
      </trkpt>
      <trkpt lat="44.47737" lon="6.7977">
        <ele>1550.7</ele>
        <time>2021-08-11T06:37:48Z</time>
      </trkpt>
      <trkpt lat="44.47736" lon="6.7978">
        <ele>1551.3</ele>
        <time>2021-08-11T06:37:52Z</time>
      </trkpt>
      <trkpt lat="44.47734" lon="6.79789">
        <ele>1551.5</ele>
        <time>2021-08-11T06:37:56Z</time>
      </trkpt>
      <trkpt lat="44.47732" lon="6.79799">
        <ele>1551.9</ele>
        <time>2021-08-11T06:38:00Z</time>
      </trkpt>
      <trkpt lat="44.47729" lon="6.79808">
        <ele>1551.9</ele>
        <time>2021-08-11T06:38:04Z</time>
      </trkpt>
      <trkpt lat="44.47727" lon="6.79816">
        <ele>1552.1</ele>
        <time>2021-08-11T06:38:08Z</time>
      </trkpt>
      <trkpt lat="44.47726" lon="6.79826">
        <ele>1552.6</ele>
        <time>2021-08-11T06:38:12Z</time>
      </trkpt>
      <trkpt lat="44.47727" lon="6.79835">
        <ele>1553.6</ele>
        <time>2021-08-11T06:38:16Z</time>
      </trkpt>
      <trkpt lat="44.47727" lon="6.79844">
        <ele>1554</ele>
        <time>2021-08-11T06:38:20Z</time>
      </trkpt>
      <trkpt lat="44.47728" lon="6.79853">
        <ele>1554.7</ele>
        <time>2021-08-11T06:38:24Z</time>
      </trkpt>
      <trkpt lat="44.4773" lon="6.79862">
        <ele>1555.6</ele>
        <time>2021-08-11T06:38:28Z</time>
      </trkpt>
      <trkpt lat="44.47733" lon="6.7987">
        <ele>1556.7</ele>
        <time>2021-08-11T06:38:32Z</time>
      </trkpt>
      <trkpt lat="44.47737" lon="6.79878">
        <ele>1558</ele>
        <time>2021-08-11T06:38:36Z</time>
      </trkpt>
      <trkpt lat="44.47742" lon="6.79886">
        <ele>1559.6</ele>
        <time>2021-08-11T06:38:40Z</time>
      </trkpt>
      <trkpt lat="44.47747" lon="6.79894">
        <ele>1561.2</ele>
        <time>2021-08-11T06:38:44Z</time>
      </trkpt>
      <trkpt lat="44.47751" lon="6.79904">
        <ele>1562.7</ele>
        <time>2021-08-11T06:38:48Z</time>
      </trkpt>
      <trkpt lat="44.47754" lon="6.79914">
        <ele>1563.9</ele>
        <time>2021-08-11T06:38:52Z</time>
      </trkpt>
      <trkpt lat="44.47756" lon="6.79925">
        <ele>1565</ele>
        <time>2021-08-11T06:38:56Z</time>
      </trkpt>
      <trkpt lat="44.47756" lon="6.79935">
        <ele>1565.5</ele>
        <time>2021-08-11T06:39:00Z</time>
      </trkpt>
      <trkpt lat="44.47756" lon="6.79945">
        <ele>1565.9</ele>
        <time>2021-08-11T06:39:04Z</time>
      </trkpt>
      <trkpt lat="44.47755" lon="6.79954">
        <ele>1566.1</ele>
        <time>2021-08-11T06:39:08Z</time>
      </trkpt>
      <trkpt lat="44.47752" lon="6.79963">
        <ele>1565.8</ele>
        <time>2021-08-11T06:39:12Z</time>
      </trkpt>
      <trkpt lat="44.47748" lon="6.79971">
        <ele>1565.1</ele>
        <time>2021-08-11T06:39:16Z</time>
      </trkpt>
      <trkpt lat="44.47746" lon="6.79981">
        <ele>1565.1</ele>
        <time>2021-08-11T06:39:20Z</time>
      </trkpt>
      <trkpt lat="44.47744" lon="6.79989">
        <ele>1564.9</ele>
        <time>2021-08-11T06:39:24Z</time>
      </trkpt>
      <trkpt lat="44.47744" lon="6.79997">
        <ele>1565.3</ele>
        <time>2021-08-11T06:39:28Z</time>
      </trkpt>
      <trkpt lat="44.47746" lon="6.80005">
        <ele>1566.1</ele>
        <time>2021-08-11T06:39:32Z</time>
      </trkpt>
      <trkpt lat="44.47748" lon="6.80014">
        <ele>1567</ele>
        <time>2021-08-11T06:39:36Z</time>
      </trkpt>
      <trkpt lat="44.47751" lon="6.80022">
        <ele>1568.1</ele>
        <time>2021-08-11T06:39:40Z</time>
      </trkpt>
      <trkpt lat="44.47755" lon="6.8003">
        <ele>1569.4</ele>
        <time>2021-08-11T06:39:44Z</time>
      </trkpt>
      <trkpt lat="44.47759" lon="6.80041">
        <ele>1570.9</ele>
        <time>2021-08-11T06:39:48Z</time>
      </trkpt>
      <trkpt lat="44.47762" lon="6.80051">
        <ele>1572.1</ele>
        <time>2021-08-11T06:39:52Z</time>
      </trkpt>
      <trkpt lat="44.47764" lon="6.80061">
        <ele>1573</ele>
        <time>2021-08-11T06:39:56Z</time>
      </trkpt>
      <trkpt lat="44.47764" lon="6.80071">
        <ele>1573.4</ele>
        <time>2021-08-11T06:40:00Z</time>
      </trkpt>
      <trkpt lat="44.47766" lon="6.80082">
        <ele>1574.4</ele>
        <time>2021-08-11T06:40:04Z</time>
      </trkpt>
      <trkpt lat="44.47767" lon="6.80092">
        <ele>1576.4</ele>
        <time>2021-08-11T06:40:08Z</time>
      </trkpt>
      <trkpt lat="44.47768" lon="6.80103">
        <ele>1578.7</ele>
        <time>2021-08-11T06:40:12Z</time>
      </trkpt>
      <trkpt lat="44.47767" lon="6.80114">
        <ele>1580.6</ele>
        <time>2021-08-11T06:40:16Z</time>
      </trkpt>
      <trkpt lat="44.47762" lon="6.80124">
        <ele>1581.3</ele>
        <time>2021-08-11T06:40:20Z</time>
      </trkpt>
      <trkpt lat="44.47756" lon="6.8013">
        <ele>1581</ele>
        <time>2021-08-11T06:40:24Z</time>
      </trkpt>
      <trkpt lat="44.47751" lon="6.80137">
        <ele>1581.2</ele>
        <time>2021-08-11T06:40:28Z</time>
      </trkpt>
      <trkpt lat="44.47746" lon="6.80143">
        <ele>1581.5</ele>
        <time>2021-08-11T06:40:32Z</time>
      </trkpt>
      <trkpt lat="44.47741" lon="6.8015">
        <ele>1582.1</ele>
        <time>2021-08-11T06:40:36Z</time>
      </trkpt>
      <trkpt lat="44.47738" lon="6.80159">
        <ele>1583.5</ele>
        <time>2021-08-11T06:40:40Z</time>
      </trkpt>
      <trkpt lat="44.47735" lon="6.80169">
        <ele>1585</ele>
        <time>2021-08-11T06:40:44Z</time>
      </trkpt>
      <trkpt lat="44.47732" lon="6.80178">
        <ele>1585.8</ele>
        <time>2021-08-11T06:40:48Z</time>
      </trkpt>
      <trkpt lat="44.47729" lon="6.80188">
        <ele>1586.8</ele>
        <time>2021-08-11T06:40:52Z</time>
      </trkpt>
      <trkpt lat="44.47725" lon="6.80197">
        <ele>1587.5</ele>
        <time>2021-08-11T06:40:56Z</time>
      </trkpt>
      <trkpt lat="44.47721" lon="6.80203">
        <ele>1587.7</ele>
        <time>2021-08-11T06:41:00Z</time>
      </trkpt>
      <trkpt lat="44.47717" lon="6.80211">
        <ele>1588.2</ele>
        <time>2021-08-11T06:41:04Z</time>
      </trkpt>
      <trkpt lat="44.47712" lon="6.80222">
        <ele>1589</ele>
        <time>2021-08-11T06:41:08Z</time>
      </trkpt>
      <trkpt lat="44.4771" lon="6.80231">
        <ele>1590</ele>
        <time>2021-08-11T06:41:12Z</time>
      </trkpt>
      <trkpt lat="44.47707" lon="6.80242">
        <ele>1591.1</ele>
        <time>2021-08-11T06:41:16Z</time>
      </trkpt>
      <trkpt lat="44.47703" lon="6.80252">
        <ele>1592</ele>
        <time>2021-08-11T06:41:20Z</time>
      </trkpt>
      <trkpt lat="44.477" lon="6.80262">
        <ele>1593</ele>
        <time>2021-08-11T06:41:24Z</time>
      </trkpt>
      <trkpt lat="44.47695" lon="6.80271">
        <ele>1593.6</ele>
        <time>2021-08-11T06:41:28Z</time>
      </trkpt>
      <trkpt lat="44.4769" lon="6.80279">
        <ele>1594.1</ele>
        <time>2021-08-11T06:41:32Z</time>
      </trkpt>
      <trkpt lat="44.47687" lon="6.80288">
        <ele>1595</ele>
        <time>2021-08-11T06:41:36Z</time>
      </trkpt>
      <trkpt lat="44.47684" lon="6.80298">
        <ele>1596.1</ele>
        <time>2021-08-11T06:41:40Z</time>
      </trkpt>
      <trkpt lat="44.47679" lon="6.80307">
        <ele>1596.7</ele>
        <time>2021-08-11T06:41:44Z</time>
      </trkpt>
      <trkpt lat="44.47674" lon="6.80314">
        <ele>1597.1</ele>
        <time>2021-08-11T06:41:48Z</time>
      </trkpt>
      <trkpt lat="44.47667" lon="6.80318">
        <ele>1596.7</ele>
        <time>2021-08-11T06:41:52Z</time>
      </trkpt>
      <trkpt lat="44.47662" lon="6.80317">
        <ele>1596.3</ele>
        <time>2021-08-11T06:41:56Z</time>
      </trkpt>
      <trkpt lat="44.47654" lon="6.80315">
        <ele>1595.8</ele>
        <time>2021-08-11T06:42:00Z</time>
      </trkpt>
      <trkpt lat="44.47646" lon="6.80314">
        <ele>1595.4</ele>
        <time>2021-08-11T06:42:04Z</time>
      </trkpt>
      <trkpt lat="44.4764" lon="6.80315">
        <ele>1595.5</ele>
        <time>2021-08-11T06:42:08Z</time>
      </trkpt>
      <trkpt lat="44.47633" lon="6.80319">
        <ele>1596</ele>
        <time>2021-08-11T06:42:12Z</time>
      </trkpt>
      <trkpt lat="44.47625" lon="6.80321">
        <ele>1596.2</ele>
        <time>2021-08-11T06:42:16Z</time>
      </trkpt>
      <trkpt lat="44.47617" lon="6.8032">
        <ele>1595.8</ele>
        <time>2021-08-11T06:42:20Z</time>
      </trkpt>
      <trkpt lat="44.47611" lon="6.80322">
        <ele>1596.1</ele>
        <time>2021-08-11T06:42:24Z</time>
      </trkpt>
      <trkpt lat="44.47609" lon="6.80329">
        <ele>1597.5</ele>
        <time>2021-08-11T06:42:28Z</time>
      </trkpt>
      <trkpt lat="44.47611" lon="6.80338">
        <ele>1599.1</ele>
        <time>2021-08-11T06:42:32Z</time>
      </trkpt>
      <trkpt lat="44.47615" lon="6.80343">
        <ele>1600</ele>
        <time>2021-08-11T06:42:36Z</time>
      </trkpt>
      <trkpt lat="44.47621" lon="6.80346">
        <ele>1600.6</ele>
        <time>2021-08-11T06:42:40Z</time>
      </trkpt>
      <trkpt lat="44.47628" lon="6.80349">
        <ele>1601.2</ele>
        <time>2021-08-11T06:42:44Z</time>
      </trkpt>
      <trkpt lat="44.47636" lon="6.8035">
        <ele>1601.4</ele>
        <time>2021-08-11T06:42:48Z</time>
      </trkpt>
      <trkpt lat="44.47643" lon="6.80351">
        <ele>1601.7</ele>
        <time>2021-08-11T06:42:52Z</time>
      </trkpt>
      <trkpt lat="44.4765" lon="6.8035">
        <ele>1601.6</ele>
        <time>2021-08-11T06:42:56Z</time>
      </trkpt>
      <trkpt lat="44.47658" lon="6.80352">
        <ele>1602</ele>
        <time>2021-08-11T06:43:00Z</time>
      </trkpt>
      <trkpt lat="44.47665" lon="6.80356">
        <ele>1602.8</ele>
        <time>2021-08-11T06:43:04Z</time>
      </trkpt>
      <trkpt lat="44.47673" lon="6.80365">
        <ele>1605.2</ele>
        <time>2021-08-11T06:43:08Z</time>
      </trkpt>
      <trkpt lat="44.47679" lon="6.80373">
        <ele>1607.4</ele>
        <time>2021-08-11T06:43:12Z</time>
      </trkpt>
      <trkpt lat="44.47687" lon="6.80379">
        <ele>1609.5</ele>
        <time>2021-08-11T06:43:16Z</time>
      </trkpt>
      <trkpt lat="44.47695" lon="6.80375">
        <ele>1609.9</ele>
        <time>2021-08-11T06:43:20Z</time>
      </trkpt>
      <trkpt lat="44.47703" lon="6.80365">
        <ele>1609.4</ele>
        <time>2021-08-11T06:43:24Z</time>
      </trkpt>
      <trkpt lat="44.47708" lon="6.80355">
        <ele>1608.5</ele>
        <time>2021-08-11T06:43:28Z</time>
      </trkpt>
      <trkpt lat="44.47712" lon="6.80342">
        <ele>1606.9</ele>
        <time>2021-08-11T06:43:32Z</time>
      </trkpt>
      <trkpt lat="44.47714" lon="6.80329">
        <ele>1605.2</ele>
        <time>2021-08-11T06:43:36Z</time>
      </trkpt>
      <trkpt lat="44.4772" lon="6.80317">
        <ele>1604.3</ele>
        <time>2021-08-11T06:43:40Z</time>
      </trkpt>
      <trkpt lat="44.47728" lon="6.80313">
        <ele>1604.8</ele>
        <time>2021-08-11T06:43:44Z</time>
      </trkpt>
      <trkpt lat="44.47735" lon="6.8032">
        <ele>1606.9</ele>
        <time>2021-08-11T06:43:48Z</time>
      </trkpt>
      <trkpt lat="44.47738" lon="6.80333">
        <ele>1609.2</ele>
        <time>2021-08-11T06:43:52Z</time>
      </trkpt>
      <trkpt lat="44.47734" lon="6.80344">
        <ele>1610.4</ele>
        <time>2021-08-11T06:43:56Z</time>
      </trkpt>
      <trkpt lat="44.47728" lon="6.80355">
        <ele>1611.3</ele>
        <time>2021-08-11T06:44:00Z</time>
      </trkpt>
      <trkpt lat="44.47722" lon="6.80368">
        <ele>1612.5</ele>
        <time>2021-08-11T06:44:04Z</time>
      </trkpt>
      <trkpt lat="44.47717" lon="6.80379">
        <ele>1613.6</ele>
        <time>2021-08-11T06:44:08Z</time>
      </trkpt>
      <trkpt lat="44.47714" lon="6.8039">
        <ele>1614.9</ele>
        <time>2021-08-11T06:44:12Z</time>
      </trkpt>
      <trkpt lat="44.47711" lon="6.80401">
        <ele>1616.3</ele>
        <time>2021-08-11T06:44:16Z</time>
      </trkpt>
      <trkpt lat="44.47705" lon="6.80411">
        <ele>1617.1</ele>
        <time>2021-08-11T06:44:20Z</time>
      </trkpt>
      <trkpt lat="44.47698" lon="6.80417">
        <ele>1617.2</ele>
        <time>2021-08-11T06:44:24Z</time>
      </trkpt>
      <trkpt lat="44.47688" lon="6.80421">
        <ele>1616.6</ele>
        <time>2021-08-11T06:44:28Z</time>
      </trkpt>
      <trkpt lat="44.47681" lon="6.80428">
        <ele>1616.8</ele>
        <time>2021-08-11T06:44:32Z</time>
      </trkpt>
      <trkpt lat="44.47675" lon="6.80435">
        <ele>1617.1</ele>
        <time>2021-08-11T06:44:36Z</time>
      </trkpt>
      <trkpt lat="44.4767" lon="6.80444">
        <ele>1617.8</ele>
        <time>2021-08-11T06:44:40Z</time>
      </trkpt>
      <trkpt lat="44.47667" lon="6.80454">
        <ele>1618.9</ele>
        <time>2021-08-11T06:44:44Z</time>
      </trkpt>
      <trkpt lat="44.47668" lon="6.80463">
        <ele>1620.5</ele>
        <time>2021-08-11T06:44:48Z</time>
      </trkpt>
      <trkpt lat="44.47673" lon="6.80469">
        <ele>1622.4</ele>
        <time>2021-08-11T06:44:52Z</time>
      </trkpt>
      <trkpt lat="44.47679" lon="6.8047">
        <ele>1623.7</ele>
        <time>2021-08-11T06:44:56Z</time>
      </trkpt>
      <trkpt lat="44.47688" lon="6.80469">
        <ele>1625.3</ele>
        <time>2021-08-11T06:45:00Z</time>
      </trkpt>
      <trkpt lat="44.47696" lon="6.80464">
        <ele>1625.9</ele>
        <time>2021-08-11T06:45:04Z</time>
      </trkpt>
      <trkpt lat="44.47702" lon="6.80458">
        <ele>1625.8</ele>
        <time>2021-08-11T06:45:08Z</time>
      </trkpt>
      <trkpt lat="44.47709" lon="6.80451">
        <ele>1625.6</ele>
        <time>2021-08-11T06:45:12Z</time>
      </trkpt>
      <trkpt lat="44.47716" lon="6.80443">
        <ele>1625.1</ele>
        <time>2021-08-11T06:45:16Z</time>
      </trkpt>
      <trkpt lat="44.47723" lon="6.80436">
        <ele>1624.7</ele>
        <time>2021-08-11T06:45:20Z</time>
      </trkpt>
      <trkpt lat="44.47731" lon="6.8043">
        <ele>1624.6</ele>
        <time>2021-08-11T06:45:24Z</time>
      </trkpt>
      <trkpt lat="44.47739" lon="6.80426">
        <ele>1624.8</ele>
        <time>2021-08-11T06:45:28Z</time>
      </trkpt>
      <trkpt lat="44.47747" lon="6.80424">
        <ele>1625.4</ele>
        <time>2021-08-11T06:45:32Z</time>
      </trkpt>
      <trkpt lat="44.47755" lon="6.80421">
        <ele>1626.6</ele>
        <time>2021-08-11T06:45:36Z</time>
      </trkpt>
      <trkpt lat="44.47764" lon="6.80417">
        <ele>1628.3</ele>
        <time>2021-08-11T06:45:40Z</time>
      </trkpt>
      <trkpt lat="44.47773" lon="6.80411">
        <ele>1630</ele>
        <time>2021-08-11T06:45:44Z</time>
      </trkpt>
      <trkpt lat="44.47781" lon="6.80404">
        <ele>1631.3</ele>
        <time>2021-08-11T06:45:48Z</time>
      </trkpt>
      <trkpt lat="44.47789" lon="6.80396">
        <ele>1632.5</ele>
        <time>2021-08-11T06:45:52Z</time>
      </trkpt>
      <trkpt lat="44.47797" lon="6.80389">
        <ele>1633.8</ele>
        <time>2021-08-11T06:45:56Z</time>
      </trkpt>
      <trkpt lat="44.47805" lon="6.80383">
        <ele>1635.2</ele>
        <time>2021-08-11T06:46:00Z</time>
      </trkpt>
      <trkpt lat="44.47812" lon="6.80378">
        <ele>1636.6</ele>
        <time>2021-08-11T06:46:04Z</time>
      </trkpt>
      <trkpt lat="44.47818" lon="6.80372">
        <ele>1637.4</ele>
        <time>2021-08-11T06:46:08Z</time>
      </trkpt>
      <trkpt lat="44.47822" lon="6.80361">
        <ele>1636.9</ele>
        <time>2021-08-11T06:46:12Z</time>
      </trkpt>
      <trkpt lat="44.47825" lon="6.80349">
        <ele>1635.9</ele>
        <time>2021-08-11T06:46:16Z</time>
      </trkpt>
      <trkpt lat="44.47831" lon="6.80337">
        <ele>1635.9</ele>
        <time>2021-08-11T06:46:20Z</time>
      </trkpt>
      <trkpt lat="44.47837" lon="6.80326">
        <ele>1636.1</ele>
        <time>2021-08-11T06:46:24Z</time>
      </trkpt>
      <trkpt lat="44.47842" lon="6.80316">
        <ele>1636.3</ele>
        <time>2021-08-11T06:46:28Z</time>
      </trkpt>
      <trkpt lat="44.47847" lon="6.80306">
        <ele>1636.5</ele>
        <time>2021-08-11T06:46:32Z</time>
      </trkpt>
      <trkpt lat="44.47853" lon="6.80296">
        <ele>1637</ele>
        <time>2021-08-11T06:46:36Z</time>
      </trkpt>
      <trkpt lat="44.47859" lon="6.80285">
        <ele>1637.4</ele>
        <time>2021-08-11T06:46:40Z</time>
      </trkpt>
      <trkpt lat="44.47867" lon="6.80274">
        <ele>1638.5</ele>
        <time>2021-08-11T06:46:44Z</time>
      </trkpt>
      <trkpt lat="44.47874" lon="6.80264">
        <ele>1639.3</ele>
        <time>2021-08-11T06:46:48Z</time>
      </trkpt>
      <trkpt lat="44.47881" lon="6.80254">
        <ele>1640.2</ele>
        <time>2021-08-11T06:46:52Z</time>
      </trkpt>
      <trkpt lat="44.47887" lon="6.80244">
        <ele>1640.3</ele>
        <time>2021-08-11T06:46:56Z</time>
      </trkpt>
      <trkpt lat="44.47898" lon="6.80223">
        <ele>1639.4</ele>
        <time>2021-08-11T06:47:00Z</time>
      </trkpt>
      <trkpt lat="44.47914" lon="6.80199">
        <ele>1639.5</ele>
        <time>2021-08-11T06:47:04Z</time>
      </trkpt>
      <trkpt lat="44.47924" lon="6.80189">
        <ele>1640.4</ele>
        <time>2021-08-11T06:47:08Z</time>
      </trkpt>
      <trkpt lat="44.47923" lon="6.80182">
        <ele>1638.5</ele>
        <time>2021-08-11T06:47:12Z</time>
      </trkpt>
      <trkpt lat="44.47922" lon="6.80182">
        <ele>1638.2</ele>
        <time>2021-08-11T06:49:32Z</time>
      </trkpt>
      <trkpt lat="44.47929" lon="6.80179">
        <ele>1639.8</ele>
        <time>2021-08-11T06:49:36Z</time>
      </trkpt>
      <trkpt lat="44.47936" lon="6.80171">
        <ele>1640.2</ele>
        <time>2021-08-11T06:49:40Z</time>
      </trkpt>
      <trkpt lat="44.47944" lon="6.80164">
        <ele>1641.4</ele>
        <time>2021-08-11T06:49:44Z</time>
      </trkpt>
      <trkpt lat="44.47951" lon="6.80159">
        <ele>1642.9</ele>
        <time>2021-08-11T06:49:48Z</time>
      </trkpt>
      <trkpt lat="44.47957" lon="6.80154">
        <ele>1644.1</ele>
        <time>2021-08-11T06:49:52Z</time>
      </trkpt>
      <trkpt lat="44.47962" lon="6.80147">
        <ele>1644.7</ele>
        <time>2021-08-11T06:49:56Z</time>
      </trkpt>
      <trkpt lat="44.47966" lon="6.8014">
        <ele>1644.9</ele>
        <time>2021-08-11T06:50:00Z</time>
      </trkpt>
      <trkpt lat="44.47972" lon="6.80135">
        <ele>1646.2</ele>
        <time>2021-08-11T06:50:04Z</time>
      </trkpt>
      <trkpt lat="44.47979" lon="6.80131">
        <ele>1648.1</ele>
        <time>2021-08-11T06:50:08Z</time>
      </trkpt>
      <trkpt lat="44.47987" lon="6.80124">
        <ele>1649.8</ele>
        <time>2021-08-11T06:50:12Z</time>
      </trkpt>
      <trkpt lat="44.47992" lon="6.80116">
        <ele>1650.5</ele>
        <time>2021-08-11T06:50:16Z</time>
      </trkpt>
      <trkpt lat="44.47996" lon="6.80105">
        <ele>1650.4</ele>
        <time>2021-08-11T06:50:20Z</time>
      </trkpt>
      <trkpt lat="44.48001" lon="6.80093">
        <ele>1650.6</ele>
        <time>2021-08-11T06:50:24Z</time>
      </trkpt>
      <trkpt lat="44.48004" lon="6.80081">
        <ele>1649.8</ele>
        <time>2021-08-11T06:50:28Z</time>
      </trkpt>
      <trkpt lat="44.48007" lon="6.8007">
        <ele>1648.6</ele>
        <time>2021-08-11T06:50:32Z</time>
      </trkpt>
      <trkpt lat="44.48012" lon="6.8006">
        <ele>1648.3</ele>
        <time>2021-08-11T06:50:36Z</time>
      </trkpt>
      <trkpt lat="44.48018" lon="6.80053">
        <ele>1649</ele>
        <time>2021-08-11T06:50:40Z</time>
      </trkpt>
      <trkpt lat="44.48025" lon="6.80048">
        <ele>1650.4</ele>
        <time>2021-08-11T06:50:44Z</time>
      </trkpt>
      <trkpt lat="44.48031" lon="6.80044">
        <ele>1651.6</ele>
        <time>2021-08-11T06:50:48Z</time>
      </trkpt>
      <trkpt lat="44.48038" lon="6.8004">
        <ele>1653.3</ele>
        <time>2021-08-11T06:50:52Z</time>
      </trkpt>
      <trkpt lat="44.48045" lon="6.80035">
        <ele>1654.8</ele>
        <time>2021-08-11T06:50:56Z</time>
      </trkpt>
      <trkpt lat="44.4805" lon="6.80026">
        <ele>1655.1</ele>
        <time>2021-08-11T06:51:00Z</time>
      </trkpt>
      <trkpt lat="44.48054" lon="6.80017">
        <ele>1655</ele>
        <time>2021-08-11T06:51:04Z</time>
      </trkpt>
      <trkpt lat="44.48058" lon="6.80008">
        <ele>1655.1</ele>
        <time>2021-08-11T06:51:08Z</time>
      </trkpt>
      <trkpt lat="44.48064" lon="6.80003">
        <ele>1656.5</ele>
        <time>2021-08-11T06:51:12Z</time>
      </trkpt>
      <trkpt lat="44.4807" lon="6.79999">
        <ele>1658</ele>
        <time>2021-08-11T06:51:16Z</time>
      </trkpt>
      <trkpt lat="44.48075" lon="6.80003">
        <ele>1660.4</ele>
        <time>2021-08-11T06:51:20Z</time>
      </trkpt>
      <trkpt lat="44.48078" lon="6.80009">
        <ele>1662.3</ele>
        <time>2021-08-11T06:51:24Z</time>
      </trkpt>
      <trkpt lat="44.48077" lon="6.80016">
        <ele>1662.9</ele>
        <time>2021-08-11T06:51:28Z</time>
      </trkpt>
      <trkpt lat="44.48073" lon="6.80025">
        <ele>1662.8</ele>
        <time>2021-08-11T06:51:32Z</time>
      </trkpt>
      <trkpt lat="44.48068" lon="6.80033">
        <ele>1662.2</ele>
        <time>2021-08-11T06:51:36Z</time>
      </trkpt>
      <trkpt lat="44.48062" lon="6.80044">
        <ele>1661.8</ele>
        <time>2021-08-11T06:51:40Z</time>
      </trkpt>
      <trkpt lat="44.48056" lon="6.80056">
        <ele>1661.7</ele>
        <time>2021-08-11T06:51:44Z</time>
      </trkpt>
      <trkpt lat="44.48052" lon="6.80067">
        <ele>1662.1</ele>
        <time>2021-08-11T06:51:48Z</time>
      </trkpt>
      <trkpt lat="44.48049" lon="6.80079">
        <ele>1663</ele>
        <time>2021-08-11T06:51:52Z</time>
      </trkpt>
      <trkpt lat="44.4805" lon="6.80091">
        <ele>1665.1</ele>
        <time>2021-08-11T06:51:56Z</time>
      </trkpt>
      <trkpt lat="44.48051" lon="6.80103">
        <ele>1667.2</ele>
        <time>2021-08-11T06:52:00Z</time>
      </trkpt>
      <trkpt lat="44.4805" lon="6.80117">
        <ele>1668.9</ele>
        <time>2021-08-11T06:52:04Z</time>
      </trkpt>
      <trkpt lat="44.48048" lon="6.80131">
        <ele>1670.4</ele>
        <time>2021-08-11T06:52:08Z</time>
      </trkpt>
      <trkpt lat="44.48047" lon="6.80145">
        <ele>1672.1</ele>
        <time>2021-08-11T06:52:12Z</time>
      </trkpt>
      <trkpt lat="44.48043" lon="6.80157">
        <ele>1672.5</ele>
        <time>2021-08-11T06:52:16Z</time>
      </trkpt>
      <trkpt lat="44.48035" lon="6.80168">
        <ele>1671.6</ele>
        <time>2021-08-11T06:52:20Z</time>
      </trkpt>
      <trkpt lat="44.48028" lon="6.80174">
        <ele>1670.4</ele>
        <time>2021-08-11T06:52:24Z</time>
      </trkpt>
      <trkpt lat="44.48021" lon="6.80179">
        <ele>1669.1</ele>
        <time>2021-08-11T06:52:28Z</time>
      </trkpt>
      <trkpt lat="44.48015" lon="6.80184">
        <ele>1668.2</ele>
        <time>2021-08-11T06:52:32Z</time>
      </trkpt>
      <trkpt lat="44.4801" lon="6.80188">
        <ele>1667.4</ele>
        <time>2021-08-11T06:52:36Z</time>
      </trkpt>
      <trkpt lat="44.48005" lon="6.80193">
        <ele>1666.9</ele>
        <time>2021-08-11T06:52:40Z</time>
      </trkpt>
      <trkpt lat="44.48" lon="6.80197">
        <ele>1666.2</ele>
        <time>2021-08-11T06:52:44Z</time>
      </trkpt>
      <trkpt lat="44.47995" lon="6.80201">
        <ele>1665.4</ele>
        <time>2021-08-11T06:52:48Z</time>
      </trkpt>
      <trkpt lat="44.47989" lon="6.80205">
        <ele>1664.4</ele>
        <time>2021-08-11T06:52:52Z</time>
      </trkpt>
      <trkpt lat="44.47984" lon="6.80209">
        <ele>1663.6</ele>
        <time>2021-08-11T06:52:56Z</time>
      </trkpt>
      <trkpt lat="44.47978" lon="6.80213">
        <ele>1662.6</ele>
        <time>2021-08-11T06:53:00Z</time>
      </trkpt>
      <trkpt lat="44.47974" lon="6.8022">
        <ele>1662.9</ele>
        <time>2021-08-11T06:53:04Z</time>
      </trkpt>
      <trkpt lat="44.47972" lon="6.80227">
        <ele>1663.7</ele>
        <time>2021-08-11T06:53:08Z</time>
      </trkpt>
      <trkpt lat="44.47971" lon="6.80235">
        <ele>1665.1</ele>
        <time>2021-08-11T06:53:12Z</time>
      </trkpt>
      <trkpt lat="44.47973" lon="6.80243">
        <ele>1667.4</ele>
        <time>2021-08-11T06:53:16Z</time>
      </trkpt>
      <trkpt lat="44.47975" lon="6.80251">
        <ele>1669.6</ele>
        <time>2021-08-11T06:53:20Z</time>
      </trkpt>
      <trkpt lat="44.47978" lon="6.80258">
        <ele>1671.2</ele>
        <time>2021-08-11T06:53:24Z</time>
      </trkpt>
      <trkpt lat="44.4798" lon="6.80265">
        <ele>1672.5</ele>
        <time>2021-08-11T06:53:28Z</time>
      </trkpt>
      <trkpt lat="44.4798" lon="6.80273">
        <ele>1673.3</ele>
        <time>2021-08-11T06:53:32Z</time>
      </trkpt>
      <trkpt lat="44.47985" lon="6.80281">
        <ele>1675.5</ele>
        <time>2021-08-11T06:53:36Z</time>
      </trkpt>
      <trkpt lat="44.47988" lon="6.80291">
        <ele>1677.3</ele>
        <time>2021-08-11T06:53:40Z</time>
      </trkpt>
      <trkpt lat="44.47991" lon="6.80302">
        <ele>1679.1</ele>
        <time>2021-08-11T06:53:44Z</time>
      </trkpt>
      <trkpt lat="44.47994" lon="6.80312">
        <ele>1680.7</ele>
        <time>2021-08-11T06:53:48Z</time>
      </trkpt>
      <trkpt lat="44.47996" lon="6.80322">
        <ele>1682.1</ele>
        <time>2021-08-11T06:53:52Z</time>
      </trkpt>
      <trkpt lat="44.47998" lon="6.80332">
        <ele>1683.4</ele>
        <time>2021-08-11T06:53:56Z</time>
      </trkpt>
      <trkpt lat="44.47999" lon="6.80342">
        <ele>1684.5</ele>
        <time>2021-08-11T06:54:00Z</time>
      </trkpt>
      <trkpt lat="44.48001" lon="6.80348">
        <ele>1685.5</ele>
        <time>2021-08-11T06:54:04Z</time>
      </trkpt>
      <trkpt lat="44.48002" lon="6.80354">
        <ele>1686.3</ele>
        <time>2021-08-11T06:54:08Z</time>
      </trkpt>
      <trkpt lat="44.48003" lon="6.80358">
        <ele>1687</ele>
        <time>2021-08-11T06:54:12Z</time>
      </trkpt>
      <trkpt lat="44.48004" lon="6.80362">
        <ele>1687.6</ele>
        <time>2021-08-11T06:54:20Z</time>
      </trkpt>
      <trkpt lat="44.48005" lon="6.80365">
        <ele>1688.1</ele>
        <time>2021-08-11T06:54:24Z</time>
      </trkpt>
      <trkpt lat="44.48004" lon="6.8037">
        <ele>1688.3</ele>
        <time>2021-08-11T06:54:28Z</time>
      </trkpt>
      <trkpt lat="44.48003" lon="6.80374">
        <ele>1688.3</ele>
        <time>2021-08-11T06:54:32Z</time>
      </trkpt>
      <trkpt lat="44.48003" lon="6.80378">
        <ele>1688.6</ele>
        <time>2021-08-11T06:54:36Z</time>
      </trkpt>
      <trkpt lat="44.48001" lon="6.80385">
        <ele>1688.6</ele>
        <time>2021-08-11T06:54:48Z</time>
      </trkpt>
      <trkpt lat="44.48" lon="6.80386">
        <ele>1688.4</ele>
        <time>2021-08-11T06:54:52Z</time>
      </trkpt>
      <trkpt lat="44.47997" lon="6.80388">
        <ele>1687.9</ele>
        <time>2021-08-11T06:54:56Z</time>
      </trkpt>
      <trkpt lat="44.47995" lon="6.80396">
        <ele>1688.1</ele>
        <time>2021-08-11T06:55:00Z</time>
      </trkpt>
      <trkpt lat="44.47992" lon="6.80404">
        <ele>1688.1</ele>
        <time>2021-08-11T06:55:04Z</time>
      </trkpt>
      <trkpt lat="44.4799" lon="6.80413">
        <ele>1688.4</ele>
        <time>2021-08-11T06:55:08Z</time>
      </trkpt>
      <trkpt lat="44.47989" lon="6.80421">
        <ele>1689</ele>
        <time>2021-08-11T06:55:12Z</time>
      </trkpt>
      <trkpt lat="44.47987" lon="6.80429">
        <ele>1689.5</ele>
        <time>2021-08-11T06:55:16Z</time>
      </trkpt>
      <trkpt lat="44.47985" lon="6.80437">
        <ele>1690</ele>
        <time>2021-08-11T06:55:20Z</time>
      </trkpt>
      <trkpt lat="44.47983" lon="6.80445">
        <ele>1690.5</ele>
        <time>2021-08-11T06:55:24Z</time>
      </trkpt>
      <trkpt lat="44.47981" lon="6.80453">
        <ele>1690.9</ele>
        <time>2021-08-11T06:55:28Z</time>
      </trkpt>
      <trkpt lat="44.47979" lon="6.80462">
        <ele>1691.5</ele>
        <time>2021-08-11T06:55:32Z</time>
      </trkpt>
      <trkpt lat="44.47977" lon="6.80466">
        <ele>1691.5</ele>
        <time>2021-08-11T06:55:36Z</time>
      </trkpt>
      <trkpt lat="44.47976" lon="6.8047">
        <ele>1691.7</ele>
        <time>2021-08-11T06:55:44Z</time>
      </trkpt>
      <trkpt lat="44.47976" lon="6.80474">
        <ele>1692.2</ele>
        <time>2021-08-11T06:55:48Z</time>
      </trkpt>
      <trkpt lat="44.47976" lon="6.80478">
        <ele>1692.7</ele>
        <time>2021-08-11T06:55:52Z</time>
      </trkpt>
      <trkpt lat="44.47976" lon="6.8048">
        <ele>1692.9</ele>
        <time>2021-08-11T06:55:56Z</time>
      </trkpt>
      <trkpt lat="44.47976" lon="6.80482">
        <ele>1693.1</ele>
        <time>2021-08-11T06:56:00Z</time>
      </trkpt>
      <trkpt lat="44.47975" lon="6.80486">
        <ele>1693.4</ele>
        <time>2021-08-11T06:56:04Z</time>
      </trkpt>
      <trkpt lat="44.47972" lon="6.80487">
        <ele>1692.8</ele>
        <time>2021-08-11T06:56:08Z</time>
      </trkpt>
      <trkpt lat="44.47969" lon="6.80489">
        <ele>1692.3</ele>
        <time>2021-08-11T06:56:12Z</time>
      </trkpt>
      <trkpt lat="44.47967" lon="6.80492">
        <ele>1692.2</ele>
        <time>2021-08-11T06:56:16Z</time>
      </trkpt>
      <trkpt lat="44.47967" lon="6.80494">
        <ele>1692.4</ele>
        <time>2021-08-11T06:56:24Z</time>
      </trkpt>
      <trkpt lat="44.47966" lon="6.80501">
        <ele>1693.1</ele>
        <time>2021-08-11T06:56:28Z</time>
      </trkpt>
      <trkpt lat="44.47961" lon="6.80509">
        <ele>1694</ele>
        <time>2021-08-11T06:56:32Z</time>
      </trkpt>
      <trkpt lat="44.47955" lon="6.80515">
        <ele>1694.1</ele>
        <time>2021-08-11T06:56:36Z</time>
      </trkpt>
      <trkpt lat="44.47949" lon="6.80522">
        <ele>1694.4</ele>
        <time>2021-08-11T06:56:40Z</time>
      </trkpt>
      <trkpt lat="44.47944" lon="6.80528">
        <ele>1694.7</ele>
        <time>2021-08-11T06:56:44Z</time>
      </trkpt>
      <trkpt lat="44.4794" lon="6.80534">
        <ele>1695.2</ele>
        <time>2021-08-11T06:56:48Z</time>
      </trkpt>
      <trkpt lat="44.47935" lon="6.8054">
        <ele>1695.4</ele>
        <time>2021-08-11T06:56:52Z</time>
      </trkpt>
      <trkpt lat="44.47931" lon="6.80547">
        <ele>1696.1</ele>
        <time>2021-08-11T06:56:56Z</time>
      </trkpt>
      <trkpt lat="44.47926" lon="6.80554">
        <ele>1696.5</ele>
        <time>2021-08-11T06:57:00Z</time>
      </trkpt>
      <trkpt lat="44.47923" lon="6.80563">
        <ele>1697.9</ele>
        <time>2021-08-11T06:57:04Z</time>
      </trkpt>
      <trkpt lat="44.4792" lon="6.80571">
        <ele>1699</ele>
        <time>2021-08-11T06:57:08Z</time>
      </trkpt>
      <trkpt lat="44.47918" lon="6.80581">
        <ele>1700.8</ele>
        <time>2021-08-11T06:57:12Z</time>
      </trkpt>
      <trkpt lat="44.47917" lon="6.8059">
        <ele>1702.4</ele>
        <time>2021-08-11T06:57:16Z</time>
      </trkpt>
      <trkpt lat="44.47917" lon="6.80599">
        <ele>1704.1</ele>
        <time>2021-08-11T06:57:20Z</time>
      </trkpt>
      <trkpt lat="44.47917" lon="6.80608">
        <ele>1705.8</ele>
        <time>2021-08-11T06:57:24Z</time>
      </trkpt>
      <trkpt lat="44.47917" lon="6.80617">
        <ele>1707.6</ele>
        <time>2021-08-11T06:57:28Z</time>
      </trkpt>
      <trkpt lat="44.47915" lon="6.80626">
        <ele>1708.9</ele>
        <time>2021-08-11T06:57:32Z</time>
      </trkpt>
      <trkpt lat="44.47912" lon="6.80635">
        <ele>1710</ele>
        <time>2021-08-11T06:57:36Z</time>
      </trkpt>
      <trkpt lat="44.47909" lon="6.80644">
        <ele>1711.1</ele>
        <time>2021-08-11T06:57:40Z</time>
      </trkpt>
      <trkpt lat="44.47906" lon="6.80653">
        <ele>1712.3</ele>
        <time>2021-08-11T06:57:44Z</time>
      </trkpt>
      <trkpt lat="44.47904" lon="6.80661">
        <ele>1713.5</ele>
        <time>2021-08-11T06:57:48Z</time>
      </trkpt>
      <trkpt lat="44.47901" lon="6.80671">
        <ele>1715.1</ele>
        <time>2021-08-11T06:57:52Z</time>
      </trkpt>
      <trkpt lat="44.47896" lon="6.8068">
        <ele>1716.5</ele>
        <time>2021-08-11T06:57:56Z</time>
      </trkpt>
      <trkpt lat="44.47889" lon="6.80687">
        <ele>1717.1</ele>
        <time>2021-08-11T06:58:00Z</time>
      </trkpt>
      <trkpt lat="44.47882" lon="6.8069">
        <ele>1716.6</ele>
        <time>2021-08-11T06:58:04Z</time>
      </trkpt>
      <trkpt lat="44.47875" lon="6.80691">
        <ele>1715.6</ele>
        <time>2021-08-11T06:58:08Z</time>
      </trkpt>
      <trkpt lat="44.47868" lon="6.8069">
        <ele>1714</ele>
        <time>2021-08-11T06:58:12Z</time>
      </trkpt>
      <trkpt lat="44.47861" lon="6.80688">
        <ele>1712.2</ele>
        <time>2021-08-11T06:58:16Z</time>
      </trkpt>
      <trkpt lat="44.47854" lon="6.80686">
        <ele>1710.4</ele>
        <time>2021-08-11T06:58:20Z</time>
      </trkpt>
      <trkpt lat="44.47848" lon="6.80686">
        <ele>1709.3</ele>
        <time>2021-08-11T06:58:24Z</time>
      </trkpt>
      <trkpt lat="44.47842" lon="6.80688">
        <ele>1708.7</ele>
        <time>2021-08-11T06:58:28Z</time>
      </trkpt>
      <trkpt lat="44.47836" lon="6.80692">
        <ele>1708.8</ele>
        <time>2021-08-11T06:58:32Z</time>
      </trkpt>
      <trkpt lat="44.47831" lon="6.80698">
        <ele>1709.8</ele>
        <time>2021-08-11T06:58:36Z</time>
      </trkpt>
      <trkpt lat="44.47827" lon="6.80705">
        <ele>1711.3</ele>
        <time>2021-08-11T06:58:40Z</time>
      </trkpt>
      <trkpt lat="44.47821" lon="6.80711">
        <ele>1712.3</ele>
        <time>2021-08-11T06:58:44Z</time>
      </trkpt>
      <trkpt lat="44.47816" lon="6.80714">
        <ele>1712.5</ele>
        <time>2021-08-11T06:58:48Z</time>
      </trkpt>
      <trkpt lat="44.47809" lon="6.80716">
        <ele>1712.2</ele>
        <time>2021-08-11T06:58:52Z</time>
      </trkpt>
      <trkpt lat="44.47803" lon="6.80718">
        <ele>1712</ele>
        <time>2021-08-11T06:58:56Z</time>
      </trkpt>
      <trkpt lat="44.47797" lon="6.80721">
        <ele>1712</ele>
        <time>2021-08-11T06:59:00Z</time>
      </trkpt>
      <trkpt lat="44.47793" lon="6.80725">
        <ele>1712.6</ele>
        <time>2021-08-11T06:59:04Z</time>
      </trkpt>
      <trkpt lat="44.4779" lon="6.80731">
        <ele>1713.8</ele>
        <time>2021-08-11T06:59:08Z</time>
      </trkpt>
      <trkpt lat="44.47786" lon="6.80738">
        <ele>1715.1</ele>
        <time>2021-08-11T06:59:12Z</time>
      </trkpt>
      <trkpt lat="44.47783" lon="6.80744">
        <ele>1716.2</ele>
        <time>2021-08-11T06:59:16Z</time>
      </trkpt>
      <trkpt lat="44.47786" lon="6.80751">
        <ele>1718.3</ele>
        <time>2021-08-11T06:59:20Z</time>
      </trkpt>
      <trkpt lat="44.47792" lon="6.80753">
        <ele>1719.5</ele>
        <time>2021-08-11T06:59:24Z</time>
      </trkpt>
      <trkpt lat="44.47798" lon="6.80757">
        <ele>1721</ele>
        <time>2021-08-11T06:59:28Z</time>
      </trkpt>
      <trkpt lat="44.47803" lon="6.80761">
        <ele>1722.3</ele>
        <time>2021-08-11T06:59:32Z</time>
      </trkpt>
      <trkpt lat="44.47808" lon="6.80765">
        <ele>1723.7</ele>
        <time>2021-08-11T06:59:36Z</time>
      </trkpt>
      <trkpt lat="44.47813" lon="6.8077">
        <ele>1725.3</ele>
        <time>2021-08-11T06:59:40Z</time>
      </trkpt>
      <trkpt lat="44.47818" lon="6.80774">
        <ele>1726.7</ele>
        <time>2021-08-11T06:59:44Z</time>
      </trkpt>
      <trkpt lat="44.47824" lon="6.80778">
        <ele>1728.2</ele>
        <time>2021-08-11T06:59:48Z</time>
      </trkpt>
      <trkpt lat="44.47829" lon="6.80782">
        <ele>1729.7</ele>
        <time>2021-08-11T06:59:52Z</time>
      </trkpt>
      <trkpt lat="44.47834" lon="6.80786">
        <ele>1731.2</ele>
        <time>2021-08-11T06:59:56Z</time>
      </trkpt>
      <trkpt lat="44.47839" lon="6.80789">
        <ele>1732.6</ele>
        <time>2021-08-11T07:00:00Z</time>
      </trkpt>
      <trkpt lat="44.47845" lon="6.80792">
        <ele>1734.2</ele>
        <time>2021-08-11T07:00:04Z</time>
      </trkpt>
      <trkpt lat="44.47851" lon="6.80795">
        <ele>1735.9</ele>
        <time>2021-08-11T07:00:08Z</time>
      </trkpt>
      <trkpt lat="44.47858" lon="6.80796">
        <ele>1737.4</ele>
        <time>2021-08-11T07:00:12Z</time>
      </trkpt>
      <trkpt lat="44.47862" lon="6.80794">
        <ele>1737.8</ele>
        <time>2021-08-11T07:00:16Z</time>
      </trkpt>
      <trkpt lat="44.47868" lon="6.80791">
        <ele>1738.3</ele>
        <time>2021-08-11T07:00:20Z</time>
      </trkpt>
      <trkpt lat="44.47874" lon="6.80786">
        <ele>1738.4</ele>
        <time>2021-08-11T07:00:24Z</time>
      </trkpt>
      <trkpt lat="44.47879" lon="6.80782">
        <ele>1738.6</ele>
        <time>2021-08-11T07:00:28Z</time>
      </trkpt>
      <trkpt lat="44.47883" lon="6.80777">
        <ele>1738.2</ele>
        <time>2021-08-11T07:00:32Z</time>
      </trkpt>
      <trkpt lat="44.47888" lon="6.80772">
        <ele>1738.1</ele>
        <time>2021-08-11T07:00:36Z</time>
      </trkpt>
      <trkpt lat="44.47893" lon="6.80767">
        <ele>1737.9</ele>
        <time>2021-08-11T07:00:40Z</time>
      </trkpt>
      <trkpt lat="44.47898" lon="6.80762">
        <ele>1737.7</ele>
        <time>2021-08-11T07:00:44Z</time>
      </trkpt>
      <trkpt lat="44.47903" lon="6.80757">
        <ele>1737.4</ele>
        <time>2021-08-11T07:00:48Z</time>
      </trkpt>
      <trkpt lat="44.47907" lon="6.80752">
        <ele>1736.9</ele>
        <time>2021-08-11T07:00:52Z</time>
      </trkpt>
      <trkpt lat="44.47911" lon="6.80747">
        <ele>1736.4</ele>
        <time>2021-08-11T07:00:56Z</time>
      </trkpt>
      <trkpt lat="44.47914" lon="6.80742">
        <ele>1735.6</ele>
        <time>2021-08-11T07:01:00Z</time>
      </trkpt>
      <trkpt lat="44.47918" lon="6.80737">
        <ele>1735.2</ele>
        <time>2021-08-11T07:01:04Z</time>
      </trkpt>
      <trkpt lat="44.47922" lon="6.80732">
        <ele>1735.2</ele>
        <time>2021-08-11T07:01:08Z</time>
      </trkpt>
      <trkpt lat="44.47927" lon="6.80726">
        <ele>1735.3</ele>
        <time>2021-08-11T07:01:12Z</time>
      </trkpt>
      <trkpt lat="44.47932" lon="6.80719">
        <ele>1735.2</ele>
        <time>2021-08-11T07:01:16Z</time>
      </trkpt>
      <trkpt lat="44.47936" lon="6.8071">
        <ele>1734.3</ele>
        <time>2021-08-11T07:01:20Z</time>
      </trkpt>
      <trkpt lat="44.4794" lon="6.807">
        <ele>1733.1</ele>
        <time>2021-08-11T07:01:24Z</time>
      </trkpt>
      <trkpt lat="44.47945" lon="6.80691">
        <ele>1732.6</ele>
        <time>2021-08-11T07:01:28Z</time>
      </trkpt>
      <trkpt lat="44.47951" lon="6.80683">
        <ele>1732.6</ele>
        <time>2021-08-11T07:01:32Z</time>
      </trkpt>
      <trkpt lat="44.47957" lon="6.80677">
        <ele>1733.1</ele>
        <time>2021-08-11T07:01:36Z</time>
      </trkpt>
      <trkpt lat="44.47965" lon="6.80673">
        <ele>1734.8</ele>
        <time>2021-08-11T07:01:40Z</time>
      </trkpt>
      <trkpt lat="44.47973" lon="6.80671">
        <ele>1737</ele>
        <time>2021-08-11T07:01:44Z</time>
      </trkpt>
      <trkpt lat="44.47981" lon="6.80671">
        <ele>1739.7</ele>
        <time>2021-08-11T07:01:48Z</time>
      </trkpt>
      <trkpt lat="44.47988" lon="6.80669">
        <ele>1741.5</ele>
        <time>2021-08-11T07:01:52Z</time>
      </trkpt>
      <trkpt lat="44.47996" lon="6.80669">
        <ele>1744.2</ele>
        <time>2021-08-11T07:01:56Z</time>
      </trkpt>
      <trkpt lat="44.48004" lon="6.80667">
        <ele>1745.7</ele>
        <time>2021-08-11T07:02:00Z</time>
      </trkpt>
      <trkpt lat="44.4801" lon="6.80664">
        <ele>1745.8</ele>
        <time>2021-08-11T07:02:04Z</time>
      </trkpt>
      <trkpt lat="44.48015" lon="6.80659">
        <ele>1745.4</ele>
        <time>2021-08-11T07:02:08Z</time>
      </trkpt>
      <trkpt lat="44.48021" lon="6.80656">
        <ele>1745.6</ele>
        <time>2021-08-11T07:02:12Z</time>
      </trkpt>
      <trkpt lat="44.48026" lon="6.80652">
        <ele>1745.4</ele>
        <time>2021-08-11T07:02:16Z</time>
      </trkpt>
      <trkpt lat="44.48032" lon="6.80648">
        <ele>1745.5</ele>
        <time>2021-08-11T07:02:20Z</time>
      </trkpt>
      <trkpt lat="44.48036" lon="6.80643">
        <ele>1745</ele>
        <time>2021-08-11T07:02:24Z</time>
      </trkpt>
      <trkpt lat="44.48041" lon="6.80638">
        <ele>1744.7</ele>
        <time>2021-08-11T07:02:28Z</time>
      </trkpt>
      <trkpt lat="44.48047" lon="6.80635">
        <ele>1745</ele>
        <time>2021-08-11T07:02:32Z</time>
      </trkpt>
      <trkpt lat="44.48053" lon="6.80633">
        <ele>1745.6</ele>
        <time>2021-08-11T07:02:36Z</time>
      </trkpt>
      <trkpt lat="44.48059" lon="6.80632">
        <ele>1746.4</ele>
        <time>2021-08-11T07:02:40Z</time>
      </trkpt>
      <trkpt lat="44.48065" lon="6.80631">
        <ele>1747.1</ele>
        <time>2021-08-11T07:02:44Z</time>
      </trkpt>
      <trkpt lat="44.48071" lon="6.80631">
        <ele>1748.1</ele>
        <time>2021-08-11T07:02:48Z</time>
      </trkpt>
      <trkpt lat="44.48077" lon="6.80629">
        <ele>1748.7</ele>
        <time>2021-08-11T07:02:52Z</time>
      </trkpt>
      <trkpt lat="44.48084" lon="6.80628">
        <ele>1749.7</ele>
        <time>2021-08-11T07:02:56Z</time>
      </trkpt>
      <trkpt lat="44.4809" lon="6.80626">
        <ele>1750.6</ele>
        <time>2021-08-11T07:03:00Z</time>
      </trkpt>
      <trkpt lat="44.48096" lon="6.80624">
        <ele>1751.6</ele>
        <time>2021-08-11T07:03:04Z</time>
      </trkpt>
      <trkpt lat="44.48102" lon="6.80622">
        <ele>1752.6</ele>
        <time>2021-08-11T07:03:08Z</time>
      </trkpt>
      <trkpt lat="44.48109" lon="6.8062">
        <ele>1753.8</ele>
        <time>2021-08-11T07:03:12Z</time>
      </trkpt>
      <trkpt lat="44.48115" lon="6.80618">
        <ele>1754.9</ele>
        <time>2021-08-11T07:03:16Z</time>
      </trkpt>
      <trkpt lat="44.48121" lon="6.80616">
        <ele>1756</ele>
        <time>2021-08-11T07:03:20Z</time>
      </trkpt>
      <trkpt lat="44.48127" lon="6.80614">
        <ele>1757.2</ele>
        <time>2021-08-11T07:03:24Z</time>
      </trkpt>
      <trkpt lat="44.48134" lon="6.80612">
        <ele>1758.6</ele>
        <time>2021-08-11T07:03:28Z</time>
      </trkpt>
      <trkpt lat="44.48141" lon="6.8061">
        <ele>1760.1</ele>
        <time>2021-08-11T07:03:32Z</time>
      </trkpt>
      <trkpt lat="44.48147" lon="6.80608">
        <ele>1761.4</ele>
        <time>2021-08-11T07:03:36Z</time>
      </trkpt>
      <trkpt lat="44.48153" lon="6.80605">
        <ele>1762.6</ele>
        <time>2021-08-11T07:03:40Z</time>
      </trkpt>
      <trkpt lat="44.48159" lon="6.80601">
        <ele>1763.9</ele>
        <time>2021-08-11T07:03:44Z</time>
      </trkpt>
      <trkpt lat="44.48165" lon="6.80598">
        <ele>1765.3</ele>
        <time>2021-08-11T07:03:48Z</time>
      </trkpt>
      <trkpt lat="44.48171" lon="6.80592">
        <ele>1765.8</ele>
        <time>2021-08-11T07:03:52Z</time>
      </trkpt>
      <trkpt lat="44.48176" lon="6.80586">
        <ele>1765.9</ele>
        <time>2021-08-11T07:03:56Z</time>
      </trkpt>
      <trkpt lat="44.48181" lon="6.80586">
        <ele>1766.3</ele>
        <time>2021-08-11T07:04:00Z</time>
      </trkpt>
      <trkpt lat="44.48179" lon="6.80595">
        <ele>1766.6</ele>
        <time>2021-08-11T07:04:04Z</time>
      </trkpt>
      <trkpt lat="44.48176" lon="6.80603">
        <ele>1766.7</ele>
        <time>2021-08-11T07:04:08Z</time>
      </trkpt>
      <trkpt lat="44.48173" lon="6.80612">
        <ele>1766.9</ele>
        <time>2021-08-11T07:04:12Z</time>
      </trkpt>
      <trkpt lat="44.48169" lon="6.80619">
        <ele>1766.9</ele>
        <time>2021-08-11T07:04:16Z</time>
      </trkpt>
      <trkpt lat="44.48164" lon="6.80627">
        <ele>1766.5</ele>
        <time>2021-08-11T07:04:20Z</time>
      </trkpt>
      <trkpt lat="44.4816" lon="6.80634">
        <ele>1766.1</ele>
        <time>2021-08-11T07:04:24Z</time>
      </trkpt>
      <trkpt lat="44.48156" lon="6.80641">
        <ele>1765.8</ele>
        <time>2021-08-11T07:04:28Z</time>
      </trkpt>
      <trkpt lat="44.48154" lon="6.80649">
        <ele>1765.9</ele>
        <time>2021-08-11T07:04:32Z</time>
      </trkpt>
      <trkpt lat="44.48153" lon="6.80659">
        <ele>1766.5</ele>
        <time>2021-08-11T07:04:36Z</time>
      </trkpt>
      <trkpt lat="44.48152" lon="6.80669">
        <ele>1767.1</ele>
        <time>2021-08-11T07:04:40Z</time>
      </trkpt>
      <trkpt lat="44.48151" lon="6.80681">
        <ele>1768.2</ele>
        <time>2021-08-11T07:04:44Z</time>
      </trkpt>
      <trkpt lat="44.48148" lon="6.80691">
        <ele>1768.8</ele>
        <time>2021-08-11T07:04:48Z</time>
      </trkpt>
      <trkpt lat="44.48145" lon="6.807">
        <ele>1769.5</ele>
        <time>2021-08-11T07:04:52Z</time>
      </trkpt>
      <trkpt lat="44.48142" lon="6.80709">
        <ele>1770.3</ele>
        <time>2021-08-11T07:04:56Z</time>
      </trkpt>
      <trkpt lat="44.48139" lon="6.80719">
        <ele>1771.3</ele>
        <time>2021-08-11T07:05:00Z</time>
      </trkpt>
      <trkpt lat="44.48137" lon="6.80728">
        <ele>1772.3</ele>
        <time>2021-08-11T07:05:04Z</time>
      </trkpt>
      <trkpt lat="44.48135" lon="6.80736">
        <ele>1773.2</ele>
        <time>2021-08-11T07:05:08Z</time>
      </trkpt>
      <trkpt lat="44.48136" lon="6.80745">
        <ele>1774.4</ele>
        <time>2021-08-11T07:05:12Z</time>
      </trkpt>
      <trkpt lat="44.48137" lon="6.80753">
        <ele>1775.3</ele>
        <time>2021-08-11T07:05:16Z</time>
      </trkpt>
      <trkpt lat="44.48137" lon="6.80763">
        <ele>1776.3</ele>
        <time>2021-08-11T07:05:20Z</time>
      </trkpt>
      <trkpt lat="44.48129" lon="6.80772">
        <ele>1777.2</ele>
        <time>2021-08-11T07:05:24Z</time>
      </trkpt>
      <trkpt lat="44.4812" lon="6.80775">
        <ele>1777.3</ele>
        <time>2021-08-11T07:05:28Z</time>
      </trkpt>
      <trkpt lat="44.48111" lon="6.80779">
        <ele>1777.6</ele>
        <time>2021-08-11T07:05:32Z</time>
      </trkpt>
      <trkpt lat="44.48103" lon="6.80781">
        <ele>1777.6</ele>
        <time>2021-08-11T07:05:36Z</time>
      </trkpt>
      <trkpt lat="44.48099" lon="6.80784">
        <ele>1777.8</ele>
        <time>2021-08-11T07:05:52Z</time>
      </trkpt>
      <trkpt lat="44.48088" lon="6.80772">
        <ele>1776.6</ele>
        <time>2021-08-11T07:07:04Z</time>
      </trkpt>
      <trkpt lat="44.48088" lon="6.8078">
        <ele>1777.2</ele>
        <time>2021-08-11T07:07:08Z</time>
      </trkpt>
      <trkpt lat="44.48081" lon="6.80785">
        <ele>1777.3</ele>
        <time>2021-08-11T07:07:12Z</time>
      </trkpt>
      <trkpt lat="44.48071" lon="6.80788">
        <ele>1776.7</ele>
        <time>2021-08-11T07:07:16Z</time>
      </trkpt>
      <trkpt lat="44.4806" lon="6.8079">
        <ele>1775.9</ele>
        <time>2021-08-11T07:07:20Z</time>
      </trkpt>
      <trkpt lat="44.48048" lon="6.80796">
        <ele>1775.5</ele>
        <time>2021-08-11T07:07:24Z</time>
      </trkpt>
      <trkpt lat="44.48036" lon="6.80803">
        <ele>1775.3</ele>
        <time>2021-08-11T07:07:28Z</time>
      </trkpt>
      <trkpt lat="44.48028" lon="6.80817">
        <ele>1776.4</ele>
        <time>2021-08-11T07:07:32Z</time>
      </trkpt>
      <trkpt lat="44.48022" lon="6.80832">
        <ele>1777.9</ele>
        <time>2021-08-11T07:07:36Z</time>
      </trkpt>
      <trkpt lat="44.48019" lon="6.80846">
        <ele>1778.5</ele>
        <time>2021-08-11T07:07:40Z</time>
      </trkpt>
      <trkpt lat="44.48016" lon="6.80859">
        <ele>1778.9</ele>
        <time>2021-08-11T07:07:44Z</time>
      </trkpt>
      <trkpt lat="44.48014" lon="6.80871">
        <ele>1779.3</ele>
        <time>2021-08-11T07:07:48Z</time>
      </trkpt>
      <trkpt lat="44.48012" lon="6.80885">
        <ele>1779.9</ele>
        <time>2021-08-11T07:07:52Z</time>
      </trkpt>
      <trkpt lat="44.48011" lon="6.80899">
        <ele>1780.5</ele>
        <time>2021-08-11T07:07:56Z</time>
      </trkpt>
      <trkpt lat="44.48011" lon="6.80914">
        <ele>1781.1</ele>
        <time>2021-08-11T07:08:00Z</time>
      </trkpt>
      <trkpt lat="44.48011" lon="6.80929">
        <ele>1780.8</ele>
        <time>2021-08-11T07:08:04Z</time>
      </trkpt>
      <trkpt lat="44.48009" lon="6.80951">
        <ele>1779.8</ele>
        <time>2021-08-11T07:08:08Z</time>
      </trkpt>
      <trkpt lat="44.48002" lon="6.80977">
        <ele>1778.3</ele>
        <time>2021-08-11T07:08:12Z</time>
      </trkpt>
      <trkpt lat="44.47995" lon="6.81004">
        <ele>1776.2</ele>
        <time>2021-08-11T07:08:16Z</time>
      </trkpt>
      <trkpt lat="44.47988" lon="6.81028">
        <ele>1775.3</ele>
        <time>2021-08-11T07:08:20Z</time>
      </trkpt>
      <trkpt lat="44.47984" lon="6.81048">
        <ele>1774.8</ele>
        <time>2021-08-11T07:08:24Z</time>
      </trkpt>
      <trkpt lat="44.47986" lon="6.81064">
        <ele>1775.5</ele>
        <time>2021-08-11T07:08:28Z</time>
      </trkpt>
      <trkpt lat="44.47986" lon="6.81076">
        <ele>1775.7</ele>
        <time>2021-08-11T07:08:32Z</time>
      </trkpt>
      <trkpt lat="44.47985" lon="6.81088">
        <ele>1776.3</ele>
        <time>2021-08-11T07:08:36Z</time>
      </trkpt>
      <trkpt lat="44.47983" lon="6.811">
        <ele>1777.8</ele>
        <time>2021-08-11T07:08:40Z</time>
      </trkpt>
      <trkpt lat="44.4798" lon="6.81111">
        <ele>1778.8</ele>
        <time>2021-08-11T07:08:44Z</time>
      </trkpt>
      <trkpt lat="44.47978" lon="6.81119">
        <ele>1779.6</ele>
        <time>2021-08-11T07:08:48Z</time>
      </trkpt>
      <trkpt lat="44.47975" lon="6.81129">
        <ele>1780.5</ele>
        <time>2021-08-11T07:08:52Z</time>
      </trkpt>
      <trkpt lat="44.47971" lon="6.81137">
        <ele>1780.7</ele>
        <time>2021-08-11T07:08:56Z</time>
      </trkpt>
      <trkpt lat="44.47968" lon="6.81145">
        <ele>1781.2</ele>
        <time>2021-08-11T07:09:00Z</time>
      </trkpt>
      <trkpt lat="44.47962" lon="6.81152">
        <ele>1780.7</ele>
        <time>2021-08-11T07:09:04Z</time>
      </trkpt>
      <trkpt lat="44.47959" lon="6.81162">
        <ele>1781.5</ele>
        <time>2021-08-11T07:09:08Z</time>
      </trkpt>
      <trkpt lat="44.47957" lon="6.8117">
        <ele>1782.5</ele>
        <time>2021-08-11T07:09:12Z</time>
      </trkpt>
      <trkpt lat="44.47955" lon="6.81177">
        <ele>1783.7</ele>
        <time>2021-08-11T07:09:16Z</time>
      </trkpt>
      <trkpt lat="44.47955" lon="6.81184">
        <ele>1785.4</ele>
        <time>2021-08-11T07:09:20Z</time>
      </trkpt>
      <trkpt lat="44.47956" lon="6.81194">
        <ele>1788.1</ele>
        <time>2021-08-11T07:09:24Z</time>
      </trkpt>
      <trkpt lat="44.47957" lon="6.81204">
        <ele>1790.8</ele>
        <time>2021-08-11T07:09:28Z</time>
      </trkpt>
      <trkpt lat="44.47956" lon="6.81213">
        <ele>1792.8</ele>
        <time>2021-08-11T07:09:32Z</time>
      </trkpt>
      <trkpt lat="44.47955" lon="6.81221">
        <ele>1794.5</ele>
        <time>2021-08-11T07:09:36Z</time>
      </trkpt>
      <trkpt lat="44.47952" lon="6.8123">
        <ele>1795.9</ele>
        <time>2021-08-11T07:09:40Z</time>
      </trkpt>
      <trkpt lat="44.47949" lon="6.81237">
        <ele>1796.7</ele>
        <time>2021-08-11T07:09:44Z</time>
      </trkpt>
      <trkpt lat="44.47946" lon="6.81242">
        <ele>1797.1</ele>
        <time>2021-08-11T07:09:48Z</time>
      </trkpt>
      <trkpt lat="44.47941" lon="6.81247">
        <ele>1797</ele>
        <time>2021-08-11T07:09:52Z</time>
      </trkpt>
      <trkpt lat="44.47938" lon="6.81254">
        <ele>1798.3</ele>
        <time>2021-08-11T07:09:56Z</time>
      </trkpt>
      <trkpt lat="44.47934" lon="6.81261">
        <ele>1799.9</ele>
        <time>2021-08-11T07:10:00Z</time>
      </trkpt>
      <trkpt lat="44.47928" lon="6.8127">
        <ele>1801.7</ele>
        <time>2021-08-11T07:10:04Z</time>
      </trkpt>
      <trkpt lat="44.47922" lon="6.81277">
        <ele>1803</ele>
        <time>2021-08-11T07:10:08Z</time>
      </trkpt>
      <trkpt lat="44.47916" lon="6.81283">
        <ele>1804</ele>
        <time>2021-08-11T07:10:12Z</time>
      </trkpt>
      <trkpt lat="44.4791" lon="6.8129">
        <ele>1805.8</ele>
        <time>2021-08-11T07:10:16Z</time>
      </trkpt>
      <trkpt lat="44.47905" lon="6.81297">
        <ele>1807.7</ele>
        <time>2021-08-11T07:10:20Z</time>
      </trkpt>
      <trkpt lat="44.47899" lon="6.81303">
        <ele>1809.2</ele>
        <time>2021-08-11T07:10:24Z</time>
      </trkpt>
      <trkpt lat="44.47893" lon="6.81306">
        <ele>1809.5</ele>
        <time>2021-08-11T07:10:28Z</time>
      </trkpt>
      <trkpt lat="44.47886" lon="6.81307">
        <ele>1808.8</ele>
        <time>2021-08-11T07:10:32Z</time>
      </trkpt>
      <trkpt lat="44.4788" lon="6.81308">
        <ele>1808.3</ele>
        <time>2021-08-11T07:10:36Z</time>
      </trkpt>
      <trkpt lat="44.47873" lon="6.81309">
        <ele>1807.6</ele>
        <time>2021-08-11T07:10:40Z</time>
      </trkpt>
      <trkpt lat="44.47866" lon="6.8131">
        <ele>1807</ele>
        <time>2021-08-11T07:10:44Z</time>
      </trkpt>
      <trkpt lat="44.47858" lon="6.81311">
        <ele>1806.1</ele>
        <time>2021-08-11T07:10:48Z</time>
      </trkpt>
      <trkpt lat="44.4785" lon="6.81313">
        <ele>1805.8</ele>
        <time>2021-08-11T07:10:52Z</time>
      </trkpt>
      <trkpt lat="44.47842" lon="6.81314">
        <ele>1805</ele>
        <time>2021-08-11T07:10:56Z</time>
      </trkpt>
      <trkpt lat="44.47834" lon="6.81314">
        <ele>1803.7</ele>
        <time>2021-08-11T07:11:00Z</time>
      </trkpt>
      <trkpt lat="44.47826" lon="6.81314">
        <ele>1803.2</ele>
        <time>2021-08-11T07:11:04Z</time>
      </trkpt>
      <trkpt lat="44.47819" lon="6.81314">
        <ele>1802.7</ele>
        <time>2021-08-11T07:11:08Z</time>
      </trkpt>
      <trkpt lat="44.47811" lon="6.81316">
        <ele>1803.1</ele>
        <time>2021-08-11T07:11:12Z</time>
      </trkpt>
      <trkpt lat="44.47804" lon="6.81318">
        <ele>1803.5</ele>
        <time>2021-08-11T07:11:16Z</time>
      </trkpt>
      <trkpt lat="44.47796" lon="6.8132">
        <ele>1803.9</ele>
        <time>2021-08-11T07:11:20Z</time>
      </trkpt>
      <trkpt lat="44.47789" lon="6.81324">
        <ele>1805.2</ele>
        <time>2021-08-11T07:11:24Z</time>
      </trkpt>
      <trkpt lat="44.47782" lon="6.81328">
        <ele>1806.5</ele>
        <time>2021-08-11T07:11:28Z</time>
      </trkpt>
      <trkpt lat="44.47774" lon="6.81332">
        <ele>1807.8</ele>
        <time>2021-08-11T07:11:32Z</time>
      </trkpt>
      <trkpt lat="44.47767" lon="6.81335">
        <ele>1808.5</ele>
        <time>2021-08-11T07:11:36Z</time>
      </trkpt>
      <trkpt lat="44.4776" lon="6.81337">
        <ele>1808.6</ele>
        <time>2021-08-11T07:11:40Z</time>
      </trkpt>
      <trkpt lat="44.47753" lon="6.81338">
        <ele>1808.4</ele>
        <time>2021-08-11T07:11:44Z</time>
      </trkpt>
      <trkpt lat="44.47747" lon="6.81338">
        <ele>1807.7</ele>
        <time>2021-08-11T07:11:48Z</time>
      </trkpt>
      <trkpt lat="44.47742" lon="6.81339">
        <ele>1807.2</ele>
        <time>2021-08-11T07:11:52Z</time>
      </trkpt>
      <trkpt lat="44.47736" lon="6.81342">
        <ele>1806.9</ele>
        <time>2021-08-11T07:11:56Z</time>
      </trkpt>
      <trkpt lat="44.47731" lon="6.81346">
        <ele>1807.1</ele>
        <time>2021-08-11T07:12:00Z</time>
      </trkpt>
      <trkpt lat="44.47725" lon="6.8135">
        <ele>1807.1</ele>
        <time>2021-08-11T07:12:04Z</time>
      </trkpt>
      <trkpt lat="44.47721" lon="6.81355">
        <ele>1807.6</ele>
        <time>2021-08-11T07:12:08Z</time>
      </trkpt>
      <trkpt lat="44.47715" lon="6.81359">
        <ele>1807.5</ele>
        <time>2021-08-11T07:12:12Z</time>
      </trkpt>
      <trkpt lat="44.47711" lon="6.81365">
        <ele>1808.2</ele>
        <time>2021-08-11T07:12:16Z</time>
      </trkpt>
      <trkpt lat="44.47707" lon="6.8137">
        <ele>1808.6</ele>
        <time>2021-08-11T07:12:20Z</time>
      </trkpt>
      <trkpt lat="44.47704" lon="6.81377">
        <ele>1809.7</ele>
        <time>2021-08-11T07:12:24Z</time>
      </trkpt>
      <trkpt lat="44.477" lon="6.81383">
        <ele>1810.3</ele>
        <time>2021-08-11T07:12:28Z</time>
      </trkpt>
      <trkpt lat="44.47696" lon="6.81389">
        <ele>1810.9</ele>
        <time>2021-08-11T07:12:32Z</time>
      </trkpt>
      <trkpt lat="44.47692" lon="6.81394">
        <ele>1811.2</ele>
        <time>2021-08-11T07:12:36Z</time>
      </trkpt>
      <trkpt lat="44.47688" lon="6.81399">
        <ele>1811.5</ele>
        <time>2021-08-11T07:12:40Z</time>
      </trkpt>
      <trkpt lat="44.47685" lon="6.81406">
        <ele>1812.5</ele>
        <time>2021-08-11T07:12:44Z</time>
      </trkpt>
      <trkpt lat="44.47682" lon="6.81413">
        <ele>1813.3</ele>
        <time>2021-08-11T07:12:48Z</time>
      </trkpt>
      <trkpt lat="44.4768" lon="6.81421">
        <ele>1814.6</ele>
        <time>2021-08-11T07:12:52Z</time>
      </trkpt>
      <trkpt lat="44.47678" lon="6.81428">
        <ele>1815.6</ele>
        <time>2021-08-11T07:12:56Z</time>
      </trkpt>
      <trkpt lat="44.47676" lon="6.81435">
        <ele>1816.7</ele>
        <time>2021-08-11T07:13:00Z</time>
      </trkpt>
      <trkpt lat="44.47674" lon="6.81443">
        <ele>1817.9</ele>
        <time>2021-08-11T07:13:04Z</time>
      </trkpt>
      <trkpt lat="44.47672" lon="6.8145">
        <ele>1818.9</ele>
        <time>2021-08-11T07:13:08Z</time>
      </trkpt>
      <trkpt lat="44.47669" lon="6.81459">
        <ele>1820.1</ele>
        <time>2021-08-11T07:13:12Z</time>
      </trkpt>
      <trkpt lat="44.47667" lon="6.81468">
        <ele>1821.5</ele>
        <time>2021-08-11T07:13:16Z</time>
      </trkpt>
      <trkpt lat="44.47664" lon="6.81475">
        <ele>1821.7</ele>
        <time>2021-08-11T07:13:20Z</time>
      </trkpt>
      <trkpt lat="44.4766" lon="6.81481">
        <ele>1821.2</ele>
        <time>2021-08-11T07:13:24Z</time>
      </trkpt>
      <trkpt lat="44.47655" lon="6.81487">
        <ele>1820.1</ele>
        <time>2021-08-11T07:13:28Z</time>
      </trkpt>
      <trkpt lat="44.47651" lon="6.81493">
        <ele>1819.5</ele>
        <time>2021-08-11T07:13:32Z</time>
      </trkpt>
      <trkpt lat="44.47648" lon="6.815">
        <ele>1819.5</ele>
        <time>2021-08-11T07:13:36Z</time>
      </trkpt>
      <trkpt lat="44.47646" lon="6.81507">
        <ele>1820.3</ele>
        <time>2021-08-11T07:13:40Z</time>
      </trkpt>
      <trkpt lat="44.47644" lon="6.81516">
        <ele>1821.6</ele>
        <time>2021-08-11T07:13:44Z</time>
      </trkpt>
      <trkpt lat="44.47643" lon="6.81524">
        <ele>1823.1</ele>
        <time>2021-08-11T07:13:48Z</time>
      </trkpt>
      <trkpt lat="44.47641" lon="6.81531">
        <ele>1823.9</ele>
        <time>2021-08-11T07:13:52Z</time>
      </trkpt>
      <trkpt lat="44.4764" lon="6.81538">
        <ele>1825.1</ele>
        <time>2021-08-11T07:13:56Z</time>
      </trkpt>
      <trkpt lat="44.47638" lon="6.81546">
        <ele>1826.1</ele>
        <time>2021-08-11T07:14:00Z</time>
      </trkpt>
      <trkpt lat="44.47637" lon="6.81553">
        <ele>1827.3</ele>
        <time>2021-08-11T07:14:04Z</time>
      </trkpt>
      <trkpt lat="44.47635" lon="6.81561">
        <ele>1828.3</ele>
        <time>2021-08-11T07:14:08Z</time>
      </trkpt>
      <trkpt lat="44.47633" lon="6.81567">
        <ele>1828.7</ele>
        <time>2021-08-11T07:14:12Z</time>
      </trkpt>
      <trkpt lat="44.47631" lon="6.81574">
        <ele>1829.4</ele>
        <time>2021-08-11T07:14:16Z</time>
      </trkpt>
      <trkpt lat="44.47628" lon="6.81581">
        <ele>1829.5</ele>
        <time>2021-08-11T07:14:20Z</time>
      </trkpt>
      <trkpt lat="44.47626" lon="6.81588">
        <ele>1830</ele>
        <time>2021-08-11T07:14:24Z</time>
      </trkpt>
      <trkpt lat="44.47624" lon="6.81595">
        <ele>1830.6</ele>
        <time>2021-08-11T07:14:28Z</time>
      </trkpt>
      <trkpt lat="44.47622" lon="6.81602">
        <ele>1831.1</ele>
        <time>2021-08-11T07:14:32Z</time>
      </trkpt>
      <trkpt lat="44.47619" lon="6.81608">
        <ele>1830.9</ele>
        <time>2021-08-11T07:14:36Z</time>
      </trkpt>
      <trkpt lat="44.47618" lon="6.81614">
        <ele>1831.8</ele>
        <time>2021-08-11T07:14:40Z</time>
      </trkpt>
      <trkpt lat="44.47616" lon="6.81621">
        <ele>1832.4</ele>
        <time>2021-08-11T07:14:44Z</time>
      </trkpt>
      <trkpt lat="44.47615" lon="6.81629">
        <ele>1833.7</ele>
        <time>2021-08-11T07:14:48Z</time>
      </trkpt>
      <trkpt lat="44.47614" lon="6.81636">
        <ele>1834.8</ele>
        <time>2021-08-11T07:14:52Z</time>
      </trkpt>
      <trkpt lat="44.47612" lon="6.81642">
        <ele>1835.1</ele>
        <time>2021-08-11T07:14:56Z</time>
      </trkpt>
      <trkpt lat="44.4761" lon="6.81648">
        <ele>1835.5</ele>
        <time>2021-08-11T07:15:00Z</time>
      </trkpt>
      <trkpt lat="44.47608" lon="6.81655">
        <ele>1836.2</ele>
        <time>2021-08-11T07:15:04Z</time>
      </trkpt>
      <trkpt lat="44.47607" lon="6.81662">
        <ele>1837.3</ele>
        <time>2021-08-11T07:15:08Z</time>
      </trkpt>
      <trkpt lat="44.47608" lon="6.81669">
        <ele>1838.9</ele>
        <time>2021-08-11T07:15:12Z</time>
      </trkpt>
      <trkpt lat="44.47611" lon="6.81677">
        <ele>1840.5</ele>
        <time>2021-08-11T07:15:16Z</time>
      </trkpt>
      <trkpt lat="44.47613" lon="6.81683">
        <ele>1841.6</ele>
        <time>2021-08-11T07:15:20Z</time>
      </trkpt>
      <trkpt lat="44.47615" lon="6.81689">
        <ele>1842.7</ele>
        <time>2021-08-11T07:15:24Z</time>
      </trkpt>
      <trkpt lat="44.47617" lon="6.81696">
        <ele>1843.9</ele>
        <time>2021-08-11T07:15:28Z</time>
      </trkpt>
      <trkpt lat="44.47616" lon="6.81703">
        <ele>1843.5</ele>
        <time>2021-08-11T07:15:32Z</time>
      </trkpt>
      <trkpt lat="44.47617" lon="6.81711">
        <ele>1844.2</ele>
        <time>2021-08-11T07:15:36Z</time>
      </trkpt>
      <trkpt lat="44.47618" lon="6.81719">
        <ele>1844.9</ele>
        <time>2021-08-11T07:15:40Z</time>
      </trkpt>
      <trkpt lat="44.4762" lon="6.81726">
        <ele>1846.2</ele>
        <time>2021-08-11T07:15:44Z</time>
      </trkpt>
      <trkpt lat="44.47622" lon="6.81733">
        <ele>1847.4</ele>
        <time>2021-08-11T07:15:48Z</time>
      </trkpt>
      <trkpt lat="44.47624" lon="6.8174">
        <ele>1848.7</ele>
        <time>2021-08-11T07:15:52Z</time>
      </trkpt>
      <trkpt lat="44.47626" lon="6.8175">
        <ele>1850</ele>
        <time>2021-08-11T07:15:56Z</time>
      </trkpt>
      <trkpt lat="44.47627" lon="6.8176">
        <ele>1850.6</ele>
        <time>2021-08-11T07:16:00Z</time>
      </trkpt>
      <trkpt lat="44.47626" lon="6.81769">
        <ele>1850.2</ele>
        <time>2021-08-11T07:16:04Z</time>
      </trkpt>
      <trkpt lat="44.47626" lon="6.81779">
        <ele>1850.2</ele>
        <time>2021-08-11T07:16:08Z</time>
      </trkpt>
      <trkpt lat="44.47625" lon="6.81788">
        <ele>1849.7</ele>
        <time>2021-08-11T07:16:12Z</time>
      </trkpt>
      <trkpt lat="44.47624" lon="6.81797">
        <ele>1849.2</ele>
        <time>2021-08-11T07:16:16Z</time>
      </trkpt>
      <trkpt lat="44.47624" lon="6.81806">
        <ele>1849.3</ele>
        <time>2021-08-11T07:16:20Z</time>
      </trkpt>
      <trkpt lat="44.47627" lon="6.81816">
        <ele>1851</ele>
        <time>2021-08-11T07:16:24Z</time>
      </trkpt>
      <trkpt lat="44.47627" lon="6.81823">
        <ele>1851.1</ele>
        <time>2021-08-11T07:16:28Z</time>
      </trkpt>
      <trkpt lat="44.47628" lon="6.81831">
        <ele>1851.7</ele>
        <time>2021-08-11T07:16:32Z</time>
      </trkpt>
      <trkpt lat="44.47628" lon="6.8184">
        <ele>1850.8</ele>
        <time>2021-08-11T07:16:36Z</time>
      </trkpt>
      <trkpt lat="44.47629" lon="6.8185">
        <ele>1850</ele>
        <time>2021-08-11T07:16:40Z</time>
      </trkpt>
      <trkpt lat="44.47631" lon="6.81861">
        <ele>1849.6</ele>
        <time>2021-08-11T07:16:44Z</time>
      </trkpt>
      <trkpt lat="44.47633" lon="6.81871">
        <ele>1849.3</ele>
        <time>2021-08-11T07:16:48Z</time>
      </trkpt>
      <trkpt lat="44.47637" lon="6.81882">
        <ele>1849.9</ele>
        <time>2021-08-11T07:16:52Z</time>
      </trkpt>
      <trkpt lat="44.47642" lon="6.8189">
        <ele>1851.6</ele>
        <time>2021-08-11T07:16:56Z</time>
      </trkpt>
      <trkpt lat="44.47647" lon="6.81898">
        <ele>1853.1</ele>
        <time>2021-08-11T07:17:00Z</time>
      </trkpt>
      <trkpt lat="44.47653" lon="6.81906">
        <ele>1855.2</ele>
        <time>2021-08-11T07:17:04Z</time>
      </trkpt>
      <trkpt lat="44.4766" lon="6.8191">
        <ele>1858.4</ele>
        <time>2021-08-11T07:17:08Z</time>
      </trkpt>
      <trkpt lat="44.4767" lon="6.81911">
        <ele>1863.2</ele>
        <time>2021-08-11T07:17:12Z</time>
      </trkpt>
      <trkpt lat="44.47678" lon="6.81911">
        <ele>1866.5</ele>
        <time>2021-08-11T07:17:16Z</time>
      </trkpt>
      <trkpt lat="44.47686" lon="6.81915">
        <ele>1869.1</ele>
        <time>2021-08-11T07:17:20Z</time>
      </trkpt>
      <trkpt lat="44.47695" lon="6.81918">
        <ele>1872.3</ele>
        <time>2021-08-11T07:17:24Z</time>
      </trkpt>
      <trkpt lat="44.47703" lon="6.81921">
        <ele>1874.9</ele>
        <time>2021-08-11T07:17:28Z</time>
      </trkpt>
      <trkpt lat="44.4771" lon="6.81925">
        <ele>1876.9</ele>
        <time>2021-08-11T07:17:32Z</time>
      </trkpt>
      <trkpt lat="44.47716" lon="6.81933">
        <ele>1877.8</ele>
        <time>2021-08-11T07:17:36Z</time>
      </trkpt>
      <trkpt lat="44.4772" lon="6.81942">
        <ele>1877.7</ele>
        <time>2021-08-11T07:17:40Z</time>
      </trkpt>
      <trkpt lat="44.47723" lon="6.81951">
        <ele>1877.1</ele>
        <time>2021-08-11T07:17:44Z</time>
      </trkpt>
      <trkpt lat="44.47725" lon="6.8196">
        <ele>1876.2</ele>
        <time>2021-08-11T07:17:48Z</time>
      </trkpt>
      <trkpt lat="44.47725" lon="6.81968">
        <ele>1874.6</ele>
        <time>2021-08-11T07:18:12Z</time>
      </trkpt>
      <trkpt lat="44.47726" lon="6.81976">
        <ele>1873.5</ele>
        <time>2021-08-11T07:18:16Z</time>
      </trkpt>
      <trkpt lat="44.47725" lon="6.8199">
        <ele>1870.3</ele>
        <time>2021-08-11T07:18:20Z</time>
      </trkpt>
      <trkpt lat="44.47725" lon="6.82002">
        <ele>1868</ele>
        <time>2021-08-11T07:18:24Z</time>
      </trkpt>
      <trkpt lat="44.47726" lon="6.82014">
        <ele>1866.4</ele>
        <time>2021-08-11T07:18:28Z</time>
      </trkpt>
      <trkpt lat="44.47727" lon="6.82026">
        <ele>1864.8</ele>
        <time>2021-08-11T07:18:32Z</time>
      </trkpt>
      <trkpt lat="44.47726" lon="6.82034">
        <ele>1863</ele>
        <time>2021-08-11T07:18:36Z</time>
      </trkpt>
      <trkpt lat="44.47725" lon="6.82044">
        <ele>1860.8</ele>
        <time>2021-08-11T07:18:40Z</time>
      </trkpt>
      <trkpt lat="44.47728" lon="6.82055">
        <ele>1860.4</ele>
        <time>2021-08-11T07:18:44Z</time>
      </trkpt>
      <trkpt lat="44.47733" lon="6.82062">
        <ele>1861.8</ele>
        <time>2021-08-11T07:18:48Z</time>
      </trkpt>
      <trkpt lat="44.47739" lon="6.82068">
        <ele>1863.8</ele>
        <time>2021-08-11T07:18:52Z</time>
      </trkpt>
      <trkpt lat="44.47746" lon="6.82074">
        <ele>1866.4</ele>
        <time>2021-08-11T07:18:56Z</time>
      </trkpt>
      <trkpt lat="44.47755" lon="6.82077">
        <ele>1869.9</ele>
        <time>2021-08-11T07:19:00Z</time>
      </trkpt>
      <trkpt lat="44.47765" lon="6.82078">
        <ele>1873.6</ele>
        <time>2021-08-11T07:19:04Z</time>
      </trkpt>
      <trkpt lat="44.47777" lon="6.82077">
        <ele>1878.4</ele>
        <time>2021-08-11T07:19:08Z</time>
      </trkpt>
      <trkpt lat="44.47787" lon="6.82071">
        <ele>1883.2</ele>
        <time>2021-08-11T07:19:12Z</time>
      </trkpt>
      <trkpt lat="44.47795" lon="6.82064">
        <ele>1887.4</ele>
        <time>2021-08-11T07:19:16Z</time>
      </trkpt>
      <trkpt lat="44.47804" lon="6.82064">
        <ele>1890.9</ele>
        <time>2021-08-11T07:19:20Z</time>
      </trkpt>
      <trkpt lat="44.47811" lon="6.82075">
        <ele>1891.8</ele>
        <time>2021-08-11T07:19:24Z</time>
      </trkpt>
      <trkpt lat="44.47813" lon="6.82088">
        <ele>1891.3</ele>
        <time>2021-08-11T07:19:28Z</time>
      </trkpt>
      <trkpt lat="44.47811" lon="6.82101">
        <ele>1890.6</ele>
        <time>2021-08-11T07:19:32Z</time>
      </trkpt>
      <trkpt lat="44.4781" lon="6.82114">
        <ele>1890.3</ele>
        <time>2021-08-11T07:19:36Z</time>
      </trkpt>
      <trkpt lat="44.47807" lon="6.82128">
        <ele>1888.9</ele>
        <time>2021-08-11T07:19:40Z</time>
      </trkpt>
      <trkpt lat="44.47805" lon="6.82142">
        <ele>1887.8</ele>
        <time>2021-08-11T07:19:44Z</time>
      </trkpt>
      <trkpt lat="44.47801" lon="6.82158">
        <ele>1885.4</ele>
        <time>2021-08-11T07:19:48Z</time>
      </trkpt>
      <trkpt lat="44.47795" lon="6.82172">
        <ele>1881.8</ele>
        <time>2021-08-11T07:19:52Z</time>
      </trkpt>
      <trkpt lat="44.47789" lon="6.82185">
        <ele>1878.7</ele>
        <time>2021-08-11T07:19:56Z</time>
      </trkpt>
      <trkpt lat="44.47783" lon="6.82197">
        <ele>1875.4</ele>
        <time>2021-08-11T07:20:00Z</time>
      </trkpt>
      <trkpt lat="44.47782" lon="6.82211">
        <ele>1875.3</ele>
        <time>2021-08-11T07:20:04Z</time>
      </trkpt>
      <trkpt lat="44.47783" lon="6.82225">
        <ele>1876.6</ele>
        <time>2021-08-11T07:20:08Z</time>
      </trkpt>
      <trkpt lat="44.47786" lon="6.82242">
        <ele>1879.3</ele>
        <time>2021-08-11T07:20:12Z</time>
      </trkpt>
      <trkpt lat="44.47791" lon="6.82264">
        <ele>1883.1</ele>
        <time>2021-08-11T07:20:16Z</time>
      </trkpt>
      <trkpt lat="44.47794" lon="6.82285">
        <ele>1885.3</ele>
        <time>2021-08-11T07:20:20Z</time>
      </trkpt>
      <trkpt lat="44.47795" lon="6.82301">
        <ele>1886.1</ele>
        <time>2021-08-11T07:20:24Z</time>
      </trkpt>
      <trkpt lat="44.47797" lon="6.82316">
        <ele>1887.5</ele>
        <time>2021-08-11T07:20:28Z</time>
      </trkpt>
      <trkpt lat="44.47798" lon="6.82331">
        <ele>1888.2</ele>
        <time>2021-08-11T07:20:32Z</time>
      </trkpt>
      <trkpt lat="44.47798" lon="6.82347">
        <ele>1888.4</ele>
        <time>2021-08-11T07:20:36Z</time>
      </trkpt>
      <trkpt lat="44.47799" lon="6.82361">
        <ele>1889.2</ele>
        <time>2021-08-11T07:20:40Z</time>
      </trkpt>
      <trkpt lat="44.47801" lon="6.82375">
        <ele>1890.7</ele>
        <time>2021-08-11T07:20:44Z</time>
      </trkpt>
      <trkpt lat="44.47804" lon="6.82389">
        <ele>1892.8</ele>
        <time>2021-08-11T07:20:48Z</time>
      </trkpt>
      <trkpt lat="44.47806" lon="6.82403">
        <ele>1894.2</ele>
        <time>2021-08-11T07:20:52Z</time>
      </trkpt>
      <trkpt lat="44.47808" lon="6.82416">
        <ele>1895.6</ele>
        <time>2021-08-11T07:20:56Z</time>
      </trkpt>
      <trkpt lat="44.47809" lon="6.8243">
        <ele>1895.9</ele>
        <time>2021-08-11T07:21:00Z</time>
      </trkpt>
      <trkpt lat="44.4781" lon="6.82444">
        <ele>1896.3</ele>
        <time>2021-08-11T07:21:04Z</time>
      </trkpt>
      <trkpt lat="44.4781" lon="6.82459">
        <ele>1895.9</ele>
        <time>2021-08-11T07:21:08Z</time>
      </trkpt>
      <trkpt lat="44.4781" lon="6.82472">
        <ele>1895.6</ele>
        <time>2021-08-11T07:21:12Z</time>
      </trkpt>
      <trkpt lat="44.47811" lon="6.82484">
        <ele>1895.9</ele>
        <time>2021-08-11T07:21:16Z</time>
      </trkpt>
      <trkpt lat="44.47811" lon="6.82494">
        <ele>1895.6</ele>
        <time>2021-08-11T07:21:20Z</time>
      </trkpt>
      <trkpt lat="44.47812" lon="6.82504">
        <ele>1896.1</ele>
        <time>2021-08-11T07:21:24Z</time>
      </trkpt>
      <trkpt lat="44.47812" lon="6.82512">
        <ele>1896.4</ele>
        <time>2021-08-11T07:21:28Z</time>
      </trkpt>
      <trkpt lat="44.47814" lon="6.82523">
        <ele>1897.6</ele>
        <time>2021-08-11T07:21:32Z</time>
      </trkpt>
      <trkpt lat="44.47816" lon="6.82533">
        <ele>1898.8</ele>
        <time>2021-08-11T07:21:36Z</time>
      </trkpt>
      <trkpt lat="44.47818" lon="6.82541">
        <ele>1899.9</ele>
        <time>2021-08-11T07:21:40Z</time>
      </trkpt>
      <trkpt lat="44.47817" lon="6.82551">
        <ele>1899.6</ele>
        <time>2021-08-11T07:21:44Z</time>
      </trkpt>
      <trkpt lat="44.47811" lon="6.82558">
        <ele>1897.4</ele>
        <time>2021-08-11T07:21:48Z</time>
      </trkpt>
      <trkpt lat="44.47807" lon="6.82565">
        <ele>1896.1</ele>
        <time>2021-08-11T07:21:52Z</time>
      </trkpt>
      <trkpt lat="44.47804" lon="6.82574">
        <ele>1895.4</ele>
        <time>2021-08-11T07:21:56Z</time>
      </trkpt>
      <trkpt lat="44.47803" lon="6.82583">
        <ele>1895.4</ele>
        <time>2021-08-11T07:22:00Z</time>
      </trkpt>
      <trkpt lat="44.47802" lon="6.8259">
        <ele>1896.2</ele>
        <time>2021-08-11T07:22:04Z</time>
      </trkpt>
      <trkpt lat="44.47802" lon="6.826">
        <ele>1897.8</ele>
        <time>2021-08-11T07:22:08Z</time>
      </trkpt>
      <trkpt lat="44.47802" lon="6.8261">
        <ele>1899.5</ele>
        <time>2021-08-11T07:22:12Z</time>
      </trkpt>
      <trkpt lat="44.47802" lon="6.82618">
        <ele>1900.8</ele>
        <time>2021-08-11T07:22:16Z</time>
      </trkpt>
      <trkpt lat="44.47801" lon="6.82625">
        <ele>1901.7</ele>
        <time>2021-08-11T07:22:20Z</time>
      </trkpt>
      <trkpt lat="44.47803" lon="6.82634">
        <ele>1903.6</ele>
        <time>2021-08-11T07:22:24Z</time>
      </trkpt>
      <trkpt lat="44.47805" lon="6.82643">
        <ele>1905.3</ele>
        <time>2021-08-11T07:22:28Z</time>
      </trkpt>
      <trkpt lat="44.47807" lon="6.82651">
        <ele>1906.8</ele>
        <time>2021-08-11T07:22:32Z</time>
      </trkpt>
      <trkpt lat="44.47808" lon="6.8266">
        <ele>1908.2</ele>
        <time>2021-08-11T07:22:36Z</time>
      </trkpt>
      <trkpt lat="44.47811" lon="6.82669">
        <ele>1909.9</ele>
        <time>2021-08-11T07:22:40Z</time>
      </trkpt>
      <trkpt lat="44.47811" lon="6.82678">
        <ele>1911.7</ele>
        <time>2021-08-11T07:22:44Z</time>
      </trkpt>
      <trkpt lat="44.47807" lon="6.82686">
        <ele>1913.3</ele>
        <time>2021-08-11T07:22:48Z</time>
      </trkpt>
      <trkpt lat="44.478" lon="6.82691">
        <ele>1914.3</ele>
        <time>2021-08-11T07:22:52Z</time>
      </trkpt>
      <trkpt lat="44.47794" lon="6.82691">
        <ele>1914.2</ele>
        <time>2021-08-11T07:22:56Z</time>
      </trkpt>
      <trkpt lat="44.47787" lon="6.82689">
        <ele>1913.5</ele>
        <time>2021-08-11T07:23:00Z</time>
      </trkpt>
      <trkpt lat="44.47781" lon="6.82688">
        <ele>1913.1</ele>
        <time>2021-08-11T07:23:04Z</time>
      </trkpt>
      <trkpt lat="44.47775" lon="6.82686">
        <ele>1912.4</ele>
        <time>2021-08-11T07:23:08Z</time>
      </trkpt>
      <trkpt lat="44.47769" lon="6.82683">
        <ele>1911.3</ele>
        <time>2021-08-11T07:23:12Z</time>
      </trkpt>
      <trkpt lat="44.47763" lon="6.82681">
        <ele>1910.5</ele>
        <time>2021-08-11T07:23:16Z</time>
      </trkpt>
      <trkpt lat="44.47756" lon="6.82677">
        <ele>1908.9</ele>
        <time>2021-08-11T07:23:20Z</time>
      </trkpt>
      <trkpt lat="44.47751" lon="6.82676">
        <ele>1908.3</ele>
        <time>2021-08-11T07:23:24Z</time>
      </trkpt>
      <trkpt lat="44.47745" lon="6.82674">
        <ele>1908.6</ele>
        <time>2021-08-11T07:23:28Z</time>
      </trkpt>
      <trkpt lat="44.4774" lon="6.82672">
        <ele>1909</ele>
        <time>2021-08-11T07:23:32Z</time>
      </trkpt>
      <trkpt lat="44.47734" lon="6.82672">
        <ele>1910.2</ele>
        <time>2021-08-11T07:23:36Z</time>
      </trkpt>
      <trkpt lat="44.47728" lon="6.82671">
        <ele>1911.2</ele>
        <time>2021-08-11T07:23:40Z</time>
      </trkpt>
      <trkpt lat="44.47723" lon="6.8267">
        <ele>1911.9</ele>
        <time>2021-08-11T07:23:44Z</time>
      </trkpt>
      <trkpt lat="44.47718" lon="6.82668">
        <ele>1912.3</ele>
        <time>2021-08-11T07:23:48Z</time>
      </trkpt>
      <trkpt lat="44.47712" lon="6.82667">
        <ele>1913.3</ele>
        <time>2021-08-11T07:23:52Z</time>
      </trkpt>
      <trkpt lat="44.47707" lon="6.82667">
        <ele>1914.4</ele>
        <time>2021-08-11T07:23:56Z</time>
      </trkpt>
      <trkpt lat="44.47702" lon="6.82667">
        <ele>1915.5</ele>
        <time>2021-08-11T07:24:00Z</time>
      </trkpt>
      <trkpt lat="44.47696" lon="6.82666">
        <ele>1916.5</ele>
        <time>2021-08-11T07:24:04Z</time>
      </trkpt>
      <trkpt lat="44.4769" lon="6.82666">
        <ele>1917.8</ele>
        <time>2021-08-11T07:24:08Z</time>
      </trkpt>
      <trkpt lat="44.47684" lon="6.82665">
        <ele>1918.7</ele>
        <time>2021-08-11T07:24:12Z</time>
      </trkpt>
      <trkpt lat="44.47679" lon="6.82662">
        <ele>1918.9</ele>
        <time>2021-08-11T07:24:16Z</time>
      </trkpt>
      <trkpt lat="44.47673" lon="6.82658">
        <ele>1919</ele>
        <time>2021-08-11T07:24:20Z</time>
      </trkpt>
      <trkpt lat="44.47668" lon="6.82652">
        <ele>1918.3</ele>
        <time>2021-08-11T07:24:24Z</time>
      </trkpt>
      <trkpt lat="44.47664" lon="6.82644">
        <ele>1916.4</ele>
        <time>2021-08-11T07:24:28Z</time>
      </trkpt>
      <trkpt lat="44.4766" lon="6.82636">
        <ele>1914.2</ele>
        <time>2021-08-11T07:24:32Z</time>
      </trkpt>
      <trkpt lat="44.47656" lon="6.82629">
        <ele>1912.4</ele>
        <time>2021-08-11T07:24:36Z</time>
      </trkpt>
      <trkpt lat="44.47652" lon="6.82624">
        <ele>1911.2</ele>
        <time>2021-08-11T07:24:40Z</time>
      </trkpt>
      <trkpt lat="44.47646" lon="6.82619">
        <ele>1910.1</ele>
        <time>2021-08-11T07:24:44Z</time>
      </trkpt>
      <trkpt lat="44.47643" lon="6.82623">
        <ele>1911.5</ele>
        <time>2021-08-11T07:24:48Z</time>
      </trkpt>
      <trkpt lat="44.47646" lon="6.82628">
        <ele>1912.8</ele>
        <time>2021-08-11T07:24:52Z</time>
      </trkpt>
      <trkpt lat="44.47649" lon="6.82633">
        <ele>1914</ele>
        <time>2021-08-11T07:24:56Z</time>
      </trkpt>
      <trkpt lat="44.47651" lon="6.82642">
        <ele>1916.6</ele>
        <time>2021-08-11T07:25:00Z</time>
      </trkpt>
      <trkpt lat="44.47653" lon="6.82648">
        <ele>1918.3</ele>
        <time>2021-08-11T07:25:04Z</time>
      </trkpt>
      <trkpt lat="44.47655" lon="6.82653">
        <ele>1919.6</ele>
        <time>2021-08-11T07:25:08Z</time>
      </trkpt>
      <trkpt lat="44.47657" lon="6.82659">
        <ele>1921.3</ele>
        <time>2021-08-11T07:25:12Z</time>
      </trkpt>
      <trkpt lat="44.47659" lon="6.82664">
        <ele>1922.7</ele>
        <time>2021-08-11T07:25:16Z</time>
      </trkpt>
      <trkpt lat="44.47662" lon="6.8267">
        <ele>1924.2</ele>
        <time>2021-08-11T07:25:20Z</time>
      </trkpt>
      <trkpt lat="44.47664" lon="6.82673">
        <ele>1924.9</ele>
        <time>2021-08-11T07:25:24Z</time>
      </trkpt>
      <trkpt lat="44.47667" lon="6.82679">
        <ele>1926.3</ele>
        <time>2021-08-11T07:25:28Z</time>
      </trkpt>
      <trkpt lat="44.47669" lon="6.82684">
        <ele>1927.3</ele>
        <time>2021-08-11T07:25:32Z</time>
      </trkpt>
      <trkpt lat="44.47671" lon="6.82689">
        <ele>1928.3</ele>
        <time>2021-08-11T07:25:36Z</time>
      </trkpt>
      <trkpt lat="44.47673" lon="6.82694">
        <ele>1929.3</ele>
        <time>2021-08-11T07:25:40Z</time>
      </trkpt>
      <trkpt lat="44.47676" lon="6.82698">
        <ele>1929.9</ele>
        <time>2021-08-11T07:25:44Z</time>
      </trkpt>
      <trkpt lat="44.4768" lon="6.82701">
        <ele>1930</ele>
        <time>2021-08-11T07:25:48Z</time>
      </trkpt>
      <trkpt lat="44.47685" lon="6.82701">
        <ele>1929.1</ele>
        <time>2021-08-11T07:25:52Z</time>
      </trkpt>
      <trkpt lat="44.4769" lon="6.82702">
        <ele>1928.4</ele>
        <time>2021-08-11T07:25:56Z</time>
      </trkpt>
      <trkpt lat="44.47694" lon="6.82704">
        <ele>1928.3</ele>
        <time>2021-08-11T07:26:00Z</time>
      </trkpt>
      <trkpt lat="44.47699" lon="6.82706">
        <ele>1928</ele>
        <time>2021-08-11T07:26:04Z</time>
      </trkpt>
      <trkpt lat="44.47704" lon="6.82708">
        <ele>1927.7</ele>
        <time>2021-08-11T07:26:08Z</time>
      </trkpt>
      <trkpt lat="44.47708" lon="6.8271">
        <ele>1927.6</ele>
        <time>2021-08-11T07:26:12Z</time>
      </trkpt>
      <trkpt lat="44.47712" lon="6.82713">
        <ele>1927.8</ele>
        <time>2021-08-11T07:26:16Z</time>
      </trkpt>
      <trkpt lat="44.47714" lon="6.8272">
        <ele>1929.7</ele>
        <time>2021-08-11T07:26:20Z</time>
      </trkpt>
      <trkpt lat="44.47713" lon="6.82727">
        <ele>1932.1</ele>
        <time>2021-08-11T07:26:24Z</time>
      </trkpt>
      <trkpt lat="44.47709" lon="6.82733">
        <ele>1934.6</ele>
        <time>2021-08-11T07:26:28Z</time>
      </trkpt>
      <trkpt lat="44.47705" lon="6.82737">
        <ele>1936.5</ele>
        <time>2021-08-11T07:26:32Z</time>
      </trkpt>
      <trkpt lat="44.47702" lon="6.82742">
        <ele>1938.5</ele>
        <time>2021-08-11T07:26:36Z</time>
      </trkpt>
      <trkpt lat="44.47698" lon="6.82746">
        <ele>1940.3</ele>
        <time>2021-08-11T07:26:40Z</time>
      </trkpt>
      <trkpt lat="44.47694" lon="6.82752">
        <ele>1942.5</ele>
        <time>2021-08-11T07:26:44Z</time>
      </trkpt>
      <trkpt lat="44.47691" lon="6.82757">
        <ele>1943.9</ele>
        <time>2021-08-11T07:26:48Z</time>
      </trkpt>
      <trkpt lat="44.47686" lon="6.8276">
        <ele>1945.1</ele>
        <time>2021-08-11T07:26:52Z</time>
      </trkpt>
      <trkpt lat="44.47682" lon="6.82764">
        <ele>1946.4</ele>
        <time>2021-08-11T07:26:56Z</time>
      </trkpt>
      <trkpt lat="44.4768" lon="6.8277">
        <ele>1947.8</ele>
        <time>2021-08-11T07:27:00Z</time>
      </trkpt>
      <trkpt lat="44.47679" lon="6.82776">
        <ele>1949</ele>
        <time>2021-08-11T07:27:04Z</time>
      </trkpt>
      <trkpt lat="44.47682" lon="6.82782">
        <ele>1949.8</ele>
        <time>2021-08-11T07:27:08Z</time>
      </trkpt>
      <trkpt lat="44.47686" lon="6.82785">
        <ele>1950</ele>
        <time>2021-08-11T07:27:12Z</time>
      </trkpt>
      <trkpt lat="44.47692" lon="6.82788">
        <ele>1950</ele>
        <time>2021-08-11T07:27:16Z</time>
      </trkpt>
      <trkpt lat="44.47697" lon="6.8279">
        <ele>1949.9</ele>
        <time>2021-08-11T07:27:20Z</time>
      </trkpt>
      <trkpt lat="44.47703" lon="6.8279">
        <ele>1949.4</ele>
        <time>2021-08-11T07:27:24Z</time>
      </trkpt>
      <trkpt lat="44.47709" lon="6.82791">
        <ele>1949</ele>
        <time>2021-08-11T07:27:28Z</time>
      </trkpt>
      <trkpt lat="44.47715" lon="6.82792">
        <ele>1948.7</ele>
        <time>2021-08-11T07:27:32Z</time>
      </trkpt>
      <trkpt lat="44.4772" lon="6.82793">
        <ele>1948.5</ele>
        <time>2021-08-11T07:27:36Z</time>
      </trkpt>
      <trkpt lat="44.47725" lon="6.82795">
        <ele>1948.6</ele>
        <time>2021-08-11T07:27:40Z</time>
      </trkpt>
      <trkpt lat="44.4773" lon="6.82796">
        <ele>1948.4</ele>
        <time>2021-08-11T07:27:44Z</time>
      </trkpt>
      <trkpt lat="44.47735" lon="6.82796">
        <ele>1948</ele>
        <time>2021-08-11T07:27:48Z</time>
      </trkpt>
      <trkpt lat="44.47741" lon="6.82797">
        <ele>1947.7</ele>
        <time>2021-08-11T07:27:52Z</time>
      </trkpt>
      <trkpt lat="44.47746" lon="6.82797">
        <ele>1947.3</ele>
        <time>2021-08-11T07:27:56Z</time>
      </trkpt>
      <trkpt lat="44.4775" lon="6.82797">
        <ele>1947</ele>
        <time>2021-08-11T07:28:00Z</time>
      </trkpt>
      <trkpt lat="44.47755" lon="6.82801">
        <ele>1947.3</ele>
        <time>2021-08-11T07:28:04Z</time>
      </trkpt>
      <trkpt lat="44.47755" lon="6.82808">
        <ele>1949.2</ele>
        <time>2021-08-11T07:28:08Z</time>
      </trkpt>
      <trkpt lat="44.47751" lon="6.82814">
        <ele>1951.5</ele>
        <time>2021-08-11T07:28:12Z</time>
      </trkpt>
      <trkpt lat="44.47747" lon="6.82819">
        <ele>1953.2</ele>
        <time>2021-08-11T07:28:16Z</time>
      </trkpt>
      <trkpt lat="44.47743" lon="6.82825">
        <ele>1955</ele>
        <time>2021-08-11T07:28:20Z</time>
      </trkpt>
      <trkpt lat="44.47739" lon="6.82831">
        <ele>1956.8</ele>
        <time>2021-08-11T07:28:24Z</time>
      </trkpt>
      <trkpt lat="44.47735" lon="6.82836">
        <ele>1958.3</ele>
        <time>2021-08-11T07:28:28Z</time>
      </trkpt>
      <trkpt lat="44.47731" lon="6.82842">
        <ele>1960.1</ele>
        <time>2021-08-11T07:28:32Z</time>
      </trkpt>
      <trkpt lat="44.47726" lon="6.82847">
        <ele>1961.6</ele>
        <time>2021-08-11T07:28:36Z</time>
      </trkpt>
      <trkpt lat="44.47722" lon="6.82851">
        <ele>1962.9</ele>
        <time>2021-08-11T07:28:40Z</time>
      </trkpt>
      <trkpt lat="44.47717" lon="6.82855">
        <ele>1964.2</ele>
        <time>2021-08-11T07:28:44Z</time>
      </trkpt>
      <trkpt lat="44.47712" lon="6.82857">
        <ele>1964.9</ele>
        <time>2021-08-11T07:28:48Z</time>
      </trkpt>
      <trkpt lat="44.47707" lon="6.82859">
        <ele>1965.6</ele>
        <time>2021-08-11T07:28:52Z</time>
      </trkpt>
      <trkpt lat="44.47702" lon="6.82861">
        <ele>1966.4</ele>
        <time>2021-08-11T07:28:56Z</time>
      </trkpt>
      <trkpt lat="44.47697" lon="6.82862">
        <ele>1966.8</ele>
        <time>2021-08-11T07:29:00Z</time>
      </trkpt>
      <trkpt lat="44.47693" lon="6.82865">
        <ele>1967.8</ele>
        <time>2021-08-11T07:29:04Z</time>
      </trkpt>
      <trkpt lat="44.47688" lon="6.82868">
        <ele>1968.8</ele>
        <time>2021-08-11T07:29:08Z</time>
      </trkpt>
      <trkpt lat="44.47684" lon="6.82871">
        <ele>1969.8</ele>
        <time>2021-08-11T07:29:12Z</time>
      </trkpt>
      <trkpt lat="44.47679" lon="6.82875">
        <ele>1971.1</ele>
        <time>2021-08-11T07:29:16Z</time>
      </trkpt>
      <trkpt lat="44.47677" lon="6.8288">
        <ele>1972.5</ele>
        <time>2021-08-11T07:29:20Z</time>
      </trkpt>
      <trkpt lat="44.47679" lon="6.82885">
        <ele>1973.8</ele>
        <time>2021-08-11T07:29:24Z</time>
      </trkpt>
      <trkpt lat="44.47684" lon="6.82884">
        <ele>1973.4</ele>
        <time>2021-08-11T07:29:28Z</time>
      </trkpt>
      <trkpt lat="44.4769" lon="6.82882">
        <ele>1972.6</ele>
        <time>2021-08-11T07:29:32Z</time>
      </trkpt>
      <trkpt lat="44.47695" lon="6.82882">
        <ele>1972.4</ele>
        <time>2021-08-11T07:29:36Z</time>
      </trkpt>
      <trkpt lat="44.47701" lon="6.82883">
        <ele>1972.5</ele>
        <time>2021-08-11T07:29:40Z</time>
      </trkpt>
      <trkpt lat="44.47706" lon="6.82885">
        <ele>1972.8</ele>
        <time>2021-08-11T07:29:44Z</time>
      </trkpt>
      <trkpt lat="44.47711" lon="6.82887">
        <ele>1973.2</ele>
        <time>2021-08-11T07:29:48Z</time>
      </trkpt>
      <trkpt lat="44.47716" lon="6.8289">
        <ele>1973.9</ele>
        <time>2021-08-11T07:29:52Z</time>
      </trkpt>
      <trkpt lat="44.47722" lon="6.82893">
        <ele>1974.5</ele>
        <time>2021-08-11T07:29:56Z</time>
      </trkpt>
      <trkpt lat="44.47727" lon="6.82896">
        <ele>1975.1</ele>
        <time>2021-08-11T07:30:00Z</time>
      </trkpt>
      <trkpt lat="44.47731" lon="6.82898">
        <ele>1975.5</ele>
        <time>2021-08-11T07:30:04Z</time>
      </trkpt>
      <trkpt lat="44.47736" lon="6.82901">
        <ele>1976.2</ele>
        <time>2021-08-11T07:30:08Z</time>
      </trkpt>
      <trkpt lat="44.47742" lon="6.82901">
        <ele>1976</ele>
        <time>2021-08-11T07:30:12Z</time>
      </trkpt>
      <trkpt lat="44.47747" lon="6.82903">
        <ele>1976.3</ele>
        <time>2021-08-11T07:30:16Z</time>
      </trkpt>
      <trkpt lat="44.47753" lon="6.82902">
        <ele>1975.7</ele>
        <time>2021-08-11T07:30:20Z</time>
      </trkpt>
      <trkpt lat="44.47759" lon="6.82901">
        <ele>1975</ele>
        <time>2021-08-11T07:30:24Z</time>
      </trkpt>
      <trkpt lat="44.47765" lon="6.82902">
        <ele>1974.9</ele>
        <time>2021-08-11T07:30:28Z</time>
      </trkpt>
      <trkpt lat="44.47771" lon="6.82904">
        <ele>1975</ele>
        <time>2021-08-11T07:30:32Z</time>
      </trkpt>
      <trkpt lat="44.47776" lon="6.82907">
        <ele>1975.6</ele>
        <time>2021-08-11T07:30:36Z</time>
      </trkpt>
      <trkpt lat="44.47782" lon="6.82911">
        <ele>1976.6</ele>
        <time>2021-08-11T07:30:40Z</time>
      </trkpt>
      <trkpt lat="44.47787" lon="6.82915">
        <ele>1977.7</ele>
        <time>2021-08-11T07:30:44Z</time>
      </trkpt>
      <trkpt lat="44.47792" lon="6.82918">
        <ele>1978.4</ele>
        <time>2021-08-11T07:30:48Z</time>
      </trkpt>
      <trkpt lat="44.47799" lon="6.82923">
        <ele>1979.4</ele>
        <time>2021-08-11T07:30:52Z</time>
      </trkpt>
      <trkpt lat="44.47802" lon="6.8293">
        <ele>1981.2</ele>
        <time>2021-08-11T07:30:56Z</time>
      </trkpt>
      <trkpt lat="44.47804" lon="6.82938">
        <ele>1983.3</ele>
        <time>2021-08-11T07:31:00Z</time>
      </trkpt>
      <trkpt lat="44.47804" lon="6.82945">
        <ele>1985.2</ele>
        <time>2021-08-11T07:31:04Z</time>
      </trkpt>
      <trkpt lat="44.47805" lon="6.82952">
        <ele>1987.1</ele>
        <time>2021-08-11T07:31:08Z</time>
      </trkpt>
      <trkpt lat="44.47807" lon="6.8296">
        <ele>1989.2</ele>
        <time>2021-08-11T07:31:12Z</time>
      </trkpt>
      <trkpt lat="44.4781" lon="6.8297">
        <ele>1991.8</ele>
        <time>2021-08-11T07:31:16Z</time>
      </trkpt>
      <trkpt lat="44.47816" lon="6.82974">
        <ele>1992.7</ele>
        <time>2021-08-11T07:31:20Z</time>
      </trkpt>
      <trkpt lat="44.47823" lon="6.82966">
        <ele>1990.1</ele>
        <time>2021-08-11T07:31:24Z</time>
      </trkpt>
      <trkpt lat="44.47829" lon="6.82959">
        <ele>1987.9</ele>
        <time>2021-08-11T07:31:28Z</time>
      </trkpt>
      <trkpt lat="44.47836" lon="6.82954">
        <ele>1986</ele>
        <time>2021-08-11T07:31:32Z</time>
      </trkpt>
      <trkpt lat="44.47844" lon="6.82956">
        <ele>1985.6</ele>
        <time>2021-08-11T07:31:36Z</time>
      </trkpt>
      <trkpt lat="44.4785" lon="6.82959">
        <ele>1985.7</ele>
        <time>2021-08-11T07:31:40Z</time>
      </trkpt>
      <trkpt lat="44.47855" lon="6.82964">
        <ele>1986.4</ele>
        <time>2021-08-11T07:31:44Z</time>
      </trkpt>
      <trkpt lat="44.47858" lon="6.8297">
        <ele>1987.6</ele>
        <time>2021-08-11T07:31:48Z</time>
      </trkpt>
      <trkpt lat="44.47857" lon="6.82978">
        <ele>1989.8</ele>
        <time>2021-08-11T07:31:52Z</time>
      </trkpt>
      <trkpt lat="44.47859" lon="6.82984">
        <ele>1991.1</ele>
        <time>2021-08-11T07:31:56Z</time>
      </trkpt>
      <trkpt lat="44.47861" lon="6.82992">
        <ele>1992.9</ele>
        <time>2021-08-11T07:32:00Z</time>
      </trkpt>
      <trkpt lat="44.47865" lon="6.82995">
        <ele>1993.2</ele>
        <time>2021-08-11T07:32:04Z</time>
      </trkpt>
      <trkpt lat="44.47871" lon="6.82999">
        <ele>1993.3</ele>
        <time>2021-08-11T07:32:08Z</time>
      </trkpt>
      <trkpt lat="44.47878" lon="6.83004">
        <ele>1993.7</ele>
        <time>2021-08-11T07:32:12Z</time>
      </trkpt>
      <trkpt lat="44.47883" lon="6.83009">
        <ele>1994.3</ele>
        <time>2021-08-11T07:32:16Z</time>
      </trkpt>
      <trkpt lat="44.47887" lon="6.83015">
        <ele>1995.4</ele>
        <time>2021-08-11T07:32:20Z</time>
      </trkpt>
      <trkpt lat="44.47892" lon="6.83024">
        <ele>1997.2</ele>
        <time>2021-08-11T07:32:24Z</time>
      </trkpt>
      <trkpt lat="44.47896" lon="6.8303">
        <ele>1998.3</ele>
        <time>2021-08-11T07:32:28Z</time>
      </trkpt>
      <trkpt lat="44.47902" lon="6.83036">
        <ele>1999.3</ele>
        <time>2021-08-11T07:32:32Z</time>
      </trkpt>
      <trkpt lat="44.47909" lon="6.83038">
        <ele>1998.9</ele>
        <time>2021-08-11T07:32:36Z</time>
      </trkpt>
      <trkpt lat="44.47916" lon="6.83044">
        <ele>1999.8</ele>
        <time>2021-08-11T07:32:40Z</time>
      </trkpt>
      <trkpt lat="44.47921" lon="6.8305">
        <ele>2002</ele>
        <time>2021-08-11T07:32:44Z</time>
      </trkpt>
      <trkpt lat="44.4793" lon="6.83058">
        <ele>2005</ele>
        <time>2021-08-11T07:32:48Z</time>
      </trkpt>
      <trkpt lat="44.47938" lon="6.83068">
        <ele>2007.9</ele>
        <time>2021-08-11T07:32:52Z</time>
      </trkpt>
      <trkpt lat="44.47945" lon="6.8308">
        <ele>2010.4</ele>
        <time>2021-08-11T07:32:56Z</time>
      </trkpt>
      <trkpt lat="44.47951" lon="6.83088">
        <ele>2012.2</ele>
        <time>2021-08-11T07:33:00Z</time>
      </trkpt>
      <trkpt lat="44.47957" lon="6.83096">
        <ele>2014.2</ele>
        <time>2021-08-11T07:33:04Z</time>
      </trkpt>
      <trkpt lat="44.47963" lon="6.83103">
        <ele>2015.8</ele>
        <time>2021-08-11T07:33:08Z</time>
      </trkpt>
      <trkpt lat="44.47969" lon="6.83109">
        <ele>2016.9</ele>
        <time>2021-08-11T07:33:12Z</time>
      </trkpt>
      <trkpt lat="44.47975" lon="6.83111">
        <ele>2017</ele>
        <time>2021-08-11T07:33:16Z</time>
      </trkpt>
      <trkpt lat="44.47982" lon="6.83108">
        <ele>2016</ele>
        <time>2021-08-11T07:33:20Z</time>
      </trkpt>
      <trkpt lat="44.47985" lon="6.83102">
        <ele>2014.7</ele>
        <time>2021-08-11T07:33:24Z</time>
      </trkpt>
      <trkpt lat="44.47988" lon="6.83094">
        <ele>2013.1</ele>
        <time>2021-08-11T07:33:28Z</time>
      </trkpt>
      <trkpt lat="44.47988" lon="6.83085">
        <ele>2011.3</ele>
        <time>2021-08-11T07:33:32Z</time>
      </trkpt>
      <trkpt lat="44.47988" lon="6.83078">
        <ele>2010.9</ele>
        <time>2021-08-11T07:33:36Z</time>
      </trkpt>
      <trkpt lat="44.47988" lon="6.8307">
        <ele>2010.9</ele>
        <time>2021-08-11T07:33:40Z</time>
      </trkpt>
      <trkpt lat="44.47988" lon="6.8306">
        <ele>2010.8</ele>
        <time>2021-08-11T07:33:44Z</time>
      </trkpt>
      <trkpt lat="44.47987" lon="6.83055">
        <ele>2010.6</ele>
        <time>2021-08-11T07:33:48Z</time>
      </trkpt>
      <trkpt lat="44.47986" lon="6.83049">
        <ele>2010.4</ele>
        <time>2021-08-11T07:33:52Z</time>
      </trkpt>
      <trkpt lat="44.47985" lon="6.83044">
        <ele>2010.1</ele>
        <time>2021-08-11T07:33:56Z</time>
      </trkpt>
      <trkpt lat="44.47983" lon="6.83039">
        <ele>2009.7</ele>
        <time>2021-08-11T07:34:00Z</time>
      </trkpt>
      <trkpt lat="44.47982" lon="6.8303">
        <ele>2009.2</ele>
        <time>2021-08-11T07:34:04Z</time>
      </trkpt>
      <trkpt lat="44.47982" lon="6.83021">
        <ele>2008.9</ele>
        <time>2021-08-11T07:34:08Z</time>
      </trkpt>
      <trkpt lat="44.47981" lon="6.83014">
        <ele>2008.4</ele>
        <time>2021-08-11T07:34:12Z</time>
      </trkpt>
      <trkpt lat="44.47979" lon="6.83006">
        <ele>2007.5</ele>
        <time>2021-08-11T07:34:16Z</time>
      </trkpt>
      <trkpt lat="44.47979" lon="6.82999">
        <ele>2007.2</ele>
        <time>2021-08-11T07:34:20Z</time>
      </trkpt>
      <trkpt lat="44.47979" lon="6.82991">
        <ele>2007</ele>
        <time>2021-08-11T07:34:24Z</time>
      </trkpt>
      <trkpt lat="44.4798" lon="6.82982">
        <ele>2007.2</ele>
        <time>2021-08-11T07:34:28Z</time>
      </trkpt>
      <trkpt lat="44.47982" lon="6.82974">
        <ele>2007.9</ele>
        <time>2021-08-11T07:34:32Z</time>
      </trkpt>
      <trkpt lat="44.47984" lon="6.82965">
        <ele>2008.6</ele>
        <time>2021-08-11T07:34:36Z</time>
      </trkpt>
      <trkpt lat="44.47986" lon="6.82957">
        <ele>2009.5</ele>
        <time>2021-08-11T07:34:40Z</time>
      </trkpt>
      <trkpt lat="44.47987" lon="6.82949">
        <ele>2010</ele>
        <time>2021-08-11T07:34:44Z</time>
      </trkpt>
      <trkpt lat="44.47988" lon="6.82942">
        <ele>2010.6</ele>
        <time>2021-08-11T07:34:48Z</time>
      </trkpt>
      <trkpt lat="44.47988" lon="6.82934">
        <ele>2010.7</ele>
        <time>2021-08-11T07:34:52Z</time>
      </trkpt>
      <trkpt lat="44.47988" lon="6.82926">
        <ele>2010.7</ele>
        <time>2021-08-11T07:34:56Z</time>
      </trkpt>
      <trkpt lat="44.47991" lon="6.82919">
        <ele>2012.6</ele>
        <time>2021-08-11T07:35:00Z</time>
      </trkpt>
      <trkpt lat="44.47994" lon="6.82917">
        <ele>2014.4</ele>
        <time>2021-08-11T07:35:04Z</time>
      </trkpt>
      <trkpt lat="44.47995" lon="6.82917">
        <ele>2015</ele>
        <time>2021-08-11T07:35:08Z</time>
      </trkpt>
      <trkpt lat="44.47996" lon="6.82922">
        <ele>2015.4</ele>
        <time>2021-08-11T07:35:12Z</time>
      </trkpt>
      <trkpt lat="44.47994" lon="6.82929">
        <ele>2014.1</ele>
        <time>2021-08-11T07:35:16Z</time>
      </trkpt>
      <trkpt lat="44.47994" lon="6.82936">
        <ele>2013.9</ele>
        <time>2021-08-11T07:35:20Z</time>
      </trkpt>
      <trkpt lat="44.47994" lon="6.82942">
        <ele>2013.7</ele>
        <time>2021-08-11T07:35:24Z</time>
      </trkpt>
      <trkpt lat="44.47994" lon="6.82949">
        <ele>2013.5</ele>
        <time>2021-08-11T07:35:28Z</time>
      </trkpt>
      <trkpt lat="44.47994" lon="6.82956">
        <ele>2013.3</ele>
        <time>2021-08-11T07:35:32Z</time>
      </trkpt>
      <trkpt lat="44.47995" lon="6.82963">
        <ele>2013.5</ele>
        <time>2021-08-11T07:35:36Z</time>
      </trkpt>
      <trkpt lat="44.47995" lon="6.8297">
        <ele>2013.3</ele>
        <time>2021-08-11T07:35:40Z</time>
      </trkpt>
      <trkpt lat="44.47994" lon="6.82976">
        <ele>2012.7</ele>
        <time>2021-08-11T07:35:44Z</time>
      </trkpt>
      <trkpt lat="44.47995" lon="6.82983">
        <ele>2012.9</ele>
        <time>2021-08-11T07:35:48Z</time>
      </trkpt>
      <trkpt lat="44.47997" lon="6.82989">
        <ele>2013.4</ele>
        <time>2021-08-11T07:35:52Z</time>
      </trkpt>
      <trkpt lat="44.48" lon="6.82993">
        <ele>2014.3</ele>
        <time>2021-08-11T07:35:56Z</time>
      </trkpt>
      <trkpt lat="44.48003" lon="6.82997">
        <ele>2016</ele>
        <time>2021-08-11T07:36:00Z</time>
      </trkpt>
      <trkpt lat="44.48007" lon="6.83">
        <ele>2018.4</ele>
        <time>2021-08-11T07:36:04Z</time>
      </trkpt>
      <trkpt lat="44.4801" lon="6.83004">
        <ele>2020</ele>
        <time>2021-08-11T07:36:08Z</time>
      </trkpt>
      <trkpt lat="44.48012" lon="6.83008">
        <ele>2021</ele>
        <time>2021-08-11T07:36:12Z</time>
      </trkpt>
      <trkpt lat="44.48014" lon="6.83013">
        <ele>2021.9</ele>
        <time>2021-08-11T07:36:16Z</time>
      </trkpt>
      <trkpt lat="44.48016" lon="6.83018">
        <ele>2022.7</ele>
        <time>2021-08-11T07:36:20Z</time>
      </trkpt>
      <trkpt lat="44.48019" lon="6.83024">
        <ele>2024</ele>
        <time>2021-08-11T07:36:24Z</time>
      </trkpt>
      <trkpt lat="44.4802" lon="6.8303">
        <ele>2024.1</ele>
        <time>2021-08-11T07:36:28Z</time>
      </trkpt>
      <trkpt lat="44.48022" lon="6.83033">
        <ele>2025</ele>
        <time>2021-08-11T07:36:32Z</time>
      </trkpt>
      <trkpt lat="44.48025" lon="6.83028">
        <ele>2027.1</ele>
        <time>2021-08-11T07:36:36Z</time>
      </trkpt>
      <trkpt lat="44.48025" lon="6.83022">
        <ele>2027.6</ele>
        <time>2021-08-11T07:36:40Z</time>
      </trkpt>
      <trkpt lat="44.48024" lon="6.83016">
        <ele>2027.6</ele>
        <time>2021-08-11T07:36:44Z</time>
      </trkpt>
      <trkpt lat="44.48023" lon="6.83012">
        <ele>2027.3</ele>
        <time>2021-08-11T07:36:48Z</time>
      </trkpt>
      <trkpt lat="44.48023" lon="6.83005">
        <ele>2027.9</ele>
        <time>2021-08-11T07:36:56Z</time>
      </trkpt>
      <trkpt lat="44.48023" lon="6.83">
        <ele>2028.4</ele>
        <time>2021-08-11T07:37:00Z</time>
      </trkpt>
      <trkpt lat="44.48023" lon="6.82994">
        <ele>2028.8</ele>
        <time>2021-08-11T07:45:04Z</time>
      </trkpt>
      <trkpt lat="44.48022" lon="6.8299">
        <ele>2028.5</ele>
        <time>2021-08-11T07:45:08Z</time>
      </trkpt>
      <trkpt lat="44.48021" lon="6.82984">
        <ele>2028.3</ele>
        <time>2021-08-11T07:45:12Z</time>
      </trkpt>
      <trkpt lat="44.48021" lon="6.82976">
        <ele>2028.9</ele>
        <time>2021-08-11T07:45:16Z</time>
      </trkpt>
      <trkpt lat="44.48024" lon="6.82969">
        <ele>2031.4</ele>
        <time>2021-08-11T07:45:20Z</time>
      </trkpt>
      <trkpt lat="44.48025" lon="6.82963">
        <ele>2032.6</ele>
        <time>2021-08-11T07:45:24Z</time>
      </trkpt>
      <trkpt lat="44.48026" lon="6.8296">
        <ele>2033.5</ele>
        <time>2021-08-11T07:45:28Z</time>
      </trkpt>
      <trkpt lat="44.48028" lon="6.82962">
        <ele>2034.7</ele>
        <time>2021-08-11T07:45:32Z</time>
      </trkpt>
      <trkpt lat="44.48029" lon="6.82965">
        <ele>2035.1</ele>
        <time>2021-08-11T07:45:36Z</time>
      </trkpt>
      <trkpt lat="44.48028" lon="6.82971">
        <ele>2033.9</ele>
        <time>2021-08-11T07:45:40Z</time>
      </trkpt>
      <trkpt lat="44.48029" lon="6.82977">
        <ele>2034.1</ele>
        <time>2021-08-11T07:45:44Z</time>
      </trkpt>
      <trkpt lat="44.48032" lon="6.82984">
        <ele>2035.4</ele>
        <time>2021-08-11T07:45:48Z</time>
      </trkpt>
      <trkpt lat="44.48035" lon="6.82989">
        <ele>2036.9</ele>
        <time>2021-08-11T07:45:52Z</time>
      </trkpt>
      <trkpt lat="44.48038" lon="6.82995">
        <ele>2038.2</ele>
        <time>2021-08-11T07:45:56Z</time>
      </trkpt>
      <trkpt lat="44.48041" lon="6.82998">
        <ele>2039.8</ele>
        <time>2021-08-11T07:46:00Z</time>
      </trkpt>
      <trkpt lat="44.48044" lon="6.83005">
        <ele>2040.8</ele>
        <time>2021-08-11T07:46:04Z</time>
      </trkpt>
      <trkpt lat="44.48046" lon="6.8301">
        <ele>2041.4</ele>
        <time>2021-08-11T07:46:08Z</time>
      </trkpt>
      <trkpt lat="44.48047" lon="6.83016">
        <ele>2041.1</ele>
        <time>2021-08-11T07:46:12Z</time>
      </trkpt>
      <trkpt lat="44.48049" lon="6.83022">
        <ele>2041.5</ele>
        <time>2021-08-11T07:46:16Z</time>
      </trkpt>
      <trkpt lat="44.48053" lon="6.83029">
        <ele>2042.7</ele>
        <time>2021-08-11T07:46:20Z</time>
      </trkpt>
      <trkpt lat="44.48055" lon="6.83034">
        <ele>2043.1</ele>
        <time>2021-08-11T07:46:24Z</time>
      </trkpt>
      <trkpt lat="44.48058" lon="6.83039">
        <ele>2043.9</ele>
        <time>2021-08-11T07:46:28Z</time>
      </trkpt>
      <trkpt lat="44.48061" lon="6.83045">
        <ele>2044.5</ele>
        <time>2021-08-11T07:46:32Z</time>
      </trkpt>
      <trkpt lat="44.48063" lon="6.83049">
        <ele>2044.9</ele>
        <time>2021-08-11T07:46:36Z</time>
      </trkpt>
      <trkpt lat="44.48066" lon="6.83052">
        <ele>2045.9</ele>
        <time>2021-08-11T07:46:40Z</time>
      </trkpt>
      <trkpt lat="44.4807" lon="6.83057">
        <ele>2047</ele>
        <time>2021-08-11T07:46:44Z</time>
      </trkpt>
      <trkpt lat="44.48074" lon="6.83063">
        <ele>2047.8</ele>
        <time>2021-08-11T07:46:48Z</time>
      </trkpt>
      <trkpt lat="44.48077" lon="6.83068">
        <ele>2048.3</ele>
        <time>2021-08-11T07:46:52Z</time>
      </trkpt>
      <trkpt lat="44.48078" lon="6.83074">
        <ele>2047.5</ele>
        <time>2021-08-11T07:46:56Z</time>
      </trkpt>
      <trkpt lat="44.48079" lon="6.8308">
        <ele>2046.8</ele>
        <time>2021-08-11T07:47:00Z</time>
      </trkpt>
      <trkpt lat="44.4808" lon="6.83085">
        <ele>2046.3</ele>
        <time>2021-08-11T07:47:04Z</time>
      </trkpt>
      <trkpt lat="44.48082" lon="6.83091">
        <ele>2046.5</ele>
        <time>2021-08-11T07:47:08Z</time>
      </trkpt>
      <trkpt lat="44.48084" lon="6.83095">
        <ele>2046.9</ele>
        <time>2021-08-11T07:47:12Z</time>
      </trkpt>
      <trkpt lat="44.48087" lon="6.83099">
        <ele>2047.9</ele>
        <time>2021-08-11T07:47:16Z</time>
      </trkpt>
      <trkpt lat="44.48091" lon="6.831">
        <ele>2049.6</ele>
        <time>2021-08-11T07:47:20Z</time>
      </trkpt>
      <trkpt lat="44.48094" lon="6.83097">
        <ele>2051.4</ele>
        <time>2021-08-11T07:47:24Z</time>
      </trkpt>
      <trkpt lat="44.48094" lon="6.83091">
        <ele>2052.3</ele>
        <time>2021-08-11T07:47:28Z</time>
      </trkpt>
      <trkpt lat="44.48094" lon="6.83085">
        <ele>2053.1</ele>
        <time>2021-08-11T07:47:32Z</time>
      </trkpt>
      <trkpt lat="44.48094" lon="6.83081">
        <ele>2053.9</ele>
        <time>2021-08-11T07:47:36Z</time>
      </trkpt>
      <trkpt lat="44.48095" lon="6.83075">
        <ele>2055.7</ele>
        <time>2021-08-11T07:47:40Z</time>
      </trkpt>
      <trkpt lat="44.48095" lon="6.83068">
        <ele>2057.3</ele>
        <time>2021-08-11T07:47:44Z</time>
      </trkpt>
      <trkpt lat="44.48095" lon="6.83064">
        <ele>2058.2</ele>
        <time>2021-08-11T07:47:52Z</time>
      </trkpt>
      <trkpt lat="44.48094" lon="6.8306">
        <ele>2058.5</ele>
        <time>2021-08-11T07:47:56Z</time>
      </trkpt>
      <trkpt lat="44.48093" lon="6.83055">
        <ele>2059.1</ele>
        <time>2021-08-11T07:48:00Z</time>
      </trkpt>
      <trkpt lat="44.48091" lon="6.83049">
        <ele>2059.4</ele>
        <time>2021-08-11T07:48:04Z</time>
      </trkpt>
      <trkpt lat="44.48089" lon="6.83045">
        <ele>2059.2</ele>
        <time>2021-08-11T07:48:08Z</time>
      </trkpt>
      <trkpt lat="44.48087" lon="6.8304">
        <ele>2059.3</ele>
        <time>2021-08-11T07:48:12Z</time>
      </trkpt>
      <trkpt lat="44.48086" lon="6.83034">
        <ele>2060.1</ele>
        <time>2021-08-11T07:48:16Z</time>
      </trkpt>
      <trkpt lat="44.4809" lon="6.83035">
        <ele>2061.9</ele>
        <time>2021-08-11T07:48:20Z</time>
      </trkpt>
      <trkpt lat="44.48094" lon="6.83041">
        <ele>2062.7</ele>
        <time>2021-08-11T07:48:24Z</time>
      </trkpt>
      <trkpt lat="44.48098" lon="6.83046">
        <ele>2063.7</ele>
        <time>2021-08-11T07:48:28Z</time>
      </trkpt>
      <trkpt lat="44.481" lon="6.8305">
        <ele>2063.8</ele>
        <time>2021-08-11T07:48:32Z</time>
      </trkpt>
      <trkpt lat="44.48103" lon="6.83056">
        <ele>2064</ele>
        <time>2021-08-11T07:48:36Z</time>
      </trkpt>
      <trkpt lat="44.48106" lon="6.83062">
        <ele>2064.2</ele>
        <time>2021-08-11T07:48:40Z</time>
      </trkpt>
      <trkpt lat="44.48109" lon="6.83064">
        <ele>2065.3</ele>
        <time>2021-08-11T07:48:44Z</time>
      </trkpt>
      <trkpt lat="44.48112" lon="6.83068">
        <ele>2065.9</ele>
        <time>2021-08-11T07:48:48Z</time>
      </trkpt>
      <trkpt lat="44.48116" lon="6.83072">
        <ele>2067.1</ele>
        <time>2021-08-11T07:48:52Z</time>
      </trkpt>
      <trkpt lat="44.48121" lon="6.83075">
        <ele>2068.9</ele>
        <time>2021-08-11T07:48:56Z</time>
      </trkpt>
      <trkpt lat="44.48125" lon="6.83081">
        <ele>2069.5</ele>
        <time>2021-08-11T07:49:00Z</time>
      </trkpt>
      <trkpt lat="44.48128" lon="6.83084">
        <ele>2070.4</ele>
        <time>2021-08-11T07:49:04Z</time>
      </trkpt>
      <trkpt lat="44.48132" lon="6.83091">
        <ele>2070.9</ele>
        <time>2021-08-11T07:49:08Z</time>
      </trkpt>
      <trkpt lat="44.48137" lon="6.83095">
        <ele>2072.4</ele>
        <time>2021-08-11T07:49:12Z</time>
      </trkpt>
      <trkpt lat="44.4814" lon="6.83099">
        <ele>2072.9</ele>
        <time>2021-08-11T07:49:16Z</time>
      </trkpt>
      <trkpt lat="44.48143" lon="6.83102">
        <ele>2073.6</ele>
        <time>2021-08-11T07:49:20Z</time>
      </trkpt>
      <trkpt lat="44.48147" lon="6.83105">
        <ele>2074.7</ele>
        <time>2021-08-11T07:49:24Z</time>
      </trkpt>
      <trkpt lat="44.48152" lon="6.83109">
        <ele>2076</ele>
        <time>2021-08-11T07:49:28Z</time>
      </trkpt>
      <trkpt lat="44.48155" lon="6.83112">
        <ele>2076.5</ele>
        <time>2021-08-11T07:49:32Z</time>
      </trkpt>
      <trkpt lat="44.48159" lon="6.83116">
        <ele>2077.2</ele>
        <time>2021-08-11T07:49:36Z</time>
      </trkpt>
      <trkpt lat="44.48163" lon="6.83119">
        <ele>2078.1</ele>
        <time>2021-08-11T07:49:40Z</time>
      </trkpt>
      <trkpt lat="44.48163" lon="6.83123">
        <ele>2077</ele>
        <time>2021-08-11T07:49:56Z</time>
      </trkpt>
      <trkpt lat="44.48167" lon="6.83125">
        <ele>2078.1</ele>
        <time>2021-08-11T07:50:16Z</time>
      </trkpt>
      <trkpt lat="44.48166" lon="6.83122">
        <ele>2078.6</ele>
        <time>2021-08-11T08:05:00Z</time>
      </trkpt>
      <trkpt lat="44.48167" lon="6.83123">
        <ele>2078.7</ele>
        <time>2021-08-11T08:05:04Z</time>
      </trkpt>
      <trkpt lat="44.48166" lon="6.83121">
        <ele>2078.9</ele>
        <time>2021-08-11T08:06:08Z</time>
      </trkpt>
      <trkpt lat="44.48173" lon="6.83125">
        <ele>2080.7</ele>
        <time>2021-08-11T08:06:52Z</time>
      </trkpt>
      <trkpt lat="44.48171" lon="6.8312">
        <ele>2081.2</ele>
        <time>2021-08-11T08:07:32Z</time>
      </trkpt>
      <trkpt lat="44.48171" lon="6.83119">
        <ele>2081.5</ele>
        <time>2021-08-11T08:15:20Z</time>
      </trkpt>
      <trkpt lat="44.48172" lon="6.83124">
        <ele>2080.5</ele>
        <time>2021-08-11T08:19:32Z</time>
      </trkpt>
      <trkpt lat="44.48168" lon="6.83118">
        <ele>2080.6</ele>
        <time>2021-08-11T08:37:20Z</time>
      </trkpt>
      <trkpt lat="44.48171" lon="6.83126">
        <ele>2079.5</ele>
        <time>2021-08-11T08:37:44Z</time>
      </trkpt>
      <trkpt lat="44.48175" lon="6.83126">
        <ele>2081.2</ele>
        <time>2021-08-11T08:37:48Z</time>
      </trkpt>
      <trkpt lat="44.48178" lon="6.83129">
        <ele>2081.6</ele>
        <time>2021-08-11T08:37:52Z</time>
      </trkpt>
      <trkpt lat="44.48181" lon="6.83132">
        <ele>2082.1</ele>
        <time>2021-08-11T08:37:56Z</time>
      </trkpt>
      <trkpt lat="44.48185" lon="6.83133">
        <ele>2083.5</ele>
        <time>2021-08-11T08:38:00Z</time>
      </trkpt>
      <trkpt lat="44.48189" lon="6.83138">
        <ele>2083.8</ele>
        <time>2021-08-11T08:38:04Z</time>
      </trkpt>
      <trkpt lat="44.48194" lon="6.83143">
        <ele>2084.6</ele>
        <time>2021-08-11T08:38:08Z</time>
      </trkpt>
      <trkpt lat="44.48196" lon="6.83148">
        <ele>2084.1</ele>
        <time>2021-08-11T08:38:12Z</time>
      </trkpt>
      <trkpt lat="44.48198" lon="6.83147">
        <ele>2085.2</ele>
        <time>2021-08-11T08:38:32Z</time>
      </trkpt>
      <trkpt lat="44.48198" lon="6.83145">
        <ele>2085.8</ele>
        <time>2021-08-11T08:38:44Z</time>
      </trkpt>
      <trkpt lat="44.48194" lon="6.83139">
        <ele>2085.7</ele>
        <time>2021-08-11T08:38:48Z</time>
      </trkpt>
      <trkpt lat="44.48186" lon="6.83134">
        <ele>2083.6</ele>
        <time>2021-08-11T08:38:52Z</time>
      </trkpt>
      <trkpt lat="44.4818" lon="6.83128">
        <ele>2082.8</ele>
        <time>2021-08-11T08:38:56Z</time>
      </trkpt>
      <trkpt lat="44.48176" lon="6.83125">
        <ele>2081.9</ele>
        <time>2021-08-11T08:39:12Z</time>
      </trkpt>
      <trkpt lat="44.48173" lon="6.83124">
        <ele>2080.9</ele>
        <time>2021-08-11T08:41:44Z</time>
      </trkpt>
      <trkpt lat="44.48177" lon="6.83125">
        <ele>2082.3</ele>
        <time>2021-08-11T08:42:20Z</time>
      </trkpt>
      <trkpt lat="44.48169" lon="6.83125">
        <ele>2079</ele>
        <time>2021-08-11T08:45:12Z</time>
      </trkpt>
      <trkpt lat="44.48169" lon="6.83121">
        <ele>2080.1</ele>
        <time>2021-08-11T08:45:20Z</time>
      </trkpt>
      <trkpt lat="44.48164" lon="6.83119">
        <ele>2078.6</ele>
        <time>2021-08-11T08:45:24Z</time>
      </trkpt>
      <trkpt lat="44.48155" lon="6.83111">
        <ele>2076.8</ele>
        <time>2021-08-11T08:45:28Z</time>
      </trkpt>
      <trkpt lat="44.48146" lon="6.83101">
        <ele>2075.2</ele>
        <time>2021-08-11T08:45:32Z</time>
      </trkpt>
      <trkpt lat="44.48137" lon="6.83092">
        <ele>2073.1</ele>
        <time>2021-08-11T08:45:36Z</time>
      </trkpt>
      <trkpt lat="44.48126" lon="6.8308">
        <ele>2070.3</ele>
        <time>2021-08-11T08:45:40Z</time>
      </trkpt>
      <trkpt lat="44.48114" lon="6.83072">
        <ele>2066.1</ele>
        <time>2021-08-11T08:45:44Z</time>
      </trkpt>
      <trkpt lat="44.48106" lon="6.83061">
        <ele>2064.5</ele>
        <time>2021-08-11T08:45:48Z</time>
      </trkpt>
      <trkpt lat="44.48093" lon="6.8304">
        <ele>2062.4</ele>
        <time>2021-08-11T08:45:52Z</time>
      </trkpt>
      <trkpt lat="44.48089" lon="6.83046">
        <ele>2059</ele>
        <time>2021-08-11T08:45:56Z</time>
      </trkpt>
      <trkpt lat="44.48094" lon="6.83069">
        <ele>2056.5</ele>
        <time>2021-08-11T08:46:00Z</time>
      </trkpt>
      <trkpt lat="44.48093" lon="6.83092">
        <ele>2051.7</ele>
        <time>2021-08-11T08:46:04Z</time>
      </trkpt>
      <trkpt lat="44.48091" lon="6.83101">
        <ele>2049.5</ele>
        <time>2021-08-11T08:46:08Z</time>
      </trkpt>
      <trkpt lat="44.48082" lon="6.83091">
        <ele>2046.5</ele>
        <time>2021-08-11T08:46:12Z</time>
      </trkpt>
      <trkpt lat="44.48074" lon="6.83064">
        <ele>2047.6</ele>
        <time>2021-08-11T08:46:16Z</time>
      </trkpt>
      <trkpt lat="44.48061" lon="6.83046">
        <ele>2044.3</ele>
        <time>2021-08-11T08:46:20Z</time>
      </trkpt>
      <trkpt lat="44.48051" lon="6.83025">
        <ele>2042.2</ele>
        <time>2021-08-11T08:46:24Z</time>
      </trkpt>
      <trkpt lat="44.48043" lon="6.83003">
        <ele>2040.4</ele>
        <time>2021-08-11T08:46:28Z</time>
      </trkpt>
      <trkpt lat="44.48031" lon="6.82977">
        <ele>2035.4</ele>
        <time>2021-08-11T08:46:32Z</time>
      </trkpt>
      <trkpt lat="44.48028" lon="6.82961">
        <ele>2034.8</ele>
        <time>2021-08-11T08:46:36Z</time>
      </trkpt>
      <trkpt lat="44.48021" lon="6.82976">
        <ele>2028.9</ele>
        <time>2021-08-11T08:46:40Z</time>
      </trkpt>
      <trkpt lat="44.48023" lon="6.83002">
        <ele>2028.2</ele>
        <time>2021-08-11T08:46:44Z</time>
      </trkpt>
      <trkpt lat="44.48025" lon="6.83027">
        <ele>2027.2</ele>
        <time>2021-08-11T08:46:48Z</time>
      </trkpt>
      <trkpt lat="44.48021" lon="6.8303">
        <ele>2024.7</ele>
        <time>2021-08-11T08:46:52Z</time>
      </trkpt>
      <trkpt lat="44.48013" lon="6.83011">
        <ele>2021.4</ele>
        <time>2021-08-11T08:46:56Z</time>
      </trkpt>
      <trkpt lat="44.48003" lon="6.82996">
        <ele>2016.1</ele>
        <time>2021-08-11T08:47:00Z</time>
      </trkpt>
      <trkpt lat="44.47996" lon="6.82975">
        <ele>2013.6</ele>
        <time>2021-08-11T08:47:04Z</time>
      </trkpt>
      <trkpt lat="44.47995" lon="6.82947">
        <ele>2014</ele>
        <time>2021-08-11T08:47:08Z</time>
      </trkpt>
      <trkpt lat="44.47995" lon="6.82927">
        <ele>2014.7</ele>
        <time>2021-08-11T08:47:12Z</time>
      </trkpt>
      <trkpt lat="44.47993" lon="6.82913">
        <ele>2013.9</ele>
        <time>2021-08-11T08:47:16Z</time>
      </trkpt>
      <trkpt lat="44.47988" lon="6.82923">
        <ele>2010.7</ele>
        <time>2021-08-11T08:47:20Z</time>
      </trkpt>
      <trkpt lat="44.47988" lon="6.82945">
        <ele>2010.6</ele>
        <time>2021-08-11T08:47:24Z</time>
      </trkpt>
      <trkpt lat="44.47983" lon="6.8297">
        <ele>2008.2</ele>
        <time>2021-08-11T08:47:28Z</time>
      </trkpt>
      <trkpt lat="44.47983" lon="6.83001">
        <ele>2008.5</ele>
        <time>2021-08-11T08:47:32Z</time>
      </trkpt>
      <trkpt lat="44.47988" lon="6.83035">
        <ele>2010.5</ele>
        <time>2021-08-11T08:47:36Z</time>
      </trkpt>
      <trkpt lat="44.47989" lon="6.83059">
        <ele>2010.8</ele>
        <time>2021-08-11T08:47:40Z</time>
      </trkpt>
      <trkpt lat="44.47989" lon="6.83091">
        <ele>2012.5</ele>
        <time>2021-08-11T08:47:44Z</time>
      </trkpt>
      <trkpt lat="44.47979" lon="6.8311">
        <ele>2016.6</ele>
        <time>2021-08-11T08:47:48Z</time>
      </trkpt>
      <trkpt lat="44.47967" lon="6.83107">
        <ele>2016.6</ele>
        <time>2021-08-11T08:47:52Z</time>
      </trkpt>
      <trkpt lat="44.47958" lon="6.831">
        <ele>2015.2</ele>
        <time>2021-08-11T08:47:56Z</time>
      </trkpt>
      <trkpt lat="44.4795" lon="6.83093">
        <ele>2013.6</ele>
        <time>2021-08-11T08:48:00Z</time>
      </trkpt>
      <trkpt lat="44.47947" lon="6.83089">
        <ele>2012.6</ele>
        <time>2021-08-11T08:48:04Z</time>
      </trkpt>
      <trkpt lat="44.47939" lon="6.83075">
        <ele>2009.3</ele>
        <time>2021-08-11T08:48:08Z</time>
      </trkpt>
      <trkpt lat="44.47921" lon="6.8306">
        <ele>2004.7</ele>
        <time>2021-08-11T08:48:12Z</time>
      </trkpt>
      <trkpt lat="44.47899" lon="6.8304">
        <ele>2000.8</ele>
        <time>2021-08-11T08:48:16Z</time>
      </trkpt>
      <trkpt lat="44.47875" lon="6.83018">
        <ele>1997.9</ele>
        <time>2021-08-11T08:48:20Z</time>
      </trkpt>
      <trkpt lat="44.4786" lon="6.82998">
        <ele>1994.6</ele>
        <time>2021-08-11T08:48:24Z</time>
      </trkpt>
      <trkpt lat="44.47848" lon="6.82968">
        <ele>1988.3</ele>
        <time>2021-08-11T08:48:28Z</time>
      </trkpt>
      <trkpt lat="44.47826" lon="6.82968">
        <ele>1990.5</ele>
        <time>2021-08-11T08:48:32Z</time>
      </trkpt>
      <trkpt lat="44.47812" lon="6.82976">
        <ele>1993.4</ele>
        <time>2021-08-11T08:48:36Z</time>
      </trkpt>
      <trkpt lat="44.47807" lon="6.82959">
        <ele>1988.9</ele>
        <time>2021-08-11T08:48:40Z</time>
      </trkpt>
      <trkpt lat="44.47805" lon="6.82944">
        <ele>1984.9</ele>
        <time>2021-08-11T08:48:44Z</time>
      </trkpt>
      <trkpt lat="44.47795" lon="6.82924">
        <ele>1979.9</ele>
        <time>2021-08-11T08:48:48Z</time>
      </trkpt>
      <trkpt lat="44.47777" lon="6.82909">
        <ele>1976.2</ele>
        <time>2021-08-11T08:48:52Z</time>
      </trkpt>
      <trkpt lat="44.4775" lon="6.82903">
        <ele>1976.2</ele>
        <time>2021-08-11T08:48:56Z</time>
      </trkpt>
      <trkpt lat="44.47718" lon="6.82894">
        <ele>1974.9</ele>
        <time>2021-08-11T08:49:00Z</time>
      </trkpt>
      <trkpt lat="44.47688" lon="6.82885">
        <ele>1973.5</ele>
        <time>2021-08-11T08:49:04Z</time>
      </trkpt>
      <trkpt lat="44.47675" lon="6.82876">
        <ele>1971.5</ele>
        <time>2021-08-11T08:49:08Z</time>
      </trkpt>
      <trkpt lat="44.47692" lon="6.82863">
        <ele>1967.3</ele>
        <time>2021-08-11T08:49:12Z</time>
      </trkpt>
      <trkpt lat="44.47718" lon="6.82851">
        <ele>1963</ele>
        <time>2021-08-11T08:49:16Z</time>
      </trkpt>
      <trkpt lat="44.47741" lon="6.82825">
        <ele>1955.1</ele>
        <time>2021-08-11T08:49:20Z</time>
      </trkpt>
      <trkpt lat="44.47754" lon="6.82804">
        <ele>1948.2</ele>
        <time>2021-08-11T08:49:24Z</time>
      </trkpt>
      <trkpt lat="44.47741" lon="6.82795">
        <ele>1947.2</ele>
        <time>2021-08-11T08:49:28Z</time>
      </trkpt>
      <trkpt lat="44.47714" lon="6.82791">
        <ele>1948.6</ele>
        <time>2021-08-11T08:49:32Z</time>
      </trkpt>
      <trkpt lat="44.47684" lon="6.82783">
        <ele>1949.8</ele>
        <time>2021-08-11T08:49:36Z</time>
      </trkpt>
      <trkpt lat="44.47687" lon="6.82758">
        <ele>1944.6</ele>
        <time>2021-08-11T08:49:40Z</time>
      </trkpt>
      <trkpt lat="44.47708" lon="6.82733">
        <ele>1934.7</ele>
        <time>2021-08-11T08:49:44Z</time>
      </trkpt>
      <trkpt lat="44.47705" lon="6.82709">
        <ele>1927.8</ele>
        <time>2021-08-11T08:49:48Z</time>
      </trkpt>
      <trkpt lat="44.47677" lon="6.82695">
        <ele>1928.8</ele>
        <time>2021-08-11T08:49:52Z</time>
      </trkpt>
      <trkpt lat="44.47654" lon="6.82653">
        <ele>1919.7</ele>
        <time>2021-08-11T08:49:56Z</time>
      </trkpt>
      <trkpt lat="44.47644" lon="6.82621">
        <ele>1910.8</ele>
        <time>2021-08-11T08:50:00Z</time>
      </trkpt>
      <trkpt lat="44.47656" lon="6.82627">
        <ele>1911.8</ele>
        <time>2021-08-11T08:50:04Z</time>
      </trkpt>
      <trkpt lat="44.47667" lon="6.8265">
        <ele>1917.9</ele>
        <time>2021-08-11T08:50:08Z</time>
      </trkpt>
      <trkpt lat="44.47688" lon="6.82663">
        <ele>1917.3</ele>
        <time>2021-08-11T08:50:12Z</time>
      </trkpt>
      <trkpt lat="44.47717" lon="6.82666">
        <ele>1911.9</ele>
        <time>2021-08-11T08:50:16Z</time>
      </trkpt>
      <trkpt lat="44.47749" lon="6.82673">
        <ele>1907.4</ele>
        <time>2021-08-11T08:50:20Z</time>
      </trkpt>
      <trkpt lat="44.47784" lon="6.82688">
        <ele>1913.2</ele>
        <time>2021-08-11T08:50:24Z</time>
      </trkpt>
      <trkpt lat="44.47808" lon="6.82683">
        <ele>1912.7</ele>
        <time>2021-08-11T08:50:28Z</time>
      </trkpt>
      <trkpt lat="44.47809" lon="6.82652">
        <ele>1907.2</ele>
        <time>2021-08-11T08:50:32Z</time>
      </trkpt>
      <trkpt lat="44.47801" lon="6.82608">
        <ele>1898.9</ele>
        <time>2021-08-11T08:50:36Z</time>
      </trkpt>
      <trkpt lat="44.47805" lon="6.82566">
        <ele>1895.4</ele>
        <time>2021-08-11T08:50:40Z</time>
      </trkpt>
      <trkpt lat="44.47816" lon="6.82537">
        <ele>1898.9</ele>
        <time>2021-08-11T08:50:44Z</time>
      </trkpt>
      <trkpt lat="44.4781" lon="6.82501">
        <ele>1895</ele>
        <time>2021-08-11T08:50:48Z</time>
      </trkpt>
      <trkpt lat="44.4781" lon="6.82453">
        <ele>1896</ele>
        <time>2021-08-11T08:50:52Z</time>
      </trkpt>
      <trkpt lat="44.47806" lon="6.82403">
        <ele>1894.2</ele>
        <time>2021-08-11T08:50:56Z</time>
      </trkpt>
      <trkpt lat="44.47799" lon="6.82356">
        <ele>1889.2</ele>
        <time>2021-08-11T08:51:00Z</time>
      </trkpt>
      <trkpt lat="44.47797" lon="6.82308">
        <ele>1887.5</ele>
        <time>2021-08-11T08:51:04Z</time>
      </trkpt>
      <trkpt lat="44.47789" lon="6.82257">
        <ele>1881.7</ele>
        <time>2021-08-11T08:51:08Z</time>
      </trkpt>
      <trkpt lat="44.47782" lon="6.82215">
        <ele>1875.5</ele>
        <time>2021-08-11T08:51:12Z</time>
      </trkpt>
      <trkpt lat="44.47789" lon="6.8218">
        <ele>1878.5</ele>
        <time>2021-08-11T08:51:16Z</time>
      </trkpt>
      <trkpt lat="44.47801" lon="6.82152">
        <ele>1885.5</ele>
        <time>2021-08-11T08:51:20Z</time>
      </trkpt>
      <trkpt lat="44.47807" lon="6.82125">
        <ele>1888.9</ele>
        <time>2021-08-11T08:51:24Z</time>
      </trkpt>
      <trkpt lat="44.47811" lon="6.82099">
        <ele>1890.6</ele>
        <time>2021-08-11T08:51:28Z</time>
      </trkpt>
      <trkpt lat="44.47809" lon="6.82071">
        <ele>1891.7</ele>
        <time>2021-08-11T08:51:32Z</time>
      </trkpt>
      <trkpt lat="44.47792" lon="6.82066">
        <ele>1885.9</ele>
        <time>2021-08-11T08:51:36Z</time>
      </trkpt>
      <trkpt lat="44.47772" lon="6.82077">
        <ele>1876.5</ele>
        <time>2021-08-11T08:51:40Z</time>
      </trkpt>
      <trkpt lat="44.47755" lon="6.82078">
        <ele>1869.8</ele>
        <time>2021-08-11T08:51:44Z</time>
      </trkpt>
      <trkpt lat="44.47742" lon="6.82073">
        <ele>1864.5</ele>
        <time>2021-08-11T08:51:48Z</time>
      </trkpt>
      <trkpt lat="44.47733" lon="6.82063">
        <ele>1861.6</ele>
        <time>2021-08-11T08:51:52Z</time>
      </trkpt>
      <trkpt lat="44.47725" lon="6.82043">
        <ele>1861</ele>
        <time>2021-08-11T08:51:56Z</time>
      </trkpt>
      <trkpt lat="44.47724" lon="6.82008">
        <ele>1866.5</ele>
        <time>2021-08-11T08:52:00Z</time>
      </trkpt>
      <trkpt lat="44.47726" lon="6.81965">
        <ele>1875.7</ele>
        <time>2021-08-11T08:52:04Z</time>
      </trkpt>
      <trkpt lat="44.47717" lon="6.81932">
        <ele>1878.4</ele>
        <time>2021-08-11T08:52:08Z</time>
      </trkpt>
      <trkpt lat="44.47691" lon="6.81913">
        <ele>1871.5</ele>
        <time>2021-08-11T08:52:12Z</time>
      </trkpt>
      <trkpt lat="44.47662" lon="6.81906">
        <ele>1860.1</ele>
        <time>2021-08-11T08:52:16Z</time>
      </trkpt>
      <trkpt lat="44.47645" lon="6.81894">
        <ele>1852.6</ele>
        <time>2021-08-11T08:52:20Z</time>
      </trkpt>
      <trkpt lat="44.47633" lon="6.81866">
        <ele>1850</ele>
        <time>2021-08-11T08:52:24Z</time>
      </trkpt>
      <trkpt lat="44.4763" lon="6.81833">
        <ele>1852.9</ele>
        <time>2021-08-11T08:52:28Z</time>
      </trkpt>
      <trkpt lat="44.47625" lon="6.81797">
        <ele>1849.8</ele>
        <time>2021-08-11T08:52:32Z</time>
      </trkpt>
      <trkpt lat="44.47626" lon="6.81758">
        <ele>1850.1</ele>
        <time>2021-08-11T08:52:36Z</time>
      </trkpt>
      <trkpt lat="44.47621" lon="6.81739">
        <ele>1847</ele>
        <time>2021-08-11T08:52:40Z</time>
      </trkpt>
      <trkpt lat="44.47617" lon="6.81714">
        <ele>1844.3</ele>
        <time>2021-08-11T08:52:44Z</time>
      </trkpt>
      <trkpt lat="44.47613" lon="6.81681">
        <ele>1841.5</ele>
        <time>2021-08-11T08:52:48Z</time>
      </trkpt>
      <trkpt lat="44.4761" lon="6.81647">
        <ele>1835.3</ele>
        <time>2021-08-11T08:52:52Z</time>
      </trkpt>
      <trkpt lat="44.47618" lon="6.81607">
        <ele>1830.2</ele>
        <time>2021-08-11T08:52:56Z</time>
      </trkpt>
      <trkpt lat="44.47631" lon="6.81575">
        <ele>1829.6</ele>
        <time>2021-08-11T08:53:00Z</time>
      </trkpt>
      <trkpt lat="44.4764" lon="6.81535">
        <ele>1824.4</ele>
        <time>2021-08-11T08:53:04Z</time>
      </trkpt>
      <trkpt lat="44.47648" lon="6.81502">
        <ele>1820</ele>
        <time>2021-08-11T08:53:08Z</time>
      </trkpt>
      <trkpt lat="44.47652" lon="6.81493">
        <ele>1819.9</ele>
        <time>2021-08-11T08:53:28Z</time>
      </trkpt>
      <trkpt lat="44.47659" lon="6.81481">
        <ele>1820.7</ele>
        <time>2021-08-11T08:53:32Z</time>
      </trkpt>
      <trkpt lat="44.47669" lon="6.81458">
        <ele>1819.9</ele>
        <time>2021-08-11T08:53:36Z</time>
      </trkpt>
      <trkpt lat="44.47677" lon="6.81429">
        <ele>1815.6</ele>
        <time>2021-08-11T08:53:40Z</time>
      </trkpt>
      <trkpt lat="44.47691" lon="6.81396">
        <ele>1811.5</ele>
        <time>2021-08-11T08:53:44Z</time>
      </trkpt>
      <trkpt lat="44.47711" lon="6.81364">
        <ele>1808</ele>
        <time>2021-08-11T08:53:48Z</time>
      </trkpt>
      <trkpt lat="44.47735" lon="6.81341">
        <ele>1806.5</ele>
        <time>2021-08-11T08:53:52Z</time>
      </trkpt>
      <trkpt lat="44.47765" lon="6.81335">
        <ele>1808.3</ele>
        <time>2021-08-11T08:53:56Z</time>
      </trkpt>
      <trkpt lat="44.47798" lon="6.8132">
        <ele>1804</ele>
        <time>2021-08-11T08:54:00Z</time>
      </trkpt>
      <trkpt lat="44.47834" lon="6.81315">
        <ele>1804.2</ele>
        <time>2021-08-11T08:54:04Z</time>
      </trkpt>
      <trkpt lat="44.47869" lon="6.81311">
        <ele>1807.8</ele>
        <time>2021-08-11T08:54:08Z</time>
      </trkpt>
      <trkpt lat="44.47902" lon="6.813">
        <ele>1808.5</ele>
        <time>2021-08-11T08:54:12Z</time>
      </trkpt>
      <trkpt lat="44.47929" lon="6.81267">
        <ele>1800.8</ele>
        <time>2021-08-11T08:54:16Z</time>
      </trkpt>
      <trkpt lat="44.47952" lon="6.81233">
        <ele>1796.6</ele>
        <time>2021-08-11T08:54:20Z</time>
      </trkpt>
      <trkpt lat="44.47957" lon="6.8119">
        <ele>1787.4</ele>
        <time>2021-08-11T08:54:24Z</time>
      </trkpt>
      <trkpt lat="44.47966" lon="6.81152">
        <ele>1781.8</ele>
        <time>2021-08-11T08:54:28Z</time>
      </trkpt>
      <trkpt lat="44.47979" lon="6.81107">
        <ele>1778</ele>
        <time>2021-08-11T08:54:32Z</time>
      </trkpt>
      <trkpt lat="44.47981" lon="6.81059">
        <ele>1774.4</ele>
        <time>2021-08-11T08:54:36Z</time>
      </trkpt>
      <trkpt lat="44.47989" lon="6.81017">
        <ele>1775.3</ele>
        <time>2021-08-11T08:54:40Z</time>
      </trkpt>
      <trkpt lat="44.47999" lon="6.80982">
        <ele>1777.7</ele>
        <time>2021-08-11T08:54:44Z</time>
      </trkpt>
      <trkpt lat="44.48005" lon="6.80956">
        <ele>1779.4</ele>
        <time>2021-08-11T08:54:48Z</time>
      </trkpt>
      <trkpt lat="44.48009" lon="6.8094">
        <ele>1780.3</ele>
        <time>2021-08-11T08:54:52Z</time>
      </trkpt>
      <trkpt lat="44.4801" lon="6.80924">
        <ele>1781</ele>
        <time>2021-08-11T08:54:56Z</time>
      </trkpt>
      <trkpt lat="44.4801" lon="6.80908">
        <ele>1780.8</ele>
        <time>2021-08-11T08:55:00Z</time>
      </trkpt>
      <trkpt lat="44.48012" lon="6.80891">
        <ele>1780.1</ele>
        <time>2021-08-11T08:55:04Z</time>
      </trkpt>
      <trkpt lat="44.48014" lon="6.80873">
        <ele>1779.4</ele>
        <time>2021-08-11T08:55:08Z</time>
      </trkpt>
      <trkpt lat="44.48016" lon="6.80855">
        <ele>1778.7</ele>
        <time>2021-08-11T08:55:12Z</time>
      </trkpt>
      <trkpt lat="44.48025" lon="6.80829">
        <ele>1777.7</ele>
        <time>2021-08-11T08:55:16Z</time>
      </trkpt>
      <trkpt lat="44.48039" lon="6.80804">
        <ele>1775.6</ele>
        <time>2021-08-11T08:55:20Z</time>
      </trkpt>
      <trkpt lat="44.48059" lon="6.80793">
        <ele>1776.1</ele>
        <time>2021-08-11T08:55:24Z</time>
      </trkpt>
      <trkpt lat="44.48078" lon="6.80787">
        <ele>1777.2</ele>
        <time>2021-08-11T08:55:28Z</time>
      </trkpt>
      <trkpt lat="44.48096" lon="6.80782">
        <ele>1777.5</ele>
        <time>2021-08-11T08:55:32Z</time>
      </trkpt>
      <trkpt lat="44.48112" lon="6.80777">
        <ele>1777.4</ele>
        <time>2021-08-11T08:55:36Z</time>
      </trkpt>
      <trkpt lat="44.48129" lon="6.80772">
        <ele>1777.2</ele>
        <time>2021-08-11T08:55:40Z</time>
      </trkpt>
      <trkpt lat="44.48145" lon="6.80769">
        <ele>1777</ele>
        <time>2021-08-11T08:55:44Z</time>
      </trkpt>
      <trkpt lat="44.48157" lon="6.80761">
        <ele>1776.3</ele>
        <time>2021-08-11T08:55:48Z</time>
      </trkpt>
      <trkpt lat="44.48169" lon="6.80752">
        <ele>1775.4</ele>
        <time>2021-08-11T08:55:52Z</time>
      </trkpt>
      <trkpt lat="44.48179" lon="6.80749">
        <ele>1775.8</ele>
        <time>2021-08-11T08:55:56Z</time>
      </trkpt>
      <trkpt lat="44.48181" lon="6.80749">
        <ele>1776</ele>
        <time>2021-08-11T08:56:00Z</time>
      </trkpt>
      <trkpt lat="44.48188" lon="6.80745">
        <ele>1776.2</ele>
        <time>2021-08-11T08:56:04Z</time>
      </trkpt>
      <trkpt lat="44.482" lon="6.80739">
        <ele>1776.6</ele>
        <time>2021-08-11T08:56:08Z</time>
      </trkpt>
      <trkpt lat="44.48211" lon="6.8073">
        <ele>1776.8</ele>
        <time>2021-08-11T08:56:12Z</time>
      </trkpt>
      <trkpt lat="44.48221" lon="6.80721">
        <ele>1776.8</ele>
        <time>2021-08-11T08:56:16Z</time>
      </trkpt>
      <trkpt lat="44.4823" lon="6.8071">
        <ele>1776.7</ele>
        <time>2021-08-11T08:56:20Z</time>
      </trkpt>
      <trkpt lat="44.48238" lon="6.807">
        <ele>1776.5</ele>
        <time>2021-08-11T08:56:24Z</time>
      </trkpt>
      <trkpt lat="44.48244" lon="6.80688">
        <ele>1776.1</ele>
        <time>2021-08-11T08:56:28Z</time>
      </trkpt>
      <trkpt lat="44.4825" lon="6.80678">
        <ele>1775.8</ele>
        <time>2021-08-11T08:56:32Z</time>
      </trkpt>
      <trkpt lat="44.48257" lon="6.80672">
        <ele>1776.5</ele>
        <time>2021-08-11T08:56:36Z</time>
      </trkpt>
      <trkpt lat="44.48264" lon="6.80668">
        <ele>1777.3</ele>
        <time>2021-08-11T08:56:40Z</time>
      </trkpt>
      <trkpt lat="44.4827" lon="6.80664">
        <ele>1778</ele>
        <time>2021-08-11T08:56:44Z</time>
      </trkpt>
      <trkpt lat="44.48276" lon="6.80662">
        <ele>1778.8</ele>
        <time>2021-08-11T08:56:48Z</time>
      </trkpt>
      <trkpt lat="44.48282" lon="6.8066">
        <ele>1779.6</ele>
        <time>2021-08-11T08:56:52Z</time>
      </trkpt>
      <trkpt lat="44.48288" lon="6.80659">
        <ele>1780.5</ele>
        <time>2021-08-11T08:56:56Z</time>
      </trkpt>
      <trkpt lat="44.48294" lon="6.80658">
        <ele>1781.3</ele>
        <time>2021-08-11T08:57:00Z</time>
      </trkpt>
      <trkpt lat="44.483" lon="6.80656">
        <ele>1782.1</ele>
        <time>2021-08-11T08:57:04Z</time>
      </trkpt>
      <trkpt lat="44.48305" lon="6.80655">
        <ele>1782.8</ele>
        <time>2021-08-11T08:57:08Z</time>
      </trkpt>
      <trkpt lat="44.48311" lon="6.80656">
        <ele>1783.8</ele>
        <time>2021-08-11T08:57:12Z</time>
      </trkpt>
      <trkpt lat="44.48316" lon="6.80658">
        <ele>1784.7</ele>
        <time>2021-08-11T08:57:16Z</time>
      </trkpt>
      <trkpt lat="44.48321" lon="6.8066">
        <ele>1785.6</ele>
        <time>2021-08-11T08:57:20Z</time>
      </trkpt>
      <trkpt lat="44.48326" lon="6.80663">
        <ele>1786.6</ele>
        <time>2021-08-11T08:57:24Z</time>
      </trkpt>
      <trkpt lat="44.48331" lon="6.80665">
        <ele>1787.5</ele>
        <time>2021-08-11T08:57:28Z</time>
      </trkpt>
      <trkpt lat="44.48336" lon="6.80664">
        <ele>1788.3</ele>
        <time>2021-08-11T08:57:32Z</time>
      </trkpt>
      <trkpt lat="44.48341" lon="6.80667">
        <ele>1789.5</ele>
        <time>2021-08-11T08:59:04Z</time>
      </trkpt>
      <trkpt lat="44.48346" lon="6.80666">
        <ele>1790.4</ele>
        <time>2021-08-11T08:59:08Z</time>
      </trkpt>
      <trkpt lat="44.4835" lon="6.80665">
        <ele>1791.1</ele>
        <time>2021-08-11T08:59:12Z</time>
      </trkpt>
      <trkpt lat="44.48355" lon="6.80665">
        <ele>1792</ele>
        <time>2021-08-11T08:59:16Z</time>
      </trkpt>
      <trkpt lat="44.4836" lon="6.80662">
        <ele>1792.8</ele>
        <time>2021-08-11T08:59:20Z</time>
      </trkpt>
      <trkpt lat="44.48364" lon="6.8066">
        <ele>1793.4</ele>
        <time>2021-08-11T08:59:24Z</time>
      </trkpt>
      <trkpt lat="44.48368" lon="6.80658">
        <ele>1794.1</ele>
        <time>2021-08-11T08:59:28Z</time>
      </trkpt>
      <trkpt lat="44.48372" lon="6.80654">
        <ele>1794.6</ele>
        <time>2021-08-11T08:59:32Z</time>
      </trkpt>
      <trkpt lat="44.48376" lon="6.80651">
        <ele>1795.3</ele>
        <time>2021-08-11T08:59:36Z</time>
      </trkpt>
      <trkpt lat="44.48381" lon="6.80647">
        <ele>1796</ele>
        <time>2021-08-11T08:59:40Z</time>
      </trkpt>
      <trkpt lat="44.48384" lon="6.80644">
        <ele>1796.5</ele>
        <time>2021-08-11T08:59:44Z</time>
      </trkpt>
      <trkpt lat="44.48385" lon="6.80637">
        <ele>1796.3</ele>
        <time>2021-08-11T08:59:48Z</time>
      </trkpt>
      <trkpt lat="44.48382" lon="6.80619">
        <ele>1794.7</ele>
        <time>2021-08-11T08:59:52Z</time>
      </trkpt>
      <trkpt lat="44.48376" lon="6.80596">
        <ele>1792</ele>
        <time>2021-08-11T08:59:56Z</time>
      </trkpt>
      <trkpt lat="44.48365" lon="6.8057">
        <ele>1788.8</ele>
        <time>2021-08-11T09:00:00Z</time>
      </trkpt>
      <trkpt lat="44.48361" lon="6.80533">
        <ele>1788.4</ele>
        <time>2021-08-11T09:00:04Z</time>
      </trkpt>
      <trkpt lat="44.48355" lon="6.8049">
        <ele>1787.9</ele>
        <time>2021-08-11T09:00:08Z</time>
      </trkpt>
      <trkpt lat="44.48333" lon="6.80454">
        <ele>1784.6</ele>
        <time>2021-08-11T09:00:12Z</time>
      </trkpt>
      <trkpt lat="44.48304" lon="6.80438">
        <ele>1780.1</ele>
        <time>2021-08-11T09:00:16Z</time>
      </trkpt>
      <trkpt lat="44.48283" lon="6.80431">
        <ele>1776.4</ele>
        <time>2021-08-11T09:00:20Z</time>
      </trkpt>
      <trkpt lat="44.48275" lon="6.80454">
        <ele>1775.3</ele>
        <time>2021-08-11T09:00:24Z</time>
      </trkpt>
      <trkpt lat="44.48276" lon="6.80487">
        <ele>1775.9</ele>
        <time>2021-08-11T09:00:28Z</time>
      </trkpt>
      <trkpt lat="44.48265" lon="6.80518">
        <ele>1774.5</ele>
        <time>2021-08-11T09:00:32Z</time>
      </trkpt>
      <trkpt lat="44.48242" lon="6.80531">
        <ele>1771.2</ele>
        <time>2021-08-11T09:00:36Z</time>
      </trkpt>
      <trkpt lat="44.48219" lon="6.80546">
        <ele>1767.8</ele>
        <time>2021-08-11T09:00:40Z</time>
      </trkpt>
      <trkpt lat="44.48202" lon="6.8056">
        <ele>1766.3</ele>
        <time>2021-08-11T09:00:44Z</time>
      </trkpt>
      <trkpt lat="44.48203" lon="6.80549">
        <ele>1765.7</ele>
        <time>2021-08-11T09:00:48Z</time>
      </trkpt>
      <trkpt lat="44.4821" lon="6.80534">
        <ele>1765.8</ele>
        <time>2021-08-11T09:00:52Z</time>
      </trkpt>
      <trkpt lat="44.48217" lon="6.80524">
        <ele>1766.6</ele>
        <time>2021-08-11T09:00:56Z</time>
      </trkpt>
      <trkpt lat="44.48223" lon="6.80514">
        <ele>1767.3</ele>
        <time>2021-08-11T09:01:00Z</time>
      </trkpt>
      <trkpt lat="44.48229" lon="6.80501">
        <ele>1768.2</ele>
        <time>2021-08-11T09:01:04Z</time>
      </trkpt>
      <trkpt lat="44.48233" lon="6.80484">
        <ele>1768.4</ele>
        <time>2021-08-11T09:01:08Z</time>
      </trkpt>
      <trkpt lat="44.48234" lon="6.80461">
        <ele>1767.6</ele>
        <time>2021-08-11T09:01:12Z</time>
      </trkpt>
      <trkpt lat="44.48233" lon="6.80431">
        <ele>1766</ele>
        <time>2021-08-11T09:01:16Z</time>
      </trkpt>
      <trkpt lat="44.48229" lon="6.80404">
        <ele>1762.8</ele>
        <time>2021-08-11T09:01:20Z</time>
      </trkpt>
      <trkpt lat="44.48227" lon="6.80384">
        <ele>1760</ele>
        <time>2021-08-11T09:01:24Z</time>
      </trkpt>
      <trkpt lat="44.48231" lon="6.80371">
        <ele>1759.7</ele>
        <time>2021-08-11T09:01:28Z</time>
      </trkpt>
      <trkpt lat="44.48238" lon="6.8036">
        <ele>1760.5</ele>
        <time>2021-08-11T09:01:32Z</time>
      </trkpt>
      <trkpt lat="44.48242" lon="6.80352">
        <ele>1760.7</ele>
        <time>2021-08-11T09:01:36Z</time>
      </trkpt>
      <trkpt lat="44.48245" lon="6.80344">
        <ele>1760.7</ele>
        <time>2021-08-11T09:01:40Z</time>
      </trkpt>
      <trkpt lat="44.48249" lon="6.80334">
        <ele>1760.8</ele>
        <time>2021-08-11T09:01:44Z</time>
      </trkpt>
      <trkpt lat="44.48254" lon="6.8032">
        <ele>1759.7</ele>
        <time>2021-08-11T09:01:48Z</time>
      </trkpt>
      <trkpt lat="44.48263" lon="6.80303">
        <ele>1759</ele>
        <time>2021-08-11T09:01:52Z</time>
      </trkpt>
      <trkpt lat="44.48277" lon="6.80278">
        <ele>1758</ele>
        <time>2021-08-11T09:01:56Z</time>
      </trkpt>
      <trkpt lat="44.48294" lon="6.80251">
        <ele>1757.2</ele>
        <time>2021-08-11T09:02:00Z</time>
      </trkpt>
      <trkpt lat="44.48309" lon="6.80232">
        <ele>1757.2</ele>
        <time>2021-08-11T09:02:04Z</time>
      </trkpt>
      <trkpt lat="44.48322" lon="6.80219">
        <ele>1757.7</ele>
        <time>2021-08-11T09:02:08Z</time>
      </trkpt>
      <trkpt lat="44.48334" lon="6.80205">
        <ele>1757.5</ele>
        <time>2021-08-11T09:02:12Z</time>
      </trkpt>
      <trkpt lat="44.48347" lon="6.80192">
        <ele>1758.9</ele>
        <time>2021-08-11T09:02:16Z</time>
      </trkpt>
      <trkpt lat="44.48355" lon="6.80184">
        <ele>1759.9</ele>
        <time>2021-08-11T09:02:20Z</time>
      </trkpt>
      <trkpt lat="44.48361" lon="6.80178">
        <ele>1760.8</ele>
        <time>2021-08-11T09:02:24Z</time>
      </trkpt>
      <trkpt lat="44.48371" lon="6.80167">
        <ele>1762.3</ele>
        <time>2021-08-11T09:02:28Z</time>
      </trkpt>
      <trkpt lat="44.48383" lon="6.80151">
        <ele>1766.3</ele>
        <time>2021-08-11T09:02:32Z</time>
      </trkpt>
      <trkpt lat="44.4839" lon="6.8014">
        <ele>1768.9</ele>
        <time>2021-08-11T09:02:36Z</time>
      </trkpt>
      <trkpt lat="44.48394" lon="6.80132">
        <ele>1770.6</ele>
        <time>2021-08-11T09:02:40Z</time>
      </trkpt>
      <trkpt lat="44.48395" lon="6.80125">
        <ele>1771.2</ele>
        <time>2021-08-11T09:02:44Z</time>
      </trkpt>
      <trkpt lat="44.48395" lon="6.80118">
        <ele>1771.4</ele>
        <time>2021-08-11T09:02:48Z</time>
      </trkpt>
      <trkpt lat="44.48395" lon="6.80113">
        <ele>1771.5</ele>
        <time>2021-08-11T09:02:52Z</time>
      </trkpt>
      <trkpt lat="44.48394" lon="6.80108">
        <ele>1771.3</ele>
        <time>2021-08-11T09:02:56Z</time>
      </trkpt>
      <trkpt lat="44.48392" lon="6.80101">
        <ele>1770.6</ele>
        <time>2021-08-11T09:03:00Z</time>
      </trkpt>
      <trkpt lat="44.48391" lon="6.80095">
        <ele>1770.3</ele>
        <time>2021-08-11T09:03:04Z</time>
      </trkpt>
      <trkpt lat="44.4839" lon="6.80089">
        <ele>1770</ele>
        <time>2021-08-11T09:03:08Z</time>
      </trkpt>
      <trkpt lat="44.48389" lon="6.80083">
        <ele>1769.7</ele>
        <time>2021-08-11T09:03:12Z</time>
      </trkpt>
      <trkpt lat="44.4839" lon="6.80077">
        <ele>1770.1</ele>
        <time>2021-08-11T09:03:16Z</time>
      </trkpt>
      <trkpt lat="44.4839" lon="6.80071">
        <ele>1770</ele>
        <time>2021-08-11T09:03:20Z</time>
      </trkpt>
      <trkpt lat="44.48391" lon="6.80065">
        <ele>1770.4</ele>
        <time>2021-08-11T09:03:24Z</time>
      </trkpt>
      <trkpt lat="44.48391" lon="6.80059">
        <ele>1770.3</ele>
        <time>2021-08-11T09:03:28Z</time>
      </trkpt>
      <trkpt lat="44.48391" lon="6.80053">
        <ele>1770.2</ele>
        <time>2021-08-11T09:03:32Z</time>
      </trkpt>
      <trkpt lat="44.4839" lon="6.80046">
        <ele>1769.7</ele>
        <time>2021-08-11T09:03:36Z</time>
      </trkpt>
      <trkpt lat="44.48388" lon="6.80041">
        <ele>1768.8</ele>
        <time>2021-08-11T09:03:40Z</time>
      </trkpt>
      <trkpt lat="44.48386" lon="6.80037">
        <ele>1767.9</ele>
        <time>2021-08-11T09:03:44Z</time>
      </trkpt>
      <trkpt lat="44.48383" lon="6.80029">
        <ele>1766.5</ele>
        <time>2021-08-11T09:03:48Z</time>
      </trkpt>
      <trkpt lat="44.48379" lon="6.8002">
        <ele>1764.8</ele>
        <time>2021-08-11T09:03:52Z</time>
      </trkpt>
      <trkpt lat="44.48376" lon="6.80012">
        <ele>1763.5</ele>
        <time>2021-08-11T09:03:56Z</time>
      </trkpt>
      <trkpt lat="44.48374" lon="6.80004">
        <ele>1762.6</ele>
        <time>2021-08-11T09:04:00Z</time>
      </trkpt>
      <trkpt lat="44.48372" lon="6.79994">
        <ele>1760.4</ele>
        <time>2021-08-11T09:04:04Z</time>
      </trkpt>
      <trkpt lat="44.48374" lon="6.79984">
        <ele>1759</ele>
        <time>2021-08-11T09:04:08Z</time>
      </trkpt>
      <trkpt lat="44.48381" lon="6.79978">
        <ele>1760.1</ele>
        <time>2021-08-11T09:04:12Z</time>
      </trkpt>
      <trkpt lat="44.48389" lon="6.79972">
        <ele>1761.4</ele>
        <time>2021-08-11T09:04:16Z</time>
      </trkpt>
      <trkpt lat="44.48396" lon="6.79966">
        <ele>1762.2</ele>
        <time>2021-08-11T09:04:20Z</time>
      </trkpt>
      <trkpt lat="44.48403" lon="6.79959">
        <ele>1762.4</ele>
        <time>2021-08-11T09:04:24Z</time>
      </trkpt>
      <trkpt lat="44.48411" lon="6.79951">
        <ele>1762.5</ele>
        <time>2021-08-11T09:04:28Z</time>
      </trkpt>
      <trkpt lat="44.48419" lon="6.79945">
        <ele>1762.7</ele>
        <time>2021-08-11T09:04:32Z</time>
      </trkpt>
      <trkpt lat="44.48428" lon="6.79941">
        <ele>1763.5</ele>
        <time>2021-08-11T09:04:36Z</time>
      </trkpt>
      <trkpt lat="44.48439" lon="6.79937">
        <ele>1764.6</ele>
        <time>2021-08-11T09:04:40Z</time>
      </trkpt>
      <trkpt lat="44.4845" lon="6.79933">
        <ele>1765.6</ele>
        <time>2021-08-11T09:04:44Z</time>
      </trkpt>
      <trkpt lat="44.48459" lon="6.7993">
        <ele>1766.5</ele>
        <time>2021-08-11T09:04:48Z</time>
      </trkpt>
      <trkpt lat="44.48469" lon="6.79926">
        <ele>1767.2</ele>
        <time>2021-08-11T09:04:52Z</time>
      </trkpt>
      <trkpt lat="44.48479" lon="6.79921">
        <ele>1767.4</ele>
        <time>2021-08-11T09:04:56Z</time>
      </trkpt>
      <trkpt lat="44.48488" lon="6.79922">
        <ele>1769.7</ele>
        <time>2021-08-11T09:05:00Z</time>
      </trkpt>
      <trkpt lat="44.48497" lon="6.79922">
        <ele>1771.5</ele>
        <time>2021-08-11T09:05:04Z</time>
      </trkpt>
      <trkpt lat="44.48505" lon="6.79919">
        <ele>1771.2</ele>
        <time>2021-08-11T09:05:08Z</time>
      </trkpt>
      <trkpt lat="44.48515" lon="6.79915">
        <ele>1770</ele>
        <time>2021-08-11T09:05:12Z</time>
      </trkpt>
      <trkpt lat="44.48526" lon="6.79913">
        <ele>1769.8</ele>
        <time>2021-08-11T09:05:16Z</time>
      </trkpt>
      <trkpt lat="44.48538" lon="6.79915">
        <ele>1771.2</ele>
        <time>2021-08-11T09:05:20Z</time>
      </trkpt>
      <trkpt lat="44.48556" lon="6.79919">
        <ele>1773.5</ele>
        <time>2021-08-11T09:05:24Z</time>
      </trkpt>
      <trkpt lat="44.4857" lon="6.79921">
        <ele>1774.9</ele>
        <time>2021-08-11T09:05:28Z</time>
      </trkpt>
      <trkpt lat="44.48579" lon="6.79927">
        <ele>1777.4</ele>
        <time>2021-08-11T09:05:32Z</time>
      </trkpt>
      <trkpt lat="44.48584" lon="6.7993">
        <ele>1778.7</ele>
        <time>2021-08-11T09:05:36Z</time>
      </trkpt>
      <trkpt lat="44.48588" lon="6.79932">
        <ele>1779.8</ele>
        <time>2021-08-11T09:05:40Z</time>
      </trkpt>
      <trkpt lat="44.48592" lon="6.79937">
        <ele>1781.9</ele>
        <time>2021-08-11T09:05:44Z</time>
      </trkpt>
      <trkpt lat="44.48596" lon="6.79942">
        <ele>1783.9</ele>
        <time>2021-08-11T09:05:48Z</time>
      </trkpt>
      <trkpt lat="44.48602" lon="6.79947">
        <ele>1786</ele>
        <time>2021-08-11T09:05:52Z</time>
      </trkpt>
      <trkpt lat="44.48606" lon="6.79949">
        <ele>1786.9</ele>
        <time>2021-08-11T09:05:56Z</time>
      </trkpt>
      <trkpt lat="44.48611" lon="6.79953">
        <ele>1788.5</ele>
        <time>2021-08-11T09:06:00Z</time>
      </trkpt>
      <trkpt lat="44.48614" lon="6.79956">
        <ele>1789.6</ele>
        <time>2021-08-11T09:06:04Z</time>
      </trkpt>
      <trkpt lat="44.48616" lon="6.79959">
        <ele>1790.7</ele>
        <time>2021-08-11T09:06:08Z</time>
      </trkpt>
      <trkpt lat="44.48623" lon="6.79963">
        <ele>1792.2</ele>
        <time>2021-08-11T09:06:12Z</time>
      </trkpt>
      <trkpt lat="44.48627" lon="6.79965">
        <ele>1793</ele>
        <time>2021-08-11T09:06:16Z</time>
      </trkpt>
      <trkpt lat="44.48632" lon="6.79964">
        <ele>1793</ele>
        <time>2021-08-11T09:06:20Z</time>
      </trkpt>
      <trkpt lat="44.48636" lon="6.79959">
        <ele>1791.8</ele>
        <time>2021-08-11T09:06:24Z</time>
      </trkpt>
      <trkpt lat="44.48638" lon="6.79954">
        <ele>1790.6</ele>
        <time>2021-08-11T09:06:28Z</time>
      </trkpt>
      <trkpt lat="44.48639" lon="6.79947">
        <ele>1788.8</ele>
        <time>2021-08-11T09:06:32Z</time>
      </trkpt>
      <trkpt lat="44.48639" lon="6.7994">
        <ele>1786.9</ele>
        <time>2021-08-11T09:06:36Z</time>
      </trkpt>
      <trkpt lat="44.48638" lon="6.79933">
        <ele>1785</ele>
        <time>2021-08-11T09:06:40Z</time>
      </trkpt>
      <trkpt lat="44.48639" lon="6.79926">
        <ele>1783.2</ele>
        <time>2021-08-11T09:06:44Z</time>
      </trkpt>
      <trkpt lat="44.48641" lon="6.79919">
        <ele>1781.5</ele>
        <time>2021-08-11T09:06:48Z</time>
      </trkpt>
      <trkpt lat="44.48646" lon="6.79912">
        <ele>1780.7</ele>
        <time>2021-08-11T09:06:52Z</time>
      </trkpt>
      <trkpt lat="44.48652" lon="6.79909">
        <ele>1780.9</ele>
        <time>2021-08-11T09:06:56Z</time>
      </trkpt>
      <trkpt lat="44.48657" lon="6.79907">
        <ele>1781.2</ele>
        <time>2021-08-11T09:07:00Z</time>
      </trkpt>
      <trkpt lat="44.48663" lon="6.79905">
        <ele>1781.7</ele>
        <time>2021-08-11T09:07:04Z</time>
      </trkpt>
      <trkpt lat="44.48667" lon="6.799">
        <ele>1781.5</ele>
        <time>2021-08-11T09:07:08Z</time>
      </trkpt>
      <trkpt lat="44.4867" lon="6.79893">
        <ele>1781.3</ele>
        <time>2021-08-11T09:07:12Z</time>
      </trkpt>
      <trkpt lat="44.48672" lon="6.79887">
        <ele>1780.9</ele>
        <time>2021-08-11T09:07:16Z</time>
      </trkpt>
      <trkpt lat="44.48675" lon="6.79881">
        <ele>1780.8</ele>
        <time>2021-08-11T09:07:20Z</time>
      </trkpt>
      <trkpt lat="44.48679" lon="6.79875">
        <ele>1780.9</ele>
        <time>2021-08-11T09:07:24Z</time>
      </trkpt>
      <trkpt lat="44.48682" lon="6.79869">
        <ele>1780.7</ele>
        <time>2021-08-11T09:07:28Z</time>
      </trkpt>
      <trkpt lat="44.48686" lon="6.79864">
        <ele>1781</ele>
        <time>2021-08-11T09:07:32Z</time>
      </trkpt>
      <trkpt lat="44.48691" lon="6.79859">
        <ele>1781.5</ele>
        <time>2021-08-11T09:07:36Z</time>
      </trkpt>
      <trkpt lat="44.48695" lon="6.79854">
        <ele>1781.7</ele>
        <time>2021-08-11T09:07:40Z</time>
      </trkpt>
      <trkpt lat="44.487" lon="6.79849">
        <ele>1782.1</ele>
        <time>2021-08-11T09:07:44Z</time>
      </trkpt>
      <trkpt lat="44.48704" lon="6.79845">
        <ele>1782.5</ele>
        <time>2021-08-11T09:07:48Z</time>
      </trkpt>
      <trkpt lat="44.48709" lon="6.7984">
        <ele>1782.9</ele>
        <time>2021-08-11T09:07:52Z</time>
      </trkpt>
      <trkpt lat="44.48713" lon="6.79835">
        <ele>1783</ele>
        <time>2021-08-11T09:07:56Z</time>
      </trkpt>
      <trkpt lat="44.48716" lon="6.79831">
        <ele>1783.2</ele>
        <time>2021-08-11T09:08:00Z</time>
      </trkpt>
      <trkpt lat="44.4872" lon="6.79826">
        <ele>1783.7</ele>
        <time>2021-08-11T09:08:04Z</time>
      </trkpt>
      <trkpt lat="44.48724" lon="6.79823">
        <ele>1784.4</ele>
        <time>2021-08-11T09:08:08Z</time>
      </trkpt>
      <trkpt lat="44.48728" lon="6.79821">
        <ele>1785.3</ele>
        <time>2021-08-11T09:08:12Z</time>
      </trkpt>
      <trkpt lat="44.48733" lon="6.7982">
        <ele>1786.5</ele>
        <time>2021-08-11T09:08:16Z</time>
      </trkpt>
      <trkpt lat="44.48737" lon="6.7982">
        <ele>1787.6</ele>
        <time>2021-08-11T09:08:20Z</time>
      </trkpt>
      <trkpt lat="44.48741" lon="6.79821">
        <ele>1788.7</ele>
        <time>2021-08-11T09:08:24Z</time>
      </trkpt>
      <trkpt lat="44.48747" lon="6.79823">
        <ele>1790.5</ele>
        <time>2021-08-11T09:08:28Z</time>
      </trkpt>
      <trkpt lat="44.48752" lon="6.79825">
        <ele>1792.1</ele>
        <time>2021-08-11T09:08:32Z</time>
      </trkpt>
      <trkpt lat="44.48757" lon="6.79826">
        <ele>1794</ele>
        <time>2021-08-11T09:08:36Z</time>
      </trkpt>
      <trkpt lat="44.48763" lon="6.79826">
        <ele>1796.2</ele>
        <time>2021-08-11T09:08:40Z</time>
      </trkpt>
      <trkpt lat="44.48768" lon="6.79826">
        <ele>1798</ele>
        <time>2021-08-11T09:08:44Z</time>
      </trkpt>
      <trkpt lat="44.48773" lon="6.79826">
        <ele>1799.8</ele>
        <time>2021-08-11T09:08:48Z</time>
      </trkpt>
      <trkpt lat="44.48778" lon="6.79828">
        <ele>1801.7</ele>
        <time>2021-08-11T09:08:52Z</time>
      </trkpt>
      <trkpt lat="44.48782" lon="6.79831">
        <ele>1803.4</ele>
        <time>2021-08-11T09:08:56Z</time>
      </trkpt>
      <trkpt lat="44.48786" lon="6.79833">
        <ele>1804.9</ele>
        <time>2021-08-11T09:09:00Z</time>
      </trkpt>
      <trkpt lat="44.48792" lon="6.79833">
        <ele>1807.1</ele>
        <time>2021-08-11T09:09:04Z</time>
      </trkpt>
      <trkpt lat="44.48795" lon="6.79826">
        <ele>1807.7</ele>
        <time>2021-08-11T09:09:08Z</time>
      </trkpt>
      <trkpt lat="44.48797" lon="6.79821">
        <ele>1808.1</ele>
        <time>2021-08-11T09:09:12Z</time>
      </trkpt>
      <trkpt lat="44.488" lon="6.79817">
        <ele>1808.9</ele>
        <time>2021-08-11T09:09:16Z</time>
      </trkpt>
      <trkpt lat="44.48803" lon="6.79812">
        <ele>1809.7</ele>
        <time>2021-08-11T09:09:20Z</time>
      </trkpt>
      <trkpt lat="44.48806" lon="6.79807">
        <ele>1810.5</ele>
        <time>2021-08-11T09:09:24Z</time>
      </trkpt>
      <trkpt lat="44.4881" lon="6.79804">
        <ele>1811.7</ele>
        <time>2021-08-11T09:09:28Z</time>
      </trkpt>
      <trkpt lat="44.48814" lon="6.798">
        <ele>1812.9</ele>
        <time>2021-08-11T09:09:32Z</time>
      </trkpt>
      <trkpt lat="44.48818" lon="6.79796">
        <ele>1814.2</ele>
        <time>2021-08-11T09:09:36Z</time>
      </trkpt>
      <trkpt lat="44.48822" lon="6.79794">
        <ele>1815.5</ele>
        <time>2021-08-11T09:09:40Z</time>
      </trkpt>
      <trkpt lat="44.48827" lon="6.79793">
        <ele>1817.3</ele>
        <time>2021-08-11T09:09:44Z</time>
      </trkpt>
      <trkpt lat="44.48833" lon="6.79792">
        <ele>1819.4</ele>
        <time>2021-08-11T09:09:48Z</time>
      </trkpt>
      <trkpt lat="44.48837" lon="6.79789">
        <ele>1820.8</ele>
        <time>2021-08-11T09:09:52Z</time>
      </trkpt>
      <trkpt lat="44.48842" lon="6.79785">
        <ele>1822.6</ele>
        <time>2021-08-11T09:09:56Z</time>
      </trkpt>
      <trkpt lat="44.48847" lon="6.79782">
        <ele>1824.4</ele>
        <time>2021-08-11T09:10:00Z</time>
      </trkpt>
      <trkpt lat="44.48852" lon="6.7978">
        <ele>1826.3</ele>
        <time>2021-08-11T09:10:04Z</time>
      </trkpt>
      <trkpt lat="44.48858" lon="6.79778">
        <ele>1828.5</ele>
        <time>2021-08-11T09:10:08Z</time>
      </trkpt>
      <trkpt lat="44.48863" lon="6.79774">
        <ele>1830.2</ele>
        <time>2021-08-11T09:10:12Z</time>
      </trkpt>
      <trkpt lat="44.48864" lon="6.79768">
        <ele>1830.2</ele>
        <time>2021-08-11T09:10:16Z</time>
      </trkpt>
      <trkpt lat="44.48862" lon="6.79762">
        <ele>1828.9</ele>
        <time>2021-08-11T09:10:20Z</time>
      </trkpt>
      <trkpt lat="44.48857" lon="6.79757">
        <ele>1826.6</ele>
        <time>2021-08-11T09:10:24Z</time>
      </trkpt>
      <trkpt lat="44.48852" lon="6.79754">
        <ele>1824.5</ele>
        <time>2021-08-11T09:10:28Z</time>
      </trkpt>
      <trkpt lat="44.48847" lon="6.79752">
        <ele>1822.4</ele>
        <time>2021-08-11T09:10:32Z</time>
      </trkpt>
      <trkpt lat="44.48841" lon="6.79749">
        <ele>1820.2</ele>
        <time>2021-08-11T09:10:36Z</time>
      </trkpt>
      <trkpt lat="44.48837" lon="6.79745">
        <ele>1819.9</ele>
        <time>2021-08-11T09:10:40Z</time>
      </trkpt>
      <trkpt lat="44.48833" lon="6.79743">
        <ele>1818.9</ele>
        <time>2021-08-11T09:10:44Z</time>
      </trkpt>
      <trkpt lat="44.4883" lon="6.79741">
        <ele>1818.3</ele>
        <time>2021-08-11T09:10:48Z</time>
      </trkpt>
      <trkpt lat="44.48826" lon="6.79737">
        <ele>1817.9</ele>
        <time>2021-08-11T09:10:52Z</time>
      </trkpt>
      <trkpt lat="44.48823" lon="6.79733">
        <ele>1817.8</ele>
        <time>2021-08-11T09:10:56Z</time>
      </trkpt>
      <trkpt lat="44.48821" lon="6.79728">
        <ele>1818.4</ele>
        <time>2021-08-11T09:11:00Z</time>
      </trkpt>
      <trkpt lat="44.48817" lon="6.79724">
        <ele>1817.8</ele>
        <time>2021-08-11T09:11:04Z</time>
      </trkpt>
      <trkpt lat="44.48812" lon="6.7972">
        <ele>1816.8</ele>
        <time>2021-08-11T09:11:08Z</time>
      </trkpt>
      <trkpt lat="44.48807" lon="6.79718">
        <ele>1815.2</ele>
        <time>2021-08-11T09:11:12Z</time>
      </trkpt>
      <trkpt lat="44.48804" lon="6.79713">
        <ele>1815.2</ele>
        <time>2021-08-11T09:11:16Z</time>
      </trkpt>
      <trkpt lat="44.48802" lon="6.79706">
        <ele>1816</ele>
        <time>2021-08-11T09:11:20Z</time>
      </trkpt>
      <trkpt lat="44.488" lon="6.79699">
        <ele>1816.8</ele>
        <time>2021-08-11T09:11:24Z</time>
      </trkpt>
      <trkpt lat="44.48798" lon="6.79691">
        <ele>1817.8</ele>
        <time>2021-08-11T09:11:28Z</time>
      </trkpt>
      <trkpt lat="44.48797" lon="6.79678">
        <ele>1820.5</ele>
        <time>2021-08-11T09:11:32Z</time>
      </trkpt>
      <trkpt lat="44.48796" lon="6.79664">
        <ele>1823.1</ele>
        <time>2021-08-11T09:11:36Z</time>
      </trkpt>
      <trkpt lat="44.48796" lon="6.79648">
        <ele>1826.1</ele>
        <time>2021-08-11T09:11:40Z</time>
      </trkpt>
      <trkpt lat="44.48796" lon="6.79635">
        <ele>1828.5</ele>
        <time>2021-08-11T09:11:44Z</time>
      </trkpt>
      <trkpt lat="44.48795" lon="6.79622">
        <ele>1830.4</ele>
        <time>2021-08-11T09:11:48Z</time>
      </trkpt>
      <trkpt lat="44.48792" lon="6.796">
        <ele>1833.1</ele>
        <time>2021-08-11T09:11:52Z</time>
      </trkpt>
      <trkpt lat="44.48785" lon="6.79589">
        <ele>1831.7</ele>
        <time>2021-08-11T09:11:56Z</time>
      </trkpt>
      <trkpt lat="44.4878" lon="6.79584">
        <ele>1830.3</ele>
        <time>2021-08-11T09:12:00Z</time>
      </trkpt>
      <trkpt lat="44.48775" lon="6.79574">
        <ele>1828.8</ele>
        <time>2021-08-11T09:12:04Z</time>
      </trkpt>
      <trkpt lat="44.48768" lon="6.79567">
        <ele>1826.1</ele>
        <time>2021-08-11T09:12:08Z</time>
      </trkpt>
      <trkpt lat="44.48762" lon="6.79563">
        <ele>1823.7</ele>
        <time>2021-08-11T09:12:12Z</time>
      </trkpt>
      <trkpt lat="44.48757" lon="6.79559">
        <ele>1821.8</ele>
        <time>2021-08-11T09:12:16Z</time>
      </trkpt>
      <trkpt lat="44.48752" lon="6.79554">
        <ele>1820.1</ele>
        <time>2021-08-11T09:12:20Z</time>
      </trkpt>
      <trkpt lat="44.48749" lon="6.79547">
        <ele>1819.6</ele>
        <time>2021-08-11T09:12:24Z</time>
      </trkpt>
      <trkpt lat="44.48747" lon="6.7954">
        <ele>1819.7</ele>
        <time>2021-08-11T09:12:28Z</time>
      </trkpt>
      <trkpt lat="44.48747" lon="6.79532">
        <ele>1820.6</ele>
        <time>2021-08-11T09:12:32Z</time>
      </trkpt>
      <trkpt lat="44.48747" lon="6.79524">
        <ele>1821.4</ele>
        <time>2021-08-11T09:12:36Z</time>
      </trkpt>
      <trkpt lat="44.48748" lon="6.79516">
        <ele>1822.6</ele>
        <time>2021-08-11T09:12:40Z</time>
      </trkpt>
      <trkpt lat="44.48746" lon="6.79508">
        <ele>1822.8</ele>
        <time>2021-08-11T09:12:44Z</time>
      </trkpt>
      <trkpt lat="44.48742" lon="6.79503">
        <ele>1821.9</ele>
        <time>2021-08-11T09:12:48Z</time>
      </trkpt>
      <trkpt lat="44.48738" lon="6.79499">
        <ele>1820.8</ele>
        <time>2021-08-11T09:12:52Z</time>
      </trkpt>
      <trkpt lat="44.48733" lon="6.79495">
        <ele>1818.8</ele>
        <time>2021-08-11T09:12:56Z</time>
      </trkpt>
      <trkpt lat="44.48728" lon="6.7949">
        <ele>1816.7</ele>
        <time>2021-08-11T09:13:00Z</time>
      </trkpt>
      <trkpt lat="44.48724" lon="6.79485">
        <ele>1815</ele>
        <time>2021-08-11T09:13:04Z</time>
      </trkpt>
      <trkpt lat="44.48721" lon="6.7948">
        <ele>1813.5</ele>
        <time>2021-08-11T09:13:08Z</time>
      </trkpt>
      <trkpt lat="44.48717" lon="6.79476">
        <ele>1811.7</ele>
        <time>2021-08-11T09:13:12Z</time>
      </trkpt>
      <trkpt lat="44.48716" lon="6.79471">
        <ele>1811</ele>
        <time>2021-08-11T09:13:16Z</time>
      </trkpt>
      <trkpt lat="44.48717" lon="6.79465">
        <ele>1810.9</ele>
        <time>2021-08-11T09:13:20Z</time>
      </trkpt>
      <trkpt lat="44.48724" lon="6.7946">
        <ele>1813.3</ele>
        <time>2021-08-11T09:13:24Z</time>
      </trkpt>
      <trkpt lat="44.48731" lon="6.79455">
        <ele>1815.8</ele>
        <time>2021-08-11T09:13:28Z</time>
      </trkpt>
      <trkpt lat="44.48736" lon="6.7945">
        <ele>1817.5</ele>
        <time>2021-08-11T09:13:32Z</time>
      </trkpt>
      <trkpt lat="44.48742" lon="6.79444">
        <ele>1819.7</ele>
        <time>2021-08-11T09:13:36Z</time>
      </trkpt>
      <trkpt lat="44.48747" lon="6.79438">
        <ele>1821.5</ele>
        <time>2021-08-11T09:13:40Z</time>
      </trkpt>
      <trkpt lat="44.4875" lon="6.79429">
        <ele>1822.4</ele>
        <time>2021-08-11T09:13:44Z</time>
      </trkpt>
      <trkpt lat="44.48754" lon="6.7942">
        <ele>1823.8</ele>
        <time>2021-08-11T09:13:48Z</time>
      </trkpt>
      <trkpt lat="44.48757" lon="6.79411">
        <ele>1824.6</ele>
        <time>2021-08-11T09:13:52Z</time>
      </trkpt>
      <trkpt lat="44.48759" lon="6.79402">
        <ele>1824.7</ele>
        <time>2021-08-11T09:13:56Z</time>
      </trkpt>
      <trkpt lat="44.4876" lon="6.79393">
        <ele>1824.4</ele>
        <time>2021-08-11T09:14:00Z</time>
      </trkpt>
      <trkpt lat="44.4876" lon="6.79385">
        <ele>1823.8</ele>
        <time>2021-08-11T09:14:04Z</time>
      </trkpt>
      <trkpt lat="44.4876" lon="6.79374">
        <ele>1822.9</ele>
        <time>2021-08-11T09:14:08Z</time>
      </trkpt>
      <trkpt lat="44.48762" lon="6.79359">
        <ele>1822.6</ele>
        <time>2021-08-11T09:14:12Z</time>
      </trkpt>
      <trkpt lat="44.48766" lon="6.79351">
        <ele>1823.8</ele>
        <time>2021-08-11T09:14:16Z</time>
      </trkpt>
      <trkpt lat="44.48771" lon="6.79349">
        <ele>1826</ele>
        <time>2021-08-11T09:14:20Z</time>
      </trkpt>
      <trkpt lat="44.48776" lon="6.79344">
        <ele>1827.9</ele>
        <time>2021-08-11T09:14:24Z</time>
      </trkpt>
      <trkpt lat="44.4878" lon="6.79338">
        <ele>1829.4</ele>
        <time>2021-08-11T09:14:28Z</time>
      </trkpt>
      <trkpt lat="44.48783" lon="6.79334">
        <ele>1830.5</ele>
        <time>2021-08-11T09:14:32Z</time>
      </trkpt>
      <trkpt lat="44.48785" lon="6.79328">
        <ele>1832.1</ele>
        <time>2021-08-11T09:14:36Z</time>
      </trkpt>
      <trkpt lat="44.48788" lon="6.79322">
        <ele>1834.3</ele>
        <time>2021-08-11T09:14:40Z</time>
      </trkpt>
      <trkpt lat="44.48791" lon="6.79317">
        <ele>1836.4</ele>
        <time>2021-08-11T09:14:44Z</time>
      </trkpt>
      <trkpt lat="44.48794" lon="6.79314">
        <ele>1838.3</ele>
        <time>2021-08-11T09:14:48Z</time>
      </trkpt>
      <trkpt lat="44.48797" lon="6.79313">
        <ele>1840</ele>
        <time>2021-08-11T09:14:52Z</time>
      </trkpt>
      <trkpt lat="44.488" lon="6.79314">
        <ele>1841.3</ele>
        <time>2021-08-11T09:14:56Z</time>
      </trkpt>
      <trkpt lat="44.48805" lon="6.79314">
        <ele>1843.8</ele>
        <time>2021-08-11T09:15:00Z</time>
      </trkpt>
      <trkpt lat="44.48809" lon="6.79311">
        <ele>1846.3</ele>
        <time>2021-08-11T09:15:04Z</time>
      </trkpt>
      <trkpt lat="44.48808" lon="6.79304">
        <ele>1847</ele>
        <time>2021-08-11T09:15:08Z</time>
      </trkpt>
      <trkpt lat="44.48806" lon="6.79298">
        <ele>1846.9</ele>
        <time>2021-08-11T09:15:12Z</time>
      </trkpt>
      <trkpt lat="44.48804" lon="6.79291">
        <ele>1846.9</ele>
        <time>2021-08-11T09:15:16Z</time>
      </trkpt>
      <trkpt lat="44.48801" lon="6.79283">
        <ele>1846.6</ele>
        <time>2021-08-11T09:15:20Z</time>
      </trkpt>
      <trkpt lat="44.48797" lon="6.79279">
        <ele>1845</ele>
        <time>2021-08-11T09:15:24Z</time>
      </trkpt>
      <trkpt lat="44.48792" lon="6.79275">
        <ele>1842.7</ele>
        <time>2021-08-11T09:15:28Z</time>
      </trkpt>
      <trkpt lat="44.48787" lon="6.79273">
        <ele>1840.2</ele>
        <time>2021-08-11T09:15:32Z</time>
      </trkpt>
      <trkpt lat="44.48782" lon="6.7927">
        <ele>1837.7</ele>
        <time>2021-08-11T09:15:36Z</time>
      </trkpt>
      <trkpt lat="44.48778" lon="6.79265">
        <ele>1836.1</ele>
        <time>2021-08-11T09:15:40Z</time>
      </trkpt>
      <trkpt lat="44.48773" lon="6.7926">
        <ele>1833.7</ele>
        <time>2021-08-11T09:15:44Z</time>
      </trkpt>
      <trkpt lat="44.4877" lon="6.79252">
        <ele>1832.8</ele>
        <time>2021-08-11T09:15:48Z</time>
      </trkpt>
      <trkpt lat="44.48769" lon="6.79244">
        <ele>1833.5</ele>
        <time>2021-08-11T09:15:52Z</time>
      </trkpt>
      <trkpt lat="44.48769" lon="6.79237">
        <ele>1834.7</ele>
        <time>2021-08-11T09:15:56Z</time>
      </trkpt>
      <trkpt lat="44.4877" lon="6.79229">
        <ele>1836.7</ele>
        <time>2021-08-11T09:16:00Z</time>
      </trkpt>
      <trkpt lat="44.4877" lon="6.79221">
        <ele>1838.1</ele>
        <time>2021-08-11T09:16:04Z</time>
      </trkpt>
      <trkpt lat="44.48772" lon="6.79213">
        <ele>1840.6</ele>
        <time>2021-08-11T09:16:08Z</time>
      </trkpt>
      <trkpt lat="44.48772" lon="6.79206">
        <ele>1841.8</ele>
        <time>2021-08-11T09:16:12Z</time>
      </trkpt>
      <trkpt lat="44.48774" lon="6.79198">
        <ele>1844.3</ele>
        <time>2021-08-11T09:16:16Z</time>
      </trkpt>
      <trkpt lat="44.48775" lon="6.7919">
        <ele>1846.2</ele>
        <time>2021-08-11T09:16:20Z</time>
      </trkpt>
      <trkpt lat="44.48777" lon="6.79183">
        <ele>1848.5</ele>
        <time>2021-08-11T09:16:24Z</time>
      </trkpt>
      <trkpt lat="44.48778" lon="6.79175">
        <ele>1850.4</ele>
        <time>2021-08-11T09:16:28Z</time>
      </trkpt>
      <trkpt lat="44.48779" lon="6.79167">
        <ele>1852.3</ele>
        <time>2021-08-11T09:16:32Z</time>
      </trkpt>
      <trkpt lat="44.48781" lon="6.7916">
        <ele>1853.9</ele>
        <time>2021-08-11T09:16:36Z</time>
      </trkpt>
      <trkpt lat="44.48783" lon="6.79153">
        <ele>1855.5</ele>
        <time>2021-08-11T09:16:40Z</time>
      </trkpt>
      <trkpt lat="44.48786" lon="6.79146">
        <ele>1857.6</ele>
        <time>2021-08-11T09:16:44Z</time>
      </trkpt>
      <trkpt lat="44.48786" lon="6.7914">
        <ele>1858</ele>
        <time>2021-08-11T09:16:48Z</time>
      </trkpt>
      <trkpt lat="44.48786" lon="6.79135">
        <ele>1858.4</ele>
        <time>2021-08-11T09:18:32Z</time>
      </trkpt>
      <trkpt lat="44.48785" lon="6.79132">
        <ele>1858.1</ele>
        <time>2021-08-11T09:18:36Z</time>
      </trkpt>
      <trkpt lat="44.48783" lon="6.79128">
        <ele>1857.5</ele>
        <time>2021-08-11T09:18:40Z</time>
      </trkpt>
      <trkpt lat="44.48781" lon="6.79122">
        <ele>1857.1</ele>
        <time>2021-08-11T09:18:44Z</time>
      </trkpt>
      <trkpt lat="44.48778" lon="6.79119">
        <ele>1856</ele>
        <time>2021-08-11T09:18:48Z</time>
      </trkpt>
      <trkpt lat="44.48777" lon="6.79114">
        <ele>1856</ele>
        <time>2021-08-11T09:18:52Z</time>
      </trkpt>
      <trkpt lat="44.48776" lon="6.79107">
        <ele>1856.1</ele>
        <time>2021-08-11T09:18:56Z</time>
      </trkpt>
      <trkpt lat="44.48775" lon="6.79104">
        <ele>1856</ele>
        <time>2021-08-11T09:19:00Z</time>
      </trkpt>
      <trkpt lat="44.48775" lon="6.79097">
        <ele>1856.6</ele>
        <time>2021-08-11T09:19:04Z</time>
      </trkpt>
      <trkpt lat="44.48774" lon="6.7909">
        <ele>1856.9</ele>
        <time>2021-08-11T09:19:08Z</time>
      </trkpt>
      <trkpt lat="44.48776" lon="6.79078">
        <ele>1859.3</ele>
        <time>2021-08-11T09:19:12Z</time>
      </trkpt>
      <trkpt lat="44.48777" lon="6.79069">
        <ele>1861.4</ele>
        <time>2021-08-11T09:19:16Z</time>
      </trkpt>
      <trkpt lat="44.48777" lon="6.79061">
        <ele>1862.9</ele>
        <time>2021-08-11T09:19:20Z</time>
      </trkpt>
      <trkpt lat="44.48777" lon="6.79051">
        <ele>1864.8</ele>
        <time>2021-08-11T09:19:24Z</time>
      </trkpt>
      <trkpt lat="44.4878" lon="6.79041">
        <ele>1867.6</ele>
        <time>2021-08-11T09:19:28Z</time>
      </trkpt>
      <trkpt lat="44.48782" lon="6.79036">
        <ele>1869.1</ele>
        <time>2021-08-11T09:19:32Z</time>
      </trkpt>
      <trkpt lat="44.48784" lon="6.79031">
        <ele>1870.6</ele>
        <time>2021-08-11T09:19:36Z</time>
      </trkpt>
      <trkpt lat="44.48785" lon="6.79027">
        <ele>1871.5</ele>
        <time>2021-08-11T09:19:40Z</time>
      </trkpt>
      <trkpt lat="44.48785" lon="6.79024">
        <ele>1872</ele>
        <time>2021-08-11T09:19:44Z</time>
      </trkpt>
      <trkpt lat="44.48785" lon="6.79021">
        <ele>1872.5</ele>
        <time>2021-08-11T09:19:48Z</time>
      </trkpt>
      <trkpt lat="44.48783" lon="6.79021">
        <ele>1872</ele>
        <time>2021-08-11T09:19:52Z</time>
      </trkpt>
      <trkpt lat="44.48781" lon="6.79022">
        <ele>1871.4</ele>
        <time>2021-08-11T09:20:00Z</time>
      </trkpt>
      <trkpt lat="44.48778" lon="6.79026">
        <ele>1869.8</ele>
        <time>2021-08-11T09:20:04Z</time>
      </trkpt>
      <trkpt lat="44.48775" lon="6.79027">
        <ele>1868.9</ele>
        <time>2021-08-11T09:20:12Z</time>
      </trkpt>
      <trkpt lat="44.48774" lon="6.79028">
        <ele>1868.4</ele>
        <time>2021-08-11T09:20:16Z</time>
      </trkpt>
      <trkpt lat="44.4877" lon="6.7903">
        <ele>1866.9</ele>
        <time>2021-08-11T09:20:20Z</time>
      </trkpt>
      <trkpt lat="44.48765" lon="6.79028">
        <ele>1866</ele>
        <time>2021-08-11T09:20:24Z</time>
      </trkpt>
      <trkpt lat="44.4876" lon="6.79028">
        <ele>1864.6</ele>
        <time>2021-08-11T09:20:32Z</time>
      </trkpt>
      <trkpt lat="44.48757" lon="6.79028">
        <ele>1863.8</ele>
        <time>2021-08-11T09:20:36Z</time>
      </trkpt>
      <trkpt lat="44.48752" lon="6.79028">
        <ele>1862.5</ele>
        <time>2021-08-11T09:20:48Z</time>
      </trkpt>
      <trkpt lat="44.48747" lon="6.79026">
        <ele>1863</ele>
        <time>2021-08-11T09:20:52Z</time>
      </trkpt>
      <trkpt lat="44.48745" lon="6.79025">
        <ele>1863.6</ele>
        <time>2021-08-11T09:21:00Z</time>
      </trkpt>
      <trkpt lat="44.48742" lon="6.79026">
        <ele>1863.9</ele>
        <time>2021-08-11T09:21:04Z</time>
      </trkpt>
      <trkpt lat="44.48739" lon="6.79026">
        <ele>1864.4</ele>
        <time>2021-08-11T09:21:08Z</time>
      </trkpt>
      <trkpt lat="44.48735" lon="6.79026">
        <ele>1865.1</ele>
        <time>2021-08-11T09:21:12Z</time>
      </trkpt>
      <trkpt lat="44.48727" lon="6.79021">
        <ele>1868</ele>
        <time>2021-08-11T09:21:16Z</time>
      </trkpt>
      <trkpt lat="44.48722" lon="6.79021">
        <ele>1869</ele>
        <time>2021-08-11T09:21:20Z</time>
      </trkpt>
      <trkpt lat="44.48718" lon="6.79021">
        <ele>1869.7</ele>
        <time>2021-08-11T09:21:24Z</time>
      </trkpt>
      <trkpt lat="44.48715" lon="6.79021">
        <ele>1870.3</ele>
        <time>2021-08-11T09:21:28Z</time>
      </trkpt>
      <trkpt lat="44.48712" lon="6.79021">
        <ele>1870.9</ele>
        <time>2021-08-11T09:21:32Z</time>
      </trkpt>
      <trkpt lat="44.48709" lon="6.7902">
        <ele>1871.8</ele>
        <time>2021-08-11T09:21:36Z</time>
      </trkpt>
      <trkpt lat="44.48708" lon="6.79021">
        <ele>1871.6</ele>
        <time>2021-08-11T09:21:40Z</time>
      </trkpt>
      <trkpt lat="44.48703" lon="6.79022">
        <ele>1872.2</ele>
        <time>2021-08-11T09:21:44Z</time>
      </trkpt>
      <trkpt lat="44.48699" lon="6.79022">
        <ele>1872.9</ele>
        <time>2021-08-11T09:22:04Z</time>
      </trkpt>
      <trkpt lat="44.48695" lon="6.79023">
        <ele>1873.3</ele>
        <time>2021-08-11T09:22:08Z</time>
      </trkpt>
      <trkpt lat="44.48692" lon="6.79023">
        <ele>1873.9</ele>
        <time>2021-08-11T09:22:12Z</time>
      </trkpt>
      <trkpt lat="44.48689" lon="6.79024">
        <ele>1874</ele>
        <time>2021-08-11T09:22:16Z</time>
      </trkpt>
      <trkpt lat="44.48686" lon="6.79024">
        <ele>1874.6</ele>
        <time>2021-08-11T09:22:20Z</time>
      </trkpt>
      <trkpt lat="44.48683" lon="6.79024">
        <ele>1875.1</ele>
        <time>2021-08-11T09:22:24Z</time>
      </trkpt>
      <trkpt lat="44.48681" lon="6.79022">
        <ele>1876.3</ele>
        <time>2021-08-11T09:22:28Z</time>
      </trkpt>
      <trkpt lat="44.48677" lon="6.7902">
        <ele>1877.9</ele>
        <time>2021-08-11T09:22:32Z</time>
      </trkpt>
      <trkpt lat="44.48675" lon="6.79018">
        <ele>1879.2</ele>
        <time>2021-08-11T09:22:36Z</time>
      </trkpt>
      <trkpt lat="44.48673" lon="6.79015">
        <ele>1880.9</ele>
        <time>2021-08-11T09:22:40Z</time>
      </trkpt>
      <trkpt lat="44.48669" lon="6.79014">
        <ele>1882.1</ele>
        <time>2021-08-11T09:22:48Z</time>
      </trkpt>
      <trkpt lat="44.48667" lon="6.79014">
        <ele>1882.5</ele>
        <time>2021-08-11T09:22:52Z</time>
      </trkpt>
      <trkpt lat="44.48665" lon="6.79013">
        <ele>1883.1</ele>
        <time>2021-08-11T09:22:56Z</time>
      </trkpt>
      <trkpt lat="44.48662" lon="6.79013">
        <ele>1883.1</ele>
        <time>2021-08-11T09:23:00Z</time>
      </trkpt>
      <trkpt lat="44.48659" lon="6.79013">
        <ele>1883.1</ele>
        <time>2021-08-11T09:23:04Z</time>
      </trkpt>
      <trkpt lat="44.48656" lon="6.79013">
        <ele>1883.1</ele>
        <time>2021-08-11T09:23:08Z</time>
      </trkpt>
      <trkpt lat="44.48653" lon="6.79014">
        <ele>1882.7</ele>
        <time>2021-08-11T09:23:12Z</time>
      </trkpt>
      <trkpt lat="44.48653" lon="6.79016">
        <ele>1881.8</ele>
        <time>2021-08-11T09:23:16Z</time>
      </trkpt>
      <trkpt lat="44.48651" lon="6.79018">
        <ele>1881</ele>
        <time>2021-08-11T09:23:20Z</time>
      </trkpt>
      <trkpt lat="44.48648" lon="6.79018">
        <ele>1881</ele>
        <time>2021-08-11T09:23:24Z</time>
      </trkpt>
      <trkpt lat="44.48645" lon="6.79019">
        <ele>1880.6</ele>
        <time>2021-08-11T09:23:28Z</time>
      </trkpt>
      <trkpt lat="44.48644" lon="6.7902">
        <ele>1880.2</ele>
        <time>2021-08-11T09:23:36Z</time>
      </trkpt>
      <trkpt lat="44.48642" lon="6.79023">
        <ele>1879.1</ele>
        <time>2021-08-11T09:23:40Z</time>
      </trkpt>
      <trkpt lat="44.4864" lon="6.79026">
        <ele>1877.9</ele>
        <time>2021-08-11T09:23:44Z</time>
      </trkpt>
      <trkpt lat="44.48638" lon="6.79029">
        <ele>1876.8</ele>
        <time>2021-08-11T09:23:48Z</time>
      </trkpt>
      <trkpt lat="44.48635" lon="6.79033">
        <ele>1875.3</ele>
        <time>2021-08-11T09:23:52Z</time>
      </trkpt>
      <trkpt lat="44.48633" lon="6.79036">
        <ele>1874.2</ele>
        <time>2021-08-11T09:23:56Z</time>
      </trkpt>
      <trkpt lat="44.4863" lon="6.79039">
        <ele>1873.2</ele>
        <time>2021-08-11T09:24:04Z</time>
      </trkpt>
      <trkpt lat="44.48628" lon="6.7904">
        <ele>1873</ele>
        <time>2021-08-11T09:24:08Z</time>
      </trkpt>
      <trkpt lat="44.48625" lon="6.79043">
        <ele>1872</ele>
        <time>2021-08-11T09:24:12Z</time>
      </trkpt>
      <trkpt lat="44.48622" lon="6.79047">
        <ele>1870.7</ele>
        <time>2021-08-11T09:24:16Z</time>
      </trkpt>
      <trkpt lat="44.48616" lon="6.79046">
        <ele>1871.5</ele>
        <time>2021-08-11T09:24:20Z</time>
      </trkpt>
      <trkpt lat="44.48613" lon="6.79041">
        <ele>1873.5</ele>
        <time>2021-08-11T09:24:24Z</time>
      </trkpt>
      <trkpt lat="44.48607" lon="6.79033">
        <ele>1876.5</ele>
        <time>2021-08-11T09:24:28Z</time>
      </trkpt>
      <trkpt lat="44.48601" lon="6.79023">
        <ele>1880</ele>
        <time>2021-08-11T09:24:32Z</time>
      </trkpt>
      <trkpt lat="44.48598" lon="6.79015">
        <ele>1882.6</ele>
        <time>2021-08-11T09:24:36Z</time>
      </trkpt>
      <trkpt lat="44.48588" lon="6.79003">
        <ele>1886.2</ele>
        <time>2021-08-11T09:24:40Z</time>
      </trkpt>
      <trkpt lat="44.48584" lon="6.78994">
        <ele>1889.5</ele>
        <time>2021-08-11T09:24:44Z</time>
      </trkpt>
      <trkpt lat="44.48579" lon="6.78991">
        <ele>1890.8</ele>
        <time>2021-08-11T09:24:48Z</time>
      </trkpt>
      <trkpt lat="44.48574" lon="6.78994">
        <ele>1889.6</ele>
        <time>2021-08-11T09:24:52Z</time>
      </trkpt>
      <trkpt lat="44.4857" lon="6.78999">
        <ele>1887.6</ele>
        <time>2021-08-11T09:24:56Z</time>
      </trkpt>
      <trkpt lat="44.48565" lon="6.78998">
        <ele>1888.1</ele>
        <time>2021-08-11T09:25:04Z</time>
      </trkpt>
      <trkpt lat="44.48561" lon="6.78997">
        <ele>1888.6</ele>
        <time>2021-08-11T09:25:08Z</time>
      </trkpt>
      <trkpt lat="44.48558" lon="6.78999">
        <ele>1887.7</ele>
        <time>2021-08-11T09:25:12Z</time>
      </trkpt>
      <trkpt lat="44.48555" lon="6.79001">
        <ele>1887</ele>
        <time>2021-08-11T09:25:16Z</time>
      </trkpt>
      <trkpt lat="44.48551" lon="6.79001">
        <ele>1887.1</ele>
        <time>2021-08-11T09:25:20Z</time>
      </trkpt>
      <trkpt lat="44.48547" lon="6.79002">
        <ele>1886.8</ele>
        <time>2021-08-11T09:25:24Z</time>
      </trkpt>
      <trkpt lat="44.48542" lon="6.79">
        <ele>1887.5</ele>
        <time>2021-08-11T09:25:28Z</time>
      </trkpt>
      <trkpt lat="44.48538" lon="6.78998">
        <ele>1888.5</ele>
        <time>2021-08-11T09:25:32Z</time>
      </trkpt>
      <trkpt lat="44.48534" lon="6.78999">
        <ele>1888.1</ele>
        <time>2021-08-11T09:25:40Z</time>
      </trkpt>
      <trkpt lat="44.48529" lon="6.78999">
        <ele>1888.1</ele>
        <time>2021-08-11T09:25:44Z</time>
      </trkpt>
      <trkpt lat="44.48523" lon="6.78996">
        <ele>1889.7</ele>
        <time>2021-08-11T09:25:48Z</time>
      </trkpt>
      <trkpt lat="44.4852" lon="6.78998">
        <ele>1888.8</ele>
        <time>2021-08-11T09:25:52Z</time>
      </trkpt>
      <trkpt lat="44.48517" lon="6.79">
        <ele>1887.8</ele>
        <time>2021-08-11T09:25:56Z</time>
      </trkpt>
      <trkpt lat="44.48512" lon="6.79002">
        <ele>1887.2</ele>
        <time>2021-08-11T09:26:00Z</time>
      </trkpt>
      <trkpt lat="44.48509" lon="6.79003">
        <ele>1887</ele>
        <time>2021-08-11T09:26:04Z</time>
      </trkpt>
      <trkpt lat="44.48506" lon="6.79002">
        <ele>1887.3</ele>
        <time>2021-08-11T09:26:08Z</time>
      </trkpt>
      <trkpt lat="44.48503" lon="6.79002">
        <ele>1887.3</ele>
        <time>2021-08-11T09:26:12Z</time>
      </trkpt>
      <trkpt lat="44.48498" lon="6.79002">
        <ele>1887.8</ele>
        <time>2021-08-11T09:26:16Z</time>
      </trkpt>
      <trkpt lat="44.48495" lon="6.79003">
        <ele>1888.2</ele>
        <time>2021-08-11T09:26:20Z</time>
      </trkpt>
      <trkpt lat="44.48491" lon="6.79005">
        <ele>1888.4</ele>
        <time>2021-08-11T09:26:24Z</time>
      </trkpt>
      <trkpt lat="44.48488" lon="6.79005">
        <ele>1889.1</ele>
        <time>2021-08-11T09:26:28Z</time>
      </trkpt>
      <trkpt lat="44.48485" lon="6.79007">
        <ele>1889</ele>
        <time>2021-08-11T09:26:32Z</time>
      </trkpt>
      <trkpt lat="44.48482" lon="6.7901">
        <ele>1888.6</ele>
        <time>2021-08-11T09:26:36Z</time>
      </trkpt>
      <trkpt lat="44.48476" lon="6.79009">
        <ele>1890.2</ele>
        <time>2021-08-11T09:26:40Z</time>
      </trkpt>
      <trkpt lat="44.48473" lon="6.79011">
        <ele>1890.1</ele>
        <time>2021-08-11T09:26:44Z</time>
      </trkpt>
      <trkpt lat="44.4847" lon="6.79011">
        <ele>1890.7</ele>
        <time>2021-08-11T09:26:48Z</time>
      </trkpt>
      <trkpt lat="44.48465" lon="6.7901">
        <ele>1892.2</ele>
        <time>2021-08-11T09:26:52Z</time>
      </trkpt>
      <trkpt lat="44.48462" lon="6.79009">
        <ele>1893.2</ele>
        <time>2021-08-11T09:26:56Z</time>
      </trkpt>
      <trkpt lat="44.48458" lon="6.7901">
        <ele>1893.6</ele>
        <time>2021-08-11T09:27:00Z</time>
      </trkpt>
      <trkpt lat="44.48455" lon="6.79009">
        <ele>1894.6</ele>
        <time>2021-08-11T09:27:04Z</time>
      </trkpt>
      <trkpt lat="44.48453" lon="6.79009">
        <ele>1895.1</ele>
        <time>2021-08-11T09:27:08Z</time>
      </trkpt>
      <trkpt lat="44.48448" lon="6.79008">
        <ele>1896.5</ele>
        <time>2021-08-11T09:27:12Z</time>
      </trkpt>
      <trkpt lat="44.48445" lon="6.79008">
        <ele>1897.2</ele>
        <time>2021-08-11T09:27:16Z</time>
      </trkpt>
      <trkpt lat="44.48442" lon="6.79008">
        <ele>1897.8</ele>
        <time>2021-08-11T09:27:20Z</time>
      </trkpt>
      <trkpt lat="44.48439" lon="6.79007">
        <ele>1898.9</ele>
        <time>2021-08-11T09:27:24Z</time>
      </trkpt>
      <trkpt lat="44.48436" lon="6.79007">
        <ele>1899.5</ele>
        <time>2021-08-11T09:27:28Z</time>
      </trkpt>
      <trkpt lat="44.48432" lon="6.79006">
        <ele>1900.8</ele>
        <time>2021-08-11T09:27:32Z</time>
      </trkpt>
      <trkpt lat="44.48429" lon="6.79006">
        <ele>1901.5</ele>
        <time>2021-08-11T09:27:36Z</time>
      </trkpt>
      <trkpt lat="44.48425" lon="6.79006">
        <ele>1902.3</ele>
        <time>2021-08-11T09:27:40Z</time>
      </trkpt>
      <trkpt lat="44.48422" lon="6.79004">
        <ele>1903.9</ele>
        <time>2021-08-11T09:27:44Z</time>
      </trkpt>
      <trkpt lat="44.48418" lon="6.79003">
        <ele>1905.3</ele>
        <time>2021-08-11T09:27:52Z</time>
      </trkpt>
      <trkpt lat="44.48417" lon="6.79004">
        <ele>1905</ele>
        <time>2021-08-11T09:27:56Z</time>
      </trkpt>
      <trkpt lat="44.48412" lon="6.79002">
        <ele>1906</ele>
        <time>2021-08-11T09:28:00Z</time>
      </trkpt>
      <trkpt lat="44.48408" lon="6.79003">
        <ele>1905.5</ele>
        <time>2021-08-11T09:28:04Z</time>
      </trkpt>
      <trkpt lat="44.48404" lon="6.79003">
        <ele>1905.5</ele>
        <time>2021-08-11T09:28:08Z</time>
      </trkpt>
      <trkpt lat="44.48401" lon="6.79002">
        <ele>1905.9</ele>
        <time>2021-08-11T09:28:12Z</time>
      </trkpt>
      <trkpt lat="44.48397" lon="6.79003">
        <ele>1905.4</ele>
        <time>2021-08-11T09:28:16Z</time>
      </trkpt>
      <trkpt lat="44.48393" lon="6.79004">
        <ele>1905</ele>
        <time>2021-08-11T09:28:20Z</time>
      </trkpt>
      <trkpt lat="44.48389" lon="6.79005">
        <ele>1904.5</ele>
        <time>2021-08-11T09:28:24Z</time>
      </trkpt>
      <trkpt lat="44.48386" lon="6.79004">
        <ele>1904.9</ele>
        <time>2021-08-11T09:28:28Z</time>
      </trkpt>
      <trkpt lat="44.48383" lon="6.79003">
        <ele>1905.3</ele>
        <time>2021-08-11T09:28:32Z</time>
      </trkpt>
      <trkpt lat="44.48379" lon="6.79002">
        <ele>1905.7</ele>
        <time>2021-08-11T09:28:36Z</time>
      </trkpt>
      <trkpt lat="44.48377" lon="6.79003">
        <ele>1905.3</ele>
        <time>2021-08-11T09:28:40Z</time>
      </trkpt>
      <trkpt lat="44.48373" lon="6.79002">
        <ele>1905.7</ele>
        <time>2021-08-11T09:28:44Z</time>
      </trkpt>
      <trkpt lat="44.48369" lon="6.79">
        <ele>1906.4</ele>
        <time>2021-08-11T09:28:48Z</time>
      </trkpt>
      <trkpt lat="44.48366" lon="6.79003">
        <ele>1905.2</ele>
        <time>2021-08-11T09:28:52Z</time>
      </trkpt>
      <trkpt lat="44.48362" lon="6.79003">
        <ele>1905.2</ele>
        <time>2021-08-11T09:28:56Z</time>
      </trkpt>
      <trkpt lat="44.48358" lon="6.79003">
        <ele>1905.2</ele>
        <time>2021-08-11T09:29:00Z</time>
      </trkpt>
      <trkpt lat="44.48355" lon="6.79005">
        <ele>1904.4</ele>
        <time>2021-08-11T09:29:04Z</time>
      </trkpt>
      <trkpt lat="44.48352" lon="6.79004">
        <ele>1904.8</ele>
        <time>2021-08-11T09:29:08Z</time>
      </trkpt>
      <trkpt lat="44.48349" lon="6.79003">
        <ele>1905.1</ele>
        <time>2021-08-11T09:29:12Z</time>
      </trkpt>
      <trkpt lat="44.48346" lon="6.79004">
        <ele>1904.8</ele>
        <time>2021-08-11T09:29:16Z</time>
      </trkpt>
      <trkpt lat="44.48345" lon="6.79007">
        <ele>1903.7</ele>
        <time>2021-08-11T09:29:20Z</time>
      </trkpt>
      <trkpt lat="44.48342" lon="6.79009">
        <ele>1903</ele>
        <time>2021-08-11T09:29:24Z</time>
      </trkpt>
      <trkpt lat="44.48338" lon="6.79011">
        <ele>1902.4</ele>
        <time>2021-08-11T09:29:28Z</time>
      </trkpt>
      <trkpt lat="44.48335" lon="6.79012">
        <ele>1902.1</ele>
        <time>2021-08-11T09:29:32Z</time>
      </trkpt>
      <trkpt lat="44.48333" lon="6.79013">
        <ele>1901.6</ele>
        <time>2021-08-11T09:29:36Z</time>
      </trkpt>
      <trkpt lat="44.48328" lon="6.79015">
        <ele>1898.8</ele>
        <time>2021-08-11T09:29:48Z</time>
      </trkpt>
      <trkpt lat="44.48326" lon="6.79015">
        <ele>1897.9</ele>
        <time>2021-08-11T11:38:12Z</time>
      </trkpt>
      <trkpt lat="44.48328" lon="6.79015">
        <ele>1898.8</ele>
        <time>2021-08-11T11:42:00Z</time>
      </trkpt>
      <trkpt lat="44.48332" lon="6.79014">
        <ele>1900.9</ele>
        <time>2021-08-11T11:42:04Z</time>
      </trkpt>
      <trkpt lat="44.48338" lon="6.79011">
        <ele>1902.4</ele>
        <time>2021-08-11T11:42:08Z</time>
      </trkpt>
      <trkpt lat="44.48347" lon="6.79008">
        <ele>1903.4</ele>
        <time>2021-08-11T11:42:12Z</time>
      </trkpt>
      <trkpt lat="44.48367" lon="6.79005">
        <ele>1904.5</ele>
        <time>2021-08-11T11:42:16Z</time>
      </trkpt>
      <trkpt lat="44.48395" lon="6.79003">
        <ele>1905.4</ele>
        <time>2021-08-11T11:42:20Z</time>
      </trkpt>
      <trkpt lat="44.48429" lon="6.79003">
        <ele>1902.8</ele>
        <time>2021-08-11T11:42:24Z</time>
      </trkpt>
      <trkpt lat="44.4846" lon="6.79008">
        <ele>1894</ele>
        <time>2021-08-11T11:42:28Z</time>
      </trkpt>
      <trkpt lat="44.48493" lon="6.79">
        <ele>1889.6</ele>
        <time>2021-08-11T11:42:32Z</time>
      </trkpt>
      <trkpt lat="44.48517" lon="6.78995">
        <ele>1890.3</ele>
        <time>2021-08-11T11:42:36Z</time>
      </trkpt>
      <trkpt lat="44.48533" lon="6.78993">
        <ele>1891</ele>
        <time>2021-08-11T11:42:40Z</time>
      </trkpt>
      <trkpt lat="44.48552" lon="6.78987">
        <ele>1893.3</ele>
        <time>2021-08-11T11:42:44Z</time>
      </trkpt>
      <trkpt lat="44.48561" lon="6.78987">
        <ele>1893</ele>
        <time>2021-08-11T11:42:48Z</time>
      </trkpt>
      <trkpt lat="44.48573" lon="6.78985">
        <ele>1893.5</ele>
        <time>2021-08-11T11:42:52Z</time>
      </trkpt>
      <trkpt lat="44.48579" lon="6.78996">
        <ele>1888.7</ele>
        <time>2021-08-11T11:42:56Z</time>
      </trkpt>
      <trkpt lat="44.48589" lon="6.79004">
        <ele>1885.9</ele>
        <time>2021-08-11T11:43:00Z</time>
      </trkpt>
      <trkpt lat="44.48591" lon="6.79014">
        <ele>1882.9</ele>
        <time>2021-08-11T11:43:04Z</time>
      </trkpt>
      <trkpt lat="44.48595" lon="6.79023">
        <ele>1880.1</ele>
        <time>2021-08-11T11:43:08Z</time>
      </trkpt>
      <trkpt lat="44.48599" lon="6.79031">
        <ele>1877.5</ele>
        <time>2021-08-11T11:43:12Z</time>
      </trkpt>
      <trkpt lat="44.48603" lon="6.79038">
        <ele>1875</ele>
        <time>2021-08-11T11:43:16Z</time>
      </trkpt>
      <trkpt lat="44.48607" lon="6.79046">
        <ele>1872.1</ele>
        <time>2021-08-11T11:43:20Z</time>
      </trkpt>
      <trkpt lat="44.48615" lon="6.79043">
        <ele>1872.6</ele>
        <time>2021-08-11T11:43:24Z</time>
      </trkpt>
      <trkpt lat="44.48627" lon="6.79032">
        <ele>1876</ele>
        <time>2021-08-11T11:43:28Z</time>
      </trkpt>
      <trkpt lat="44.48646" lon="6.79023">
        <ele>1879</ele>
        <time>2021-08-11T11:43:32Z</time>
      </trkpt>
      <trkpt lat="44.48665" lon="6.79022">
        <ele>1879</ele>
        <time>2021-08-11T11:43:36Z</time>
      </trkpt>
      <trkpt lat="44.4869" lon="6.79027">
        <ele>1872.6</ele>
        <time>2021-08-11T11:43:40Z</time>
      </trkpt>
      <trkpt lat="44.48712" lon="6.79023">
        <ele>1870.2</ele>
        <time>2021-08-11T11:43:44Z</time>
      </trkpt>
      <trkpt lat="44.48731" lon="6.79024">
        <ele>1866.4</ele>
        <time>2021-08-11T11:43:48Z</time>
      </trkpt>
      <trkpt lat="44.48752" lon="6.79024">
        <ele>1863.5</ele>
        <time>2021-08-11T11:43:52Z</time>
      </trkpt>
      <trkpt lat="44.48761" lon="6.79026">
        <ele>1865.4</ele>
        <time>2021-08-11T11:43:56Z</time>
      </trkpt>
      <trkpt lat="44.48764" lon="6.79028">
        <ele>1865.7</ele>
        <time>2021-08-11T11:44:00Z</time>
      </trkpt>
      <trkpt lat="44.48773" lon="6.79025">
        <ele>1868.7</ele>
        <time>2021-08-11T11:44:04Z</time>
      </trkpt>
      <trkpt lat="44.48778" lon="6.79024">
        <ele>1870.2</ele>
        <time>2021-08-11T11:44:16Z</time>
      </trkpt>
      <trkpt lat="44.4878" lon="6.79024">
        <ele>1870.7</ele>
        <time>2021-08-11T11:44:20Z</time>
      </trkpt>
      <trkpt lat="44.48783" lon="6.79024">
        <ele>1871.5</ele>
        <time>2021-08-11T11:44:28Z</time>
      </trkpt>
      <trkpt lat="44.48783" lon="6.7903">
        <ele>1870.5</ele>
        <time>2021-08-11T11:44:32Z</time>
      </trkpt>
      <trkpt lat="44.48782" lon="6.79033">
        <ele>1869.6</ele>
        <time>2021-08-11T11:44:36Z</time>
      </trkpt>
      <trkpt lat="44.48782" lon="6.79035">
        <ele>1869.3</ele>
        <time>2021-08-11T11:44:52Z</time>
      </trkpt>
      <trkpt lat="44.48777" lon="6.79047">
        <ele>1865.6</ele>
        <time>2021-08-11T11:44:56Z</time>
      </trkpt>
      <trkpt lat="44.48775" lon="6.79067">
        <ele>1861.1</ele>
        <time>2021-08-11T11:45:00Z</time>
      </trkpt>
      <trkpt lat="44.48773" lon="6.79088">
        <ele>1856.7</ele>
        <time>2021-08-11T11:45:04Z</time>
      </trkpt>
      <trkpt lat="44.48775" lon="6.79109">
        <ele>1855.5</ele>
        <time>2021-08-11T11:45:08Z</time>
      </trkpt>
      <trkpt lat="44.48782" lon="6.7913">
        <ele>1856.9</ele>
        <time>2021-08-11T11:45:12Z</time>
      </trkpt>
      <trkpt lat="44.48783" lon="6.79139">
        <ele>1856.6</ele>
        <time>2021-08-11T11:45:16Z</time>
      </trkpt>
      <trkpt lat="44.48781" lon="6.79156">
        <ele>1854.3</ele>
        <time>2021-08-11T11:45:20Z</time>
      </trkpt>
      <trkpt lat="44.48776" lon="6.79179">
        <ele>1848.6</ele>
        <time>2021-08-11T11:45:24Z</time>
      </trkpt>
      <trkpt lat="44.48772" lon="6.79193">
        <ele>1844.1</ele>
        <time>2021-08-11T11:45:28Z</time>
      </trkpt>
      <trkpt lat="44.48772" lon="6.79193">
        <ele>1844.1</ele>
        <time>2021-08-11T11:45:36Z</time>
      </trkpt>
      <trkpt lat="44.48772" lon="6.79193">
        <ele>1844.1</ele>
        <time>2021-08-11T11:45:44Z</time>
      </trkpt>
      <trkpt lat="44.48767" lon="6.79199">
        <ele>1840.2</ele>
        <time>2021-08-11T11:45:48Z</time>
      </trkpt>
      <trkpt lat="44.48761" lon="6.79215">
        <ele>1834</ele>
        <time>2021-08-11T11:45:52Z</time>
      </trkpt>
      <trkpt lat="44.48758" lon="6.79224">
        <ele>1830.6</ele>
        <time>2021-08-11T11:45:56Z</time>
      </trkpt>
      <trkpt lat="44.48756" lon="6.79216">
        <ele>1831</ele>
        <time>2021-08-11T11:46:00Z</time>
      </trkpt>
      <trkpt lat="44.48752" lon="6.79217">
        <ele>1828.5</ele>
        <time>2021-08-11T11:46:04Z</time>
      </trkpt>
      <trkpt lat="44.48749" lon="6.79234">
        <ele>1823.7</ele>
        <time>2021-08-11T11:46:08Z</time>
      </trkpt>
      <trkpt lat="44.48743" lon="6.79249">
        <ele>1818.5</ele>
        <time>2021-08-11T11:46:12Z</time>
      </trkpt>
      <trkpt lat="44.48733" lon="6.79259">
        <ele>1813.6</ele>
        <time>2021-08-11T11:46:16Z</time>
      </trkpt>
      <trkpt lat="44.48729" lon="6.79273">
        <ele>1810.7</ele>
        <time>2021-08-11T11:46:20Z</time>
      </trkpt>
      <trkpt lat="44.48728" lon="6.79281">
        <ele>1809.5</ele>
        <time>2021-08-11T11:46:24Z</time>
      </trkpt>
      <trkpt lat="44.48737" lon="6.79297">
        <ele>1811.9</ele>
        <time>2021-08-11T11:46:28Z</time>
      </trkpt>
      <trkpt lat="44.48742" lon="6.79307">
        <ele>1813.3</ele>
        <time>2021-08-11T11:46:32Z</time>
      </trkpt>
      <trkpt lat="44.48742" lon="6.79312">
        <ele>1812.9</ele>
        <time>2021-08-11T11:46:40Z</time>
      </trkpt>
      <trkpt lat="44.4874" lon="6.79315">
        <ele>1811.7</ele>
        <time>2021-08-11T11:46:44Z</time>
      </trkpt>
      <trkpt lat="44.48738" lon="6.79317">
        <ele>1810.6</ele>
        <time>2021-08-11T11:46:48Z</time>
      </trkpt>
      <trkpt lat="44.48735" lon="6.79316">
        <ele>1809.3</ele>
        <time>2021-08-11T11:46:52Z</time>
      </trkpt>
      <trkpt lat="44.48733" lon="6.79317">
        <ele>1808.3</ele>
        <time>2021-08-11T11:47:00Z</time>
      </trkpt>
      <trkpt lat="44.48733" lon="6.79313">
        <ele>1808.7</ele>
        <time>2021-08-11T11:47:48Z</time>
      </trkpt>
      <trkpt lat="44.4873" lon="6.79314">
        <ele>1807.2</ele>
        <time>2021-08-11T11:47:52Z</time>
      </trkpt>
      <trkpt lat="44.48725" lon="6.79316">
        <ele>1804.7</ele>
        <time>2021-08-11T11:47:56Z</time>
      </trkpt>
      <trkpt lat="44.4872" lon="6.79318">
        <ele>1802.2</ele>
        <time>2021-08-11T11:48:00Z</time>
      </trkpt>
      <trkpt lat="44.48714" lon="6.79323">
        <ele>1798.9</ele>
        <time>2021-08-11T11:48:04Z</time>
      </trkpt>
      <trkpt lat="44.48709" lon="6.79333">
        <ele>1795.4</ele>
        <time>2021-08-11T11:48:08Z</time>
      </trkpt>
      <trkpt lat="44.48704" lon="6.79356">
        <ele>1795.3</ele>
        <time>2021-08-11T11:48:12Z</time>
      </trkpt>
      <trkpt lat="44.48701" lon="6.79378">
        <ele>1796.2</ele>
        <time>2021-08-11T11:48:16Z</time>
      </trkpt>
      <trkpt lat="44.48698" lon="6.79398">
        <ele>1796.9</ele>
        <time>2021-08-11T11:48:20Z</time>
      </trkpt>
      <trkpt lat="44.48696" lon="6.79406">
        <ele>1796.9</ele>
        <time>2021-08-11T11:48:28Z</time>
      </trkpt>
      <trkpt lat="44.48694" lon="6.79409">
        <ele>1796.3</ele>
        <time>2021-08-11T11:48:32Z</time>
      </trkpt>
      <trkpt lat="44.48692" lon="6.79415">
        <ele>1796.1</ele>
        <time>2021-08-11T11:48:40Z</time>
      </trkpt>
      <trkpt lat="44.48689" lon="6.79422">
        <ele>1795.5</ele>
        <time>2021-08-11T11:48:44Z</time>
      </trkpt>
      <trkpt lat="44.48684" lon="6.79429">
        <ele>1794.1</ele>
        <time>2021-08-11T11:48:48Z</time>
      </trkpt>
      <trkpt lat="44.48677" lon="6.79438">
        <ele>1792.2</ele>
        <time>2021-08-11T11:48:52Z</time>
      </trkpt>
      <trkpt lat="44.48672" lon="6.79443">
        <ele>1790.7</ele>
        <time>2021-08-11T11:48:56Z</time>
      </trkpt>
      <trkpt lat="44.48663" lon="6.7945">
        <ele>1787.8</ele>
        <time>2021-08-11T11:49:00Z</time>
      </trkpt>
      <trkpt lat="44.4866" lon="6.79453">
        <ele>1786.9</ele>
        <time>2021-08-11T11:49:04Z</time>
      </trkpt>
      <trkpt lat="44.48658" lon="6.79457">
        <ele>1786.6</ele>
        <time>2021-08-11T11:49:08Z</time>
      </trkpt>
      <trkpt lat="44.4865" lon="6.79468">
        <ele>1784.7</ele>
        <time>2021-08-11T11:49:12Z</time>
      </trkpt>
      <trkpt lat="44.48645" lon="6.79478">
        <ele>1784</ele>
        <time>2021-08-11T11:49:16Z</time>
      </trkpt>
      <trkpt lat="44.48643" lon="6.7948">
        <ele>1783.4</ele>
        <time>2021-08-11T11:49:24Z</time>
      </trkpt>
      <trkpt lat="44.48639" lon="6.79485">
        <ele>1782.5</ele>
        <time>2021-08-11T11:49:28Z</time>
      </trkpt>
      <trkpt lat="44.48634" lon="6.79492">
        <ele>1781.5</ele>
        <time>2021-08-11T11:49:32Z</time>
      </trkpt>
      <trkpt lat="44.4863" lon="6.79496">
        <ele>1780.4</ele>
        <time>2021-08-11T11:49:36Z</time>
      </trkpt>
      <trkpt lat="44.48626" lon="6.79504">
        <ele>1779.3</ele>
        <time>2021-08-11T11:49:40Z</time>
      </trkpt>
      <trkpt lat="44.48621" lon="6.79509">
        <ele>1777.2</ele>
        <time>2021-08-11T11:49:44Z</time>
      </trkpt>
      <trkpt lat="44.48617" lon="6.79516">
        <ele>1775.5</ele>
        <time>2021-08-11T11:49:48Z</time>
      </trkpt>
      <trkpt lat="44.48614" lon="6.79524">
        <ele>1774.3</ele>
        <time>2021-08-11T11:49:52Z</time>
      </trkpt>
      <trkpt lat="44.48614" lon="6.7953">
        <ele>1774.2</ele>
        <time>2021-08-11T11:49:56Z</time>
      </trkpt>
      <trkpt lat="44.48614" lon="6.79535">
        <ele>1774.2</ele>
        <time>2021-08-11T11:50:00Z</time>
      </trkpt>
      <trkpt lat="44.48615" lon="6.79541">
        <ele>1774.5</ele>
        <time>2021-08-11T11:50:04Z</time>
      </trkpt>
      <trkpt lat="44.48616" lon="6.79546">
        <ele>1774.8</ele>
        <time>2021-08-11T11:50:08Z</time>
      </trkpt>
      <trkpt lat="44.48617" lon="6.79549">
        <ele>1775.1</ele>
        <time>2021-08-11T11:50:12Z</time>
      </trkpt>
      <trkpt lat="44.48619" lon="6.79555">
        <ele>1775.8</ele>
        <time>2021-08-11T11:50:16Z</time>
      </trkpt>
      <trkpt lat="44.48619" lon="6.79562">
        <ele>1775.7</ele>
        <time>2021-08-11T11:50:20Z</time>
      </trkpt>
      <trkpt lat="44.48619" lon="6.79571">
        <ele>1775.6</ele>
        <time>2021-08-11T11:50:24Z</time>
      </trkpt>
      <trkpt lat="44.48622" lon="6.7958">
        <ele>1776.5</ele>
        <time>2021-08-11T11:50:28Z</time>
      </trkpt>
      <trkpt lat="44.48624" lon="6.79589">
        <ele>1775.7</ele>
        <time>2021-08-11T11:50:32Z</time>
      </trkpt>
      <trkpt lat="44.48619" lon="6.79594">
        <ele>1772.7</ele>
        <time>2021-08-11T11:50:36Z</time>
      </trkpt>
      <trkpt lat="44.48609" lon="6.79602">
        <ele>1767.2</ele>
        <time>2021-08-11T11:50:40Z</time>
      </trkpt>
      <trkpt lat="44.48622" lon="6.79616">
        <ele>1768.2</ele>
        <time>2021-08-11T11:50:44Z</time>
      </trkpt>
      <trkpt lat="44.48634" lon="6.79624">
        <ele>1770.4</ele>
        <time>2021-08-11T11:50:48Z</time>
      </trkpt>
      <trkpt lat="44.48643" lon="6.79629">
        <ele>1772.3</ele>
        <time>2021-08-11T11:50:52Z</time>
      </trkpt>
      <trkpt lat="44.48654" lon="6.79637">
        <ele>1774.1</ele>
        <time>2021-08-11T11:50:56Z</time>
      </trkpt>
      <trkpt lat="44.48663" lon="6.79649">
        <ele>1774.2</ele>
        <time>2021-08-11T11:51:00Z</time>
      </trkpt>
      <trkpt lat="44.48673" lon="6.7967">
        <ele>1772.6</ele>
        <time>2021-08-11T11:51:04Z</time>
      </trkpt>
      <trkpt lat="44.48677" lon="6.7968">
        <ele>1772.4</ele>
        <time>2021-08-11T11:51:08Z</time>
      </trkpt>
      <trkpt lat="44.48678" lon="6.79683">
        <ele>1772.2</ele>
        <time>2021-08-11T11:51:12Z</time>
      </trkpt>
      <trkpt lat="44.4868" lon="6.79689">
        <ele>1771.9</ele>
        <time>2021-08-11T11:51:32Z</time>
      </trkpt>
      <trkpt lat="44.4868" lon="6.79694">
        <ele>1771</ele>
        <time>2021-08-11T11:51:36Z</time>
      </trkpt>
      <trkpt lat="44.4868" lon="6.79704">
        <ele>1769.4</ele>
        <time>2021-08-11T11:51:40Z</time>
      </trkpt>
      <trkpt lat="44.4868" lon="6.7971">
        <ele>1768.4</ele>
        <time>2021-08-11T11:51:44Z</time>
      </trkpt>
      <trkpt lat="44.48677" lon="6.79711">
        <ele>1767.1</ele>
        <time>2021-08-11T11:51:48Z</time>
      </trkpt>
      <trkpt lat="44.48673" lon="6.79703">
        <ele>1767.1</ele>
        <time>2021-08-11T11:51:52Z</time>
      </trkpt>
      <trkpt lat="44.48669" lon="6.79706">
        <ele>1765.2</ele>
        <time>2021-08-11T11:51:56Z</time>
      </trkpt>
      <trkpt lat="44.48662" lon="6.79713">
        <ele>1761.8</ele>
        <time>2021-08-11T11:52:00Z</time>
      </trkpt>
      <trkpt lat="44.48659" lon="6.79715">
        <ele>1760.6</ele>
        <time>2021-08-11T11:52:04Z</time>
      </trkpt>
      <trkpt lat="44.48656" lon="6.7971">
        <ele>1760.5</ele>
        <time>2021-08-11T11:52:08Z</time>
      </trkpt>
      <trkpt lat="44.48654" lon="6.79709">
        <ele>1760</ele>
        <time>2021-08-11T11:52:12Z</time>
      </trkpt>
      <trkpt lat="44.48653" lon="6.79716">
        <ele>1758.6</ele>
        <time>2021-08-11T11:52:16Z</time>
      </trkpt>
      <trkpt lat="44.4865" lon="6.79727">
        <ele>1756.1</ele>
        <time>2021-08-11T11:52:20Z</time>
      </trkpt>
      <trkpt lat="44.48655" lon="6.79732">
        <ele>1756.7</ele>
        <time>2021-08-11T11:52:24Z</time>
      </trkpt>
      <trkpt lat="44.48661" lon="6.79741">
        <ele>1757</ele>
        <time>2021-08-11T11:52:28Z</time>
      </trkpt>
      <trkpt lat="44.48662" lon="6.79745">
        <ele>1756.6</ele>
        <time>2021-08-11T11:52:36Z</time>
      </trkpt>
      <trkpt lat="44.4866" lon="6.79749">
        <ele>1755.4</ele>
        <time>2021-08-11T11:52:44Z</time>
      </trkpt>
      <trkpt lat="44.48658" lon="6.79748">
        <ele>1755</ele>
        <time>2021-08-11T11:52:48Z</time>
      </trkpt>
      <trkpt lat="44.48654" lon="6.7975">
        <ele>1753.7</ele>
        <time>2021-08-11T11:52:52Z</time>
      </trkpt>
      <trkpt lat="44.4865" lon="6.79752">
        <ele>1753</ele>
        <time>2021-08-11T11:52:56Z</time>
      </trkpt>
      <trkpt lat="44.48647" lon="6.79754">
        <ele>1752.5</ele>
        <time>2021-08-11T11:53:00Z</time>
      </trkpt>
      <trkpt lat="44.48643" lon="6.79757">
        <ele>1752</ele>
        <time>2021-08-11T11:53:04Z</time>
      </trkpt>
      <trkpt lat="44.48641" lon="6.79762">
        <ele>1752.4</ele>
        <time>2021-08-11T11:53:08Z</time>
      </trkpt>
      <trkpt lat="44.48638" lon="6.79764">
        <ele>1752</ele>
        <time>2021-08-11T11:53:12Z</time>
      </trkpt>
      <trkpt lat="44.48635" lon="6.79766">
        <ele>1751.6</ele>
        <time>2021-08-11T11:53:16Z</time>
      </trkpt>
      <trkpt lat="44.48633" lon="6.79767">
        <ele>1751.3</ele>
        <time>2021-08-11T11:53:20Z</time>
      </trkpt>
      <trkpt lat="44.4863" lon="6.79768">
        <ele>1750.7</ele>
        <time>2021-08-11T11:53:24Z</time>
      </trkpt>
      <trkpt lat="44.48625" lon="6.7977">
        <ele>1749.8</ele>
        <time>2021-08-11T11:53:28Z</time>
      </trkpt>
      <trkpt lat="44.48619" lon="6.79775">
        <ele>1749.3</ele>
        <time>2021-08-11T11:53:32Z</time>
      </trkpt>
      <trkpt lat="44.48612" lon="6.79773">
        <ele>1747.2</ele>
        <time>2021-08-11T11:53:36Z</time>
      </trkpt>
      <trkpt lat="44.48608" lon="6.79772">
        <ele>1746</ele>
        <time>2021-08-11T11:55:20Z</time>
      </trkpt>
      <trkpt lat="44.48597" lon="6.79773">
        <ele>1743.4</ele>
        <time>2021-08-11T11:55:24Z</time>
      </trkpt>
      <trkpt lat="44.48582" lon="6.7977">
        <ele>1738.9</ele>
        <time>2021-08-11T11:55:28Z</time>
      </trkpt>
      <trkpt lat="44.48572" lon="6.79773">
        <ele>1736.3</ele>
        <time>2021-08-11T11:55:32Z</time>
      </trkpt>
      <trkpt lat="44.48559" lon="6.79783">
        <ele>1734.6</ele>
        <time>2021-08-11T11:55:36Z</time>
      </trkpt>
      <trkpt lat="44.48551" lon="6.79786">
        <ele>1732.9</ele>
        <time>2021-08-11T11:55:40Z</time>
      </trkpt>
      <trkpt lat="44.48537" lon="6.79784">
        <ele>1728</ele>
        <time>2021-08-11T11:55:44Z</time>
      </trkpt>
      <trkpt lat="44.48519" lon="6.79784">
        <ele>1722.5</ele>
        <time>2021-08-11T11:55:48Z</time>
      </trkpt>
      <trkpt lat="44.48506" lon="6.79798">
        <ele>1722.7</ele>
        <time>2021-08-11T11:55:52Z</time>
      </trkpt>
      <trkpt lat="44.48499" lon="6.79809">
        <ele>1724.2</ele>
        <time>2021-08-11T11:55:56Z</time>
      </trkpt>
      <trkpt lat="44.48495" lon="6.79812">
        <ele>1724.4</ele>
        <time>2021-08-11T11:56:00Z</time>
      </trkpt>
      <trkpt lat="44.48491" lon="6.79813">
        <ele>1724</ele>
        <time>2021-08-11T11:56:04Z</time>
      </trkpt>
      <trkpt lat="44.48487" lon="6.79815">
        <ele>1723.9</ele>
        <time>2021-08-11T11:56:08Z</time>
      </trkpt>
      <trkpt lat="44.48484" lon="6.79815">
        <ele>1723.4</ele>
        <time>2021-08-11T11:56:12Z</time>
      </trkpt>
      <trkpt lat="44.48481" lon="6.79813">
        <ele>1722.1</ele>
        <time>2021-08-11T11:56:16Z</time>
      </trkpt>
      <trkpt lat="44.48478" lon="6.79811">
        <ele>1720.9</ele>
        <time>2021-08-11T11:56:20Z</time>
      </trkpt>
      <trkpt lat="44.48475" lon="6.7981">
        <ele>1719.9</ele>
        <time>2021-08-11T11:56:28Z</time>
      </trkpt>
      <trkpt lat="44.48472" lon="6.79809">
        <ele>1719</ele>
        <time>2021-08-11T11:56:32Z</time>
      </trkpt>
      <trkpt lat="44.48468" lon="6.79808">
        <ele>1717.9</ele>
        <time>2021-08-11T11:56:36Z</time>
      </trkpt>
      <trkpt lat="44.48463" lon="6.79808">
        <ele>1716.9</ele>
        <time>2021-08-11T11:56:40Z</time>
      </trkpt>
      <trkpt lat="44.48454" lon="6.79807">
        <ele>1714.7</ele>
        <time>2021-08-11T11:56:44Z</time>
      </trkpt>
      <trkpt lat="44.4844" lon="6.79814">
        <ele>1715</ele>
        <time>2021-08-11T11:56:48Z</time>
      </trkpt>
      <trkpt lat="44.48427" lon="6.79825">
        <ele>1717.7</ele>
        <time>2021-08-11T11:56:52Z</time>
      </trkpt>
      <trkpt lat="44.48411" lon="6.79836">
        <ele>1719.4</ele>
        <time>2021-08-11T11:56:56Z</time>
      </trkpt>
      <trkpt lat="44.48398" lon="6.79831">
        <ele>1713.3</ele>
        <time>2021-08-11T11:57:00Z</time>
      </trkpt>
      <trkpt lat="44.48388" lon="6.79829">
        <ele>1709.4</ele>
        <time>2021-08-11T11:57:04Z</time>
      </trkpt>
      <trkpt lat="44.48376" lon="6.7983">
        <ele>1706.3</ele>
        <time>2021-08-11T11:57:08Z</time>
      </trkpt>
      <trkpt lat="44.48357" lon="6.79838">
        <ele>1704.2</ele>
        <time>2021-08-11T11:57:12Z</time>
      </trkpt>
      <trkpt lat="44.48345" lon="6.79835">
        <ele>1699.3</ele>
        <time>2021-08-11T11:57:16Z</time>
      </trkpt>
      <trkpt lat="44.48326" lon="6.79823">
        <ele>1690.5</ele>
        <time>2021-08-11T11:57:20Z</time>
      </trkpt>
      <trkpt lat="44.48303" lon="6.79813">
        <ele>1685.8</ele>
        <time>2021-08-11T11:57:24Z</time>
      </trkpt>
      <trkpt lat="44.48286" lon="6.79803">
        <ele>1681.9</ele>
        <time>2021-08-11T11:57:28Z</time>
      </trkpt>
      <trkpt lat="44.4827" lon="6.79794">
        <ele>1678.7</ele>
        <time>2021-08-11T11:57:32Z</time>
      </trkpt>
      <trkpt lat="44.48249" lon="6.79784">
        <ele>1675.4</ele>
        <time>2021-08-11T11:57:36Z</time>
      </trkpt>
      <trkpt lat="44.4823" lon="6.79777">
        <ele>1666.1</ele>
        <time>2021-08-11T11:57:40Z</time>
      </trkpt>
      <trkpt lat="44.48215" lon="6.79786">
        <ele>1663.1</ele>
        <time>2021-08-11T11:57:44Z</time>
      </trkpt>
      <trkpt lat="44.48207" lon="6.79793">
        <ele>1662.2</ele>
        <time>2021-08-11T11:57:48Z</time>
      </trkpt>
      <trkpt lat="44.48196" lon="6.79803">
        <ele>1661.1</ele>
        <time>2021-08-11T11:57:52Z</time>
      </trkpt>
      <trkpt lat="44.48189" lon="6.79812">
        <ele>1661.3</ele>
        <time>2021-08-11T11:57:56Z</time>
      </trkpt>
      <trkpt lat="44.48181" lon="6.79813">
        <ele>1658.7</ele>
        <time>2021-08-11T11:58:00Z</time>
      </trkpt>
      <trkpt lat="44.48167" lon="6.79826">
        <ele>1657.7</ele>
        <time>2021-08-11T11:58:04Z</time>
      </trkpt>
      <trkpt lat="44.48159" lon="6.79832">
        <ele>1656.1</ele>
        <time>2021-08-11T11:58:08Z</time>
      </trkpt>
      <trkpt lat="44.48158" lon="6.79828">
        <ele>1654.3</ele>
        <time>2021-08-11T11:58:12Z</time>
      </trkpt>
      <trkpt lat="44.48161" lon="6.7982">
        <ele>1653</ele>
        <time>2021-08-11T11:58:16Z</time>
      </trkpt>
      <trkpt lat="44.48159" lon="6.79818">
        <ele>1651.5</ele>
        <time>2021-08-11T11:58:20Z</time>
      </trkpt>
      <trkpt lat="44.48159" lon="6.79815">
        <ele>1650.5</ele>
        <time>2021-08-11T11:58:32Z</time>
      </trkpt>
      <trkpt lat="44.48151" lon="6.7982">
        <ele>1648.4</ele>
        <time>2021-08-11T11:58:36Z</time>
      </trkpt>
      <trkpt lat="44.48142" lon="6.79831">
        <ele>1648</ele>
        <time>2021-08-11T11:58:40Z</time>
      </trkpt>
      <trkpt lat="44.48139" lon="6.79845">
        <ele>1650.6</ele>
        <time>2021-08-11T11:58:44Z</time>
      </trkpt>
      <trkpt lat="44.48139" lon="6.79843">
        <ele>1650.1</ele>
        <time>2021-08-11T11:58:48Z</time>
      </trkpt>
      <trkpt lat="44.48139" lon="6.79844">
        <ele>1650.4</ele>
        <time>2021-08-11T11:59:08Z</time>
      </trkpt>
      <trkpt lat="44.48136" lon="6.79848">
        <ele>1650.1</ele>
        <time>2021-08-11T11:59:12Z</time>
      </trkpt>
      <trkpt lat="44.48137" lon="6.7985">
        <ele>1651.2</ele>
        <time>2021-08-11T11:59:28Z</time>
      </trkpt>
      <trkpt lat="44.48133" lon="6.79851">
        <ele>1649.7</ele>
        <time>2021-08-11T11:59:32Z</time>
      </trkpt>
      <trkpt lat="44.48129" lon="6.79854">
        <ele>1648.7</ele>
        <time>2021-08-11T11:59:36Z</time>
      </trkpt>
      <trkpt lat="44.48122" lon="6.79857">
        <ele>1646.5</ele>
        <time>2021-08-11T11:59:44Z</time>
      </trkpt>
      <trkpt lat="44.48116" lon="6.79862">
        <ele>1645.3</ele>
        <time>2021-08-11T11:59:48Z</time>
      </trkpt>
      <trkpt lat="44.4811" lon="6.79864">
        <ele>1643.3</ele>
        <time>2021-08-11T11:59:52Z</time>
      </trkpt>
      <trkpt lat="44.48098" lon="6.79862">
        <ele>1637.4</ele>
        <time>2021-08-11T11:59:56Z</time>
      </trkpt>
      <trkpt lat="44.48084" lon="6.79874">
        <ele>1635</ele>
        <time>2021-08-11T12:00:00Z</time>
      </trkpt>
      <trkpt lat="44.48075" lon="6.79886">
        <ele>1635.5</ele>
        <time>2021-08-11T12:00:04Z</time>
      </trkpt>
      <trkpt lat="44.48069" lon="6.79887">
        <ele>1633.8</ele>
        <time>2021-08-11T12:00:08Z</time>
      </trkpt>
      <trkpt lat="44.48064" lon="6.79893">
        <ele>1633.9</ele>
        <time>2021-08-11T12:00:12Z</time>
      </trkpt>
      <trkpt lat="44.48061" lon="6.799">
        <ele>1634.9</ele>
        <time>2021-08-11T12:00:16Z</time>
      </trkpt>
      <trkpt lat="44.4806" lon="6.79907">
        <ele>1636.7</ele>
        <time>2021-08-11T12:00:20Z</time>
      </trkpt>
      <trkpt lat="44.48061" lon="6.79918">
        <ele>1640.2</ele>
        <time>2021-08-11T12:00:24Z</time>
      </trkpt>
      <trkpt lat="44.48056" lon="6.79924">
        <ele>1639.5</ele>
        <time>2021-08-11T12:00:28Z</time>
      </trkpt>
      <trkpt lat="44.48052" lon="6.79916">
        <ele>1636.5</ele>
        <time>2021-08-11T12:00:32Z</time>
      </trkpt>
      <trkpt lat="44.48048" lon="6.79905">
        <ele>1631.8</ele>
        <time>2021-08-11T12:00:36Z</time>
      </trkpt>
      <trkpt lat="44.48046" lon="6.7989">
        <ele>1626.7</ele>
        <time>2021-08-11T12:00:40Z</time>
      </trkpt>
      <trkpt lat="44.48041" lon="6.79885">
        <ele>1623.5</ele>
        <time>2021-08-11T12:00:44Z</time>
      </trkpt>
      <trkpt lat="44.48038" lon="6.79893">
        <ele>1624.8</ele>
        <time>2021-08-11T12:00:48Z</time>
      </trkpt>
      <trkpt lat="44.48037" lon="6.79894">
        <ele>1624.7</ele>
        <time>2021-08-11T12:00:52Z</time>
      </trkpt>
      <trkpt lat="44.48033" lon="6.79895">
        <ele>1623.6</ele>
        <time>2021-08-11T12:00:56Z</time>
      </trkpt>
      <trkpt lat="44.48026" lon="6.79897">
        <ele>1621.7</ele>
        <time>2021-08-11T12:01:00Z</time>
      </trkpt>
      <trkpt lat="44.48019" lon="6.79901">
        <ele>1620.4</ele>
        <time>2021-08-11T12:01:04Z</time>
      </trkpt>
      <trkpt lat="44.48014" lon="6.79906">
        <ele>1620</ele>
        <time>2021-08-11T12:01:08Z</time>
      </trkpt>
      <trkpt lat="44.48009" lon="6.79905">
        <ele>1618</ele>
        <time>2021-08-11T12:01:12Z</time>
      </trkpt>
      <trkpt lat="44.47996" lon="6.79901">
        <ele>1612.9</ele>
        <time>2021-08-11T12:01:16Z</time>
      </trkpt>
      <trkpt lat="44.47985" lon="6.79891">
        <ele>1608.5</ele>
        <time>2021-08-11T12:01:20Z</time>
      </trkpt>
      <trkpt lat="44.47972" lon="6.79893">
        <ele>1606.9</ele>
        <time>2021-08-11T12:01:24Z</time>
      </trkpt>
      <trkpt lat="44.4797" lon="6.79893">
        <ele>1606.5</ele>
        <time>2021-08-11T12:01:28Z</time>
      </trkpt>
      <trkpt lat="44.4797" lon="6.79893">
        <ele>1606.5</ele>
        <time>2021-08-11T12:01:32Z</time>
      </trkpt>
      <trkpt lat="44.47967" lon="6.79896">
        <ele>1606.6</ele>
        <time>2021-08-11T12:01:40Z</time>
      </trkpt>
      <trkpt lat="44.47965" lon="6.79894">
        <ele>1605.9</ele>
        <time>2021-08-11T12:01:44Z</time>
      </trkpt>
      <trkpt lat="44.47963" lon="6.79896">
        <ele>1606</ele>
        <time>2021-08-11T12:01:48Z</time>
      </trkpt>
      <trkpt lat="44.47962" lon="6.79896">
        <ele>1605.8</ele>
        <time>2021-08-11T12:04:16Z</time>
      </trkpt>
      <trkpt lat="44.4796" lon="6.79898">
        <ele>1605.8</ele>
        <time>2021-08-11T12:04:20Z</time>
      </trkpt>
      <trkpt lat="44.47958" lon="6.79901">
        <ele>1606</ele>
        <time>2021-08-11T12:04:24Z</time>
      </trkpt>
      <trkpt lat="44.47955" lon="6.79904">
        <ele>1606</ele>
        <time>2021-08-11T12:04:28Z</time>
      </trkpt>
      <trkpt lat="44.47945" lon="6.79914">
        <ele>1605.7</ele>
        <time>2021-08-11T12:04:32Z</time>
      </trkpt>
      <trkpt lat="44.47931" lon="6.79928">
        <ele>1604.3</ele>
        <time>2021-08-11T12:04:36Z</time>
      </trkpt>
      <trkpt lat="44.47928" lon="6.79929">
        <ele>1603.8</ele>
        <time>2021-08-11T12:04:40Z</time>
      </trkpt>
      <trkpt lat="44.47926" lon="6.79927">
        <ele>1603.1</ele>
        <time>2021-08-11T12:04:48Z</time>
      </trkpt>
      <trkpt lat="44.47924" lon="6.79927">
        <ele>1602.7</ele>
        <time>2021-08-11T12:04:52Z</time>
      </trkpt>
      <trkpt lat="44.47925" lon="6.79924">
        <ele>1602.6</ele>
        <time>2021-08-11T12:05:12Z</time>
      </trkpt>
      <trkpt lat="44.47922" lon="6.79925">
        <ele>1602</ele>
        <time>2021-08-11T12:05:16Z</time>
      </trkpt>
      <trkpt lat="44.4792" lon="6.79925">
        <ele>1601.5</ele>
        <time>2021-08-11T12:05:20Z</time>
      </trkpt>
      <trkpt lat="44.47915" lon="6.79926">
        <ele>1600.6</ele>
        <time>2021-08-11T12:05:24Z</time>
      </trkpt>
      <trkpt lat="44.47906" lon="6.79926">
        <ele>1598.9</ele>
        <time>2021-08-11T12:05:28Z</time>
      </trkpt>
      <trkpt lat="44.47894" lon="6.79929">
        <ele>1596.9</ele>
        <time>2021-08-11T12:05:32Z</time>
      </trkpt>
      <trkpt lat="44.47883" lon="6.79938">
        <ele>1595.6</ele>
        <time>2021-08-11T12:05:36Z</time>
      </trkpt>
      <trkpt lat="44.47871" lon="6.79952">
        <ele>1594.2</ele>
        <time>2021-08-11T12:05:40Z</time>
      </trkpt>
      <trkpt lat="44.47852" lon="6.79963">
        <ele>1591.1</ele>
        <time>2021-08-11T12:05:44Z</time>
      </trkpt>
      <trkpt lat="44.47835" lon="6.79972">
        <ele>1588</ele>
        <time>2021-08-11T12:05:48Z</time>
      </trkpt>
      <trkpt lat="44.47827" lon="6.79973">
        <ele>1586</ele>
        <time>2021-08-11T12:05:52Z</time>
      </trkpt>
      <trkpt lat="44.47819" lon="6.79981">
        <ele>1584.3</ele>
        <time>2021-08-11T12:05:56Z</time>
      </trkpt>
      <trkpt lat="44.47808" lon="6.79984">
        <ele>1581.5</ele>
        <time>2021-08-11T12:06:00Z</time>
      </trkpt>
      <trkpt lat="44.47797" lon="6.79982">
        <ele>1578.5</ele>
        <time>2021-08-11T12:06:04Z</time>
      </trkpt>
      <trkpt lat="44.47782" lon="6.7998">
        <ele>1574.5</ele>
        <time>2021-08-11T12:06:08Z</time>
      </trkpt>
      <trkpt lat="44.47771" lon="6.79982">
        <ele>1571.7</ele>
        <time>2021-08-11T12:06:12Z</time>
      </trkpt>
      <trkpt lat="44.47761" lon="6.79988">
        <ele>1569.3</ele>
        <time>2021-08-11T12:06:16Z</time>
      </trkpt>
      <trkpt lat="44.47754" lon="6.79992">
        <ele>1567.7</ele>
        <time>2021-08-11T12:06:20Z</time>
      </trkpt>
      <trkpt lat="44.4775" lon="6.7999">
        <ele>1566.5</ele>
        <time>2021-08-11T12:06:24Z</time>
      </trkpt>
      <trkpt lat="44.47748" lon="6.7999">
        <ele>1566</ele>
        <time>2021-08-11T12:06:32Z</time>
      </trkpt>
      <trkpt lat="44.47745" lon="6.79994">
        <ele>1565.4</ele>
        <time>2021-08-11T12:06:52Z</time>
      </trkpt>
      <trkpt lat="44.47746" lon="6.79984">
        <ele>1565.2</ele>
        <time>2021-08-11T12:06:56Z</time>
      </trkpt>
      <trkpt lat="44.4775" lon="6.79964">
        <ele>1565.3</ele>
        <time>2021-08-11T12:07:00Z</time>
      </trkpt>
      <trkpt lat="44.47757" lon="6.79938">
        <ele>1565.9</ele>
        <time>2021-08-11T12:07:04Z</time>
      </trkpt>
      <trkpt lat="44.47754" lon="6.79905">
        <ele>1563.5</ele>
        <time>2021-08-11T12:07:08Z</time>
      </trkpt>
      <trkpt lat="44.47741" lon="6.79877">
        <ele>1558.9</ele>
        <time>2021-08-11T12:07:12Z</time>
      </trkpt>
      <trkpt lat="44.4773" lon="6.79851">
        <ele>1555</ele>
        <time>2021-08-11T12:07:16Z</time>
      </trkpt>
      <trkpt lat="44.47728" lon="6.79818">
        <ele>1552.5</ele>
        <time>2021-08-11T12:07:20Z</time>
      </trkpt>
      <trkpt lat="44.47736" lon="6.79785">
        <ele>1551.7</ele>
        <time>2021-08-11T12:07:24Z</time>
      </trkpt>
      <trkpt lat="44.47737" lon="6.79749">
        <ele>1548.9</ele>
        <time>2021-08-11T12:07:28Z</time>
      </trkpt>
      <trkpt lat="44.47739" lon="6.79715">
        <ele>1546</ele>
        <time>2021-08-11T12:07:32Z</time>
      </trkpt>
      <trkpt lat="44.47746" lon="6.79683">
        <ele>1544.5</ele>
        <time>2021-08-11T12:07:36Z</time>
      </trkpt>
      <trkpt lat="44.47747" lon="6.79649">
        <ele>1542.1</ele>
        <time>2021-08-11T12:07:40Z</time>
      </trkpt>
      <trkpt lat="44.4775" lon="6.79618">
        <ele>1541.1</ele>
        <time>2021-08-11T12:07:44Z</time>
      </trkpt>
      <trkpt lat="44.47752" lon="6.79587">
        <ele>1539.4</ele>
        <time>2021-08-11T12:07:48Z</time>
      </trkpt>
      <trkpt lat="44.47758" lon="6.79556">
        <ele>1535.3</ele>
        <time>2021-08-11T12:07:52Z</time>
      </trkpt>
      <trkpt lat="44.47771" lon="6.79529">
        <ele>1532</ele>
        <time>2021-08-11T12:07:56Z</time>
      </trkpt>
      <trkpt lat="44.4779" lon="6.79506">
        <ele>1529.8</ele>
        <time>2021-08-11T12:08:00Z</time>
      </trkpt>
      <trkpt lat="44.47813" lon="6.79488">
        <ele>1527.9</ele>
        <time>2021-08-11T12:08:04Z</time>
      </trkpt>
      <trkpt lat="44.47837" lon="6.79476">
        <ele>1526.6</ele>
        <time>2021-08-11T12:08:08Z</time>
      </trkpt>
      <trkpt lat="44.47851" lon="6.79456">
        <ele>1522.2</ele>
        <time>2021-08-11T12:08:12Z</time>
      </trkpt>
      <trkpt lat="44.47827" lon="6.79449">
        <ele>1520.5</ele>
        <time>2021-08-11T12:08:16Z</time>
      </trkpt>
      <trkpt lat="44.478" lon="6.79454">
        <ele>1519.7</ele>
        <time>2021-08-11T12:08:20Z</time>
      </trkpt>
      <trkpt lat="44.47772" lon="6.79451">
        <ele>1517</ele>
        <time>2021-08-11T12:08:24Z</time>
      </trkpt>
      <trkpt lat="44.47743" lon="6.79455">
        <ele>1515.1</ele>
        <time>2021-08-11T12:08:28Z</time>
      </trkpt>
      <trkpt lat="44.47717" lon="6.79466">
        <ele>1512.7</ele>
        <time>2021-08-11T12:08:32Z</time>
      </trkpt>
      <trkpt lat="44.4769" lon="6.79477">
        <ele>1509.8</ele>
        <time>2021-08-11T12:08:36Z</time>
      </trkpt>
      <trkpt lat="44.47666" lon="6.79491">
        <ele>1507.4</ele>
        <time>2021-08-11T12:08:40Z</time>
      </trkpt>
      <trkpt lat="44.47653" lon="6.79529">
        <ele>1507.2</ele>
        <time>2021-08-11T12:08:44Z</time>
      </trkpt>
      <trkpt lat="44.47632" lon="6.79565">
        <ele>1505.1</ele>
        <time>2021-08-11T12:08:48Z</time>
      </trkpt>
      <trkpt lat="44.47614" lon="6.79605">
        <ele>1504.9</ele>
        <time>2021-08-11T12:08:52Z</time>
      </trkpt>
      <trkpt lat="44.47595" lon="6.79603">
        <ele>1500.2</ele>
        <time>2021-08-11T12:08:56Z</time>
      </trkpt>
      <trkpt lat="44.47605" lon="6.7957">
        <ele>1498.5</ele>
        <time>2021-08-11T12:09:00Z</time>
      </trkpt>
      <trkpt lat="44.47614" lon="6.7953">
        <ele>1495.4</ele>
        <time>2021-08-11T12:09:04Z</time>
      </trkpt>
      <trkpt lat="44.47622" lon="6.79491">
        <ele>1492.6</ele>
        <time>2021-08-11T12:09:08Z</time>
      </trkpt>
      <trkpt lat="44.47633" lon="6.7945">
        <ele>1489.9</ele>
        <time>2021-08-11T12:09:12Z</time>
      </trkpt>
      <trkpt lat="44.47649" lon="6.79411">
        <ele>1488.6</ele>
        <time>2021-08-11T12:09:16Z</time>
      </trkpt>
      <trkpt lat="44.47671" lon="6.7938">
        <ele>1486.7</ele>
        <time>2021-08-11T12:09:20Z</time>
      </trkpt>
      <trkpt lat="44.47696" lon="6.79353">
        <ele>1484.8</ele>
        <time>2021-08-11T12:09:24Z</time>
      </trkpt>
      <trkpt lat="44.47721" lon="6.79328">
        <ele>1485</ele>
        <time>2021-08-11T12:09:28Z</time>
      </trkpt>
      <trkpt lat="44.47749" lon="6.79307">
        <ele>1486.8</ele>
        <time>2021-08-11T12:09:32Z</time>
      </trkpt>
      <trkpt lat="44.47781" lon="6.79289">
        <ele>1486</ele>
        <time>2021-08-11T12:09:36Z</time>
      </trkpt>
      <trkpt lat="44.4781" lon="6.79269">
        <ele>1485.7</ele>
        <time>2021-08-11T12:09:40Z</time>
      </trkpt>
      <trkpt lat="44.47833" lon="6.79242">
        <ele>1486.3</ele>
        <time>2021-08-11T12:09:44Z</time>
      </trkpt>
      <trkpt lat="44.47845" lon="6.79216">
        <ele>1494.1</ele>
        <time>2021-08-11T12:09:48Z</time>
      </trkpt>
      <trkpt lat="44.47837" lon="6.79204">
        <ele>1490.3</ele>
        <time>2021-08-11T12:09:52Z</time>
      </trkpt>
      <trkpt lat="44.47823" lon="6.79196">
        <ele>1486.5</ele>
        <time>2021-08-11T12:09:56Z</time>
      </trkpt>
      <trkpt lat="44.47811" lon="6.79176">
        <ele>1484.7</ele>
        <time>2021-08-11T12:10:00Z</time>
      </trkpt>
      <trkpt lat="44.47799" lon="6.79155">
        <ele>1482.6</ele>
        <time>2021-08-11T12:10:04Z</time>
      </trkpt>
      <trkpt lat="44.4778" lon="6.7915">
        <ele>1478.1</ele>
        <time>2021-08-11T12:10:08Z</time>
      </trkpt>
      <trkpt lat="44.47762" lon="6.79155">
        <ele>1473.7</ele>
        <time>2021-08-11T12:10:12Z</time>
      </trkpt>
      <trkpt lat="44.47743" lon="6.79156">
        <ele>1469.9</ele>
        <time>2021-08-11T12:10:16Z</time>
      </trkpt>
      <trkpt lat="44.47729" lon="6.79156">
        <ele>1467.9</ele>
        <time>2021-08-11T12:10:20Z</time>
      </trkpt>
      <trkpt lat="44.47722" lon="6.79155">
        <ele>1466.9</ele>
        <time>2021-08-11T12:10:40Z</time>
      </trkpt>
      <trkpt lat="44.4772" lon="6.79152">
        <ele>1466.6</ele>
        <time>2021-08-11T12:10:44Z</time>
      </trkpt>
      <trkpt lat="44.47721" lon="6.7915">
        <ele>1466.7</ele>
        <time>2021-08-11T12:11:32Z</time>
      </trkpt>
      <trkpt lat="44.47724" lon="6.7915">
        <ele>1467.1</ele>
        <time>2021-08-11T12:11:36Z</time>
      </trkpt>
      <trkpt lat="44.47723" lon="6.79156">
        <ele>1467</ele>
        <time>2021-08-11T12:11:52Z</time>
      </trkpt>
      <trkpt lat="44.47727" lon="6.79157">
        <ele>1467.6</ele>
        <time>2021-08-11T12:11:56Z</time>
      </trkpt>
      <trkpt lat="44.47731" lon="6.79156">
        <ele>1468.2</ele>
        <time>2021-08-11T12:12:00Z</time>
      </trkpt>
      <trkpt lat="44.47734" lon="6.79156">
        <ele>1468.6</ele>
        <time>2021-08-11T12:12:04Z</time>
      </trkpt>
      <trkpt lat="44.47739" lon="6.79157">
        <ele>1469.3</ele>
        <time>2021-08-11T12:12:08Z</time>
      </trkpt>
      <trkpt lat="44.47744" lon="6.79157">
        <ele>1470</ele>
        <time>2021-08-11T12:12:12Z</time>
      </trkpt>
      <trkpt lat="44.47747" lon="6.79157">
        <ele>1470.5</ele>
        <time>2021-08-11T12:12:16Z</time>
      </trkpt>
      <trkpt lat="44.47751" lon="6.79156">
        <ele>1471.1</ele>
        <time>2021-08-11T12:12:20Z</time>
      </trkpt>
      <trkpt lat="44.47755" lon="6.79155">
        <ele>1472.1</ele>
        <time>2021-08-11T12:12:24Z</time>
      </trkpt>
      <trkpt lat="44.4776" lon="6.79154">
        <ele>1473.3</ele>
        <time>2021-08-11T12:12:28Z</time>
      </trkpt>
      <trkpt lat="44.47766" lon="6.79153">
        <ele>1474.7</ele>
        <time>2021-08-11T12:12:32Z</time>
      </trkpt>
      <trkpt lat="44.47772" lon="6.79152">
        <ele>1476.2</ele>
        <time>2021-08-11T12:12:36Z</time>
      </trkpt>
      <trkpt lat="44.47777" lon="6.79151">
        <ele>1477.4</ele>
        <time>2021-08-11T12:12:40Z</time>
      </trkpt>
      <trkpt lat="44.47783" lon="6.7915">
        <ele>1478.9</ele>
        <time>2021-08-11T12:12:44Z</time>
      </trkpt>
      <trkpt lat="44.47788" lon="6.79149">
        <ele>1480.1</ele>
        <time>2021-08-11T12:12:48Z</time>
      </trkpt>
      <trkpt lat="44.47793" lon="6.79149">
        <ele>1481.4</ele>
        <time>2021-08-11T12:12:52Z</time>
      </trkpt>
      <trkpt lat="44.47796" lon="6.79147">
        <ele>1482.2</ele>
        <time>2021-08-11T12:12:56Z</time>
      </trkpt>
      <trkpt lat="44.47796" lon="6.79141">
        <ele>1482.4</ele>
        <time>2021-08-11T12:13:00Z</time>
      </trkpt>
      <trkpt lat="44.47795" lon="6.79136">
        <ele>1482.3</ele>
        <time>2021-08-11T12:13:04Z</time>
      </trkpt>
      <trkpt lat="44.47791" lon="6.79127">
        <ele>1481.5</ele>
        <time>2021-08-11T12:13:08Z</time>
      </trkpt>
      <trkpt lat="44.47785" lon="6.79119">
        <ele>1480.1</ele>
        <time>2021-08-11T12:13:12Z</time>
      </trkpt>
      <trkpt lat="44.47778" lon="6.79108">
        <ele>1478.3</ele>
        <time>2021-08-11T12:13:16Z</time>
      </trkpt>
      <trkpt lat="44.4777" lon="6.79099">
        <ele>1476.1</ele>
        <time>2021-08-11T12:13:20Z</time>
      </trkpt>
      <trkpt lat="44.47766" lon="6.7909">
        <ele>1475</ele>
        <time>2021-08-11T12:13:28Z</time>
      </trkpt>
      <trkpt lat="44.47765" lon="6.79084">
        <ele>1474.7</ele>
        <time>2021-08-11T12:13:32Z</time>
      </trkpt>
      <trkpt lat="44.47763" lon="6.79079">
        <ele>1473.8</ele>
        <time>2021-08-11T12:13:36Z</time>
      </trkpt>
      <trkpt lat="44.4776" lon="6.79072">
        <ele>1472.5</ele>
        <time>2021-08-11T12:13:40Z</time>
      </trkpt>
      <trkpt lat="44.4775" lon="6.79064">
        <ele>1468.6</ele>
        <time>2021-08-11T12:13:44Z</time>
      </trkpt>
      <trkpt lat="44.47746" lon="6.79051">
        <ele>1467.2</ele>
        <time>2021-08-11T12:13:48Z</time>
      </trkpt>
      <trkpt lat="44.47743" lon="6.79044">
        <ele>1466.4</ele>
        <time>2021-08-11T12:13:52Z</time>
      </trkpt>
      <trkpt lat="44.47738" lon="6.79042">
        <ele>1465.8</ele>
        <time>2021-08-11T12:13:56Z</time>
      </trkpt>
      <trkpt lat="44.47725" lon="6.7904">
        <ele>1464.4</ele>
        <time>2021-08-11T12:14:00Z</time>
      </trkpt>
      <trkpt lat="44.47716" lon="6.79028">
        <ele>1462.9</ele>
        <time>2021-08-11T12:14:04Z</time>
      </trkpt>
      <trkpt lat="44.47711" lon="6.79017">
        <ele>1461.9</ele>
        <time>2021-08-11T12:14:08Z</time>
      </trkpt>
      <trkpt lat="44.47707" lon="6.79002">
        <ele>1461</ele>
        <time>2021-08-11T12:14:12Z</time>
      </trkpt>
      <trkpt lat="44.47706" lon="6.78987">
        <ele>1460.4</ele>
        <time>2021-08-11T12:14:16Z</time>
      </trkpt>
      <trkpt lat="44.47709" lon="6.78972">
        <ele>1460.2</ele>
        <time>2021-08-11T12:14:20Z</time>
      </trkpt>
      <trkpt lat="44.47705" lon="6.78969">
        <ele>1459.7</ele>
        <time>2021-08-11T12:14:24Z</time>
      </trkpt>
      <trkpt lat="44.47705" lon="6.78967">
        <ele>1459.7</ele>
        <time>2021-08-11T12:14:28Z</time>
      </trkpt>
      <trkpt lat="44.47702" lon="6.78966">
        <ele>1459.3</ele>
        <time>2021-08-11T12:14:32Z</time>
      </trkpt>
      <trkpt lat="44.47703" lon="6.78961">
        <ele>1459.2</ele>
        <time>2021-08-11T12:14:44Z</time>
      </trkpt>
      <trkpt lat="44.477" lon="6.78952">
        <ele>1458.6</ele>
        <time>2021-08-11T12:14:48Z</time>
      </trkpt>
      <trkpt lat="44.47698" lon="6.78938">
        <ele>1457.8</ele>
        <time>2021-08-11T12:14:52Z</time>
      </trkpt>
      <trkpt lat="44.47694" lon="6.78923">
        <ele>1456.5</ele>
        <time>2021-08-11T12:14:56Z</time>
      </trkpt>
      <trkpt lat="44.47691" lon="6.78905">
        <ele>1455.8</ele>
        <time>2021-08-11T12:15:00Z</time>
      </trkpt>
      <trkpt lat="44.47688" lon="6.78888">
        <ele>1455.1</ele>
        <time>2021-08-11T12:15:04Z</time>
      </trkpt>
      <trkpt lat="44.47686" lon="6.78874">
        <ele>1454.5</ele>
        <time>2021-08-11T12:15:16Z</time>
      </trkpt>
      <trkpt lat="44.47686" lon="6.78864">
        <ele>1454.4</ele>
        <time>2021-08-11T12:15:20Z</time>
      </trkpt>
      <trkpt lat="44.47685" lon="6.78849">
        <ele>1453.9</ele>
        <time>2021-08-11T12:15:24Z</time>
      </trkpt>
      <trkpt lat="44.47681" lon="6.7883">
        <ele>1452.4</ele>
        <time>2021-08-11T12:15:28Z</time>
      </trkpt>
      <trkpt lat="44.47681" lon="6.7881">
        <ele>1451.7</ele>
        <time>2021-08-11T12:15:32Z</time>
      </trkpt>
      <trkpt lat="44.47681" lon="6.78799">
        <ele>1451.3</ele>
        <time>2021-08-11T12:15:36Z</time>
      </trkpt>
      <trkpt lat="44.47679" lon="6.78785">
        <ele>1450.1</ele>
        <time>2021-08-11T12:15:40Z</time>
      </trkpt>
      <trkpt lat="44.47677" lon="6.78766">
        <ele>1448.5</ele>
        <time>2021-08-11T12:15:44Z</time>
      </trkpt>
      <trkpt lat="44.47676" lon="6.78748">
        <ele>1447.4</ele>
        <time>2021-08-11T12:15:48Z</time>
      </trkpt>
      <trkpt lat="44.47675" lon="6.78732">
        <ele>1447.2</ele>
        <time>2021-08-11T12:15:52Z</time>
      </trkpt>
      <trkpt lat="44.47676" lon="6.78715">
        <ele>1448</ele>
        <time>2021-08-11T12:15:56Z</time>
      </trkpt>
      <trkpt lat="44.47676" lon="6.78703">
        <ele>1448.2</ele>
        <time>2021-08-11T12:16:00Z</time>
      </trkpt>
      <trkpt lat="44.47677" lon="6.78697">
        <ele>1448.9</ele>
        <time>2021-08-11T12:16:04Z</time>
      </trkpt>
      <trkpt lat="44.47676" lon="6.78694">
        <ele>1448.4</ele>
        <time>2021-08-11T12:16:08Z</time>
      </trkpt>
      <trkpt lat="44.47676" lon="6.78688">
        <ele>1448.5</ele>
        <time>2021-08-11T12:16:16Z</time>
      </trkpt>
      <trkpt lat="44.47675" lon="6.78677">
        <ele>1448</ele>
        <time>2021-08-11T12:16:20Z</time>
      </trkpt>
      <trkpt lat="44.47677" lon="6.78665">
        <ele>1449.7</ele>
        <time>2021-08-11T12:16:24Z</time>
      </trkpt>
      <trkpt lat="44.47677" lon="6.7865">
        <ele>1451.4</ele>
        <time>2021-08-11T12:16:28Z</time>
      </trkpt>
      <trkpt lat="44.47677" lon="6.78646">
        <ele>1451.9</ele>
        <time>2021-08-11T12:16:36Z</time>
      </trkpt>
      <trkpt lat="44.47677" lon="6.78637">
        <ele>1452.9</ele>
        <time>2021-08-11T12:16:40Z</time>
      </trkpt>
      <trkpt lat="44.47674" lon="6.78623">
        <ele>1451.9</ele>
        <time>2021-08-11T12:16:44Z</time>
      </trkpt>
      <trkpt lat="44.47668" lon="6.7861">
        <ele>1447.9</ele>
        <time>2021-08-11T12:16:48Z</time>
      </trkpt>
      <trkpt lat="44.47661" lon="6.78599">
        <ele>1447.7</ele>
        <time>2021-08-11T12:16:52Z</time>
      </trkpt>
      <trkpt lat="44.47657" lon="6.78585">
        <ele>1448.6</ele>
        <time>2021-08-11T12:16:56Z</time>
      </trkpt>
      <trkpt lat="44.4765" lon="6.78572">
        <ele>1448.7</ele>
        <time>2021-08-11T12:17:00Z</time>
      </trkpt>
      <trkpt lat="44.47642" lon="6.78555">
        <ele>1448.3</ele>
        <time>2021-08-11T12:17:04Z</time>
      </trkpt>
      <trkpt lat="44.47639" lon="6.78537">
        <ele>1448</ele>
        <time>2021-08-11T12:17:08Z</time>
      </trkpt>
      <trkpt lat="44.47639" lon="6.78523">
        <ele>1447.9</ele>
        <time>2021-08-11T12:17:12Z</time>
      </trkpt>
      <trkpt lat="44.47638" lon="6.78504">
        <ele>1447.6</ele>
        <time>2021-08-11T12:17:16Z</time>
      </trkpt>
      <trkpt lat="44.47636" lon="6.78481">
        <ele>1445.9</ele>
        <time>2021-08-11T12:17:20Z</time>
      </trkpt>
      <trkpt lat="44.47634" lon="6.78456">
        <ele>1443.6</ele>
        <time>2021-08-11T12:17:24Z</time>
      </trkpt>
      <trkpt lat="44.47633" lon="6.78446">
        <ele>1442.5</ele>
        <time>2021-08-11T12:17:28Z</time>
      </trkpt>
      <trkpt lat="44.47632" lon="6.78442">
        <ele>1441.9</ele>
        <time>2021-08-11T12:17:32Z</time>
      </trkpt>
      <trkpt lat="44.4763" lon="6.78437">
        <ele>1440.9</ele>
        <time>2021-08-11T12:17:36Z</time>
      </trkpt>
      <trkpt lat="44.47628" lon="6.78427">
        <ele>1439.5</ele>
        <time>2021-08-11T12:17:40Z</time>
      </trkpt>
      <trkpt lat="44.47628" lon="6.78417">
        <ele>1438.5</ele>
        <time>2021-08-11T12:17:44Z</time>
      </trkpt>
      <trkpt lat="44.47627" lon="6.78412">
        <ele>1438.2</ele>
        <time>2021-08-11T12:17:48Z</time>
      </trkpt>
      <trkpt lat="44.47626" lon="6.78406">
        <ele>1437.8</ele>
        <time>2021-08-11T12:17:52Z</time>
      </trkpt>
      <trkpt lat="44.47627" lon="6.78395">
        <ele>1438.2</ele>
        <time>2021-08-11T12:17:56Z</time>
      </trkpt>
      <trkpt lat="44.47626" lon="6.78383">
        <ele>1437.9</ele>
        <time>2021-08-11T12:18:00Z</time>
      </trkpt>
      <trkpt lat="44.47627" lon="6.78373">
        <ele>1438.2</ele>
        <time>2021-08-11T12:18:04Z</time>
      </trkpt>
      <trkpt lat="44.47628" lon="6.78361">
        <ele>1438.6</ele>
        <time>2021-08-11T12:18:08Z</time>
      </trkpt>
      <trkpt lat="44.47627" lon="6.78348">
        <ele>1438.3</ele>
        <time>2021-08-11T12:18:12Z</time>
      </trkpt>
      <trkpt lat="44.47627" lon="6.78334">
        <ele>1438.3</ele>
        <time>2021-08-11T12:18:16Z</time>
      </trkpt>
      <trkpt lat="44.47625" lon="6.78321">
        <ele>1437.7</ele>
        <time>2021-08-11T12:18:20Z</time>
      </trkpt>
      <trkpt lat="44.47622" lon="6.78304">
        <ele>1436.8</ele>
        <time>2021-08-11T12:18:24Z</time>
      </trkpt>
      <trkpt lat="44.47621" lon="6.78295">
        <ele>1436.5</ele>
        <time>2021-08-11T12:18:28Z</time>
      </trkpt>
      <trkpt lat="44.47615" lon="6.78282">
        <ele>1433.9</ele>
        <time>2021-08-11T12:18:32Z</time>
      </trkpt>
      <trkpt lat="44.47611" lon="6.78275">
        <ele>1432.2</ele>
        <time>2021-08-11T12:18:36Z</time>
      </trkpt>
      <trkpt lat="44.47607" lon="6.7827">
        <ele>1430.4</ele>
        <time>2021-08-11T12:18:40Z</time>
      </trkpt>
      <trkpt lat="44.47603" lon="6.78257">
        <ele>1428.5</ele>
        <time>2021-08-11T12:18:44Z</time>
      </trkpt>
      <trkpt lat="44.47598" lon="6.78246">
        <ele>1426</ele>
        <time>2021-08-11T12:18:48Z</time>
      </trkpt>
      <trkpt lat="44.4759" lon="6.7823">
        <ele>1421.8</ele>
        <time>2021-08-11T12:18:52Z</time>
      </trkpt>
      <trkpt lat="44.47581" lon="6.78215">
        <ele>1419.1</ele>
        <time>2021-08-11T12:18:56Z</time>
      </trkpt>
      <trkpt lat="44.47573" lon="6.78198">
        <ele>1421.6</ele>
        <time>2021-08-11T12:19:00Z</time>
      </trkpt>
      <trkpt lat="44.47572" lon="6.78177">
        <ele>1421.3</ele>
        <time>2021-08-11T12:19:04Z</time>
      </trkpt>
      <trkpt lat="44.47574" lon="6.78159">
        <ele>1420.1</ele>
        <time>2021-08-11T12:19:08Z</time>
      </trkpt>
      <trkpt lat="44.47572" lon="6.78144">
        <ele>1420.6</ele>
        <time>2021-08-11T12:19:12Z</time>
      </trkpt>
      <trkpt lat="44.47575" lon="6.78126">
        <ele>1419.2</ele>
        <time>2021-08-11T12:19:16Z</time>
      </trkpt>
      <trkpt lat="44.47575" lon="6.7811">
        <ele>1418.9</ele>
        <time>2021-08-11T12:19:20Z</time>
      </trkpt>
      <trkpt lat="44.47573" lon="6.78103">
        <ele>1419.5</ele>
        <time>2021-08-11T12:19:24Z</time>
      </trkpt>
      <trkpt lat="44.47575" lon="6.78092">
        <ele>1418.6</ele>
        <time>2021-08-11T12:19:40Z</time>
      </trkpt>
      <trkpt lat="44.47574" lon="6.7809">
        <ele>1418.9</ele>
        <time>2021-08-11T12:19:44Z</time>
      </trkpt>
      <trkpt lat="44.47571" lon="6.78087">
        <ele>1420.1</ele>
        <time>2021-08-11T12:19:48Z</time>
      </trkpt>
      <trkpt lat="44.47571" lon="6.78082">
        <ele>1420</ele>
        <time>2021-08-11T12:19:52Z</time>
      </trkpt>
      <trkpt lat="44.47573" lon="6.78079">
        <ele>1419.1</ele>
        <time>2021-08-11T12:19:56Z</time>
      </trkpt>
      <trkpt lat="44.47573" lon="6.78074">
        <ele>1419</ele>
        <time>2021-08-11T12:20:08Z</time>
      </trkpt>
      <trkpt lat="44.47571" lon="6.7807">
        <ele>1419.7</ele>
        <time>2021-08-11T12:20:12Z</time>
      </trkpt>
      <trkpt lat="44.47569" lon="6.7807">
        <ele>1420.6</ele>
        <time>2021-08-11T12:20:16Z</time>
      </trkpt>
      <trkpt lat="44.47569" lon="6.78066">
        <ele>1420.5</ele>
        <time>2021-08-11T12:20:20Z</time>
      </trkpt>
      <trkpt lat="44.47569" lon="6.78063">
        <ele>1420.4</ele>
        <time>2021-08-11T12:20:24Z</time>
      </trkpt>
      <trkpt lat="44.47568" lon="6.78056">
        <ele>1420.7</ele>
        <time>2021-08-11T12:20:32Z</time>
      </trkpt>
      <trkpt lat="44.47568" lon="6.78052">
        <ele>1420.6</ele>
        <time>2021-08-11T12:20:36Z</time>
      </trkpt>
      <trkpt lat="44.47567" lon="6.78049">
        <ele>1420.9</ele>
        <time>2021-08-11T12:20:40Z</time>
      </trkpt>
      <trkpt lat="44.47569" lon="6.78044">
        <ele>1420</ele>
        <time>2021-08-11T12:20:52Z</time>
      </trkpt>
      <trkpt lat="44.47568" lon="6.78036">
        <ele>1420.2</ele>
        <time>2021-08-11T12:20:56Z</time>
      </trkpt>
      <trkpt lat="44.47567" lon="6.78026">
        <ele>1420.4</ele>
        <time>2021-08-11T12:21:00Z</time>
      </trkpt>
      <trkpt lat="44.47566" lon="6.78017">
        <ele>1420.6</ele>
        <time>2021-08-11T12:21:04Z</time>
      </trkpt>
      <trkpt lat="44.47566" lon="6.78011">
        <ele>1420.5</ele>
        <time>2021-08-11T12:21:08Z</time>
      </trkpt>
      <trkpt lat="44.47563" lon="6.78007">
        <ele>1421.7</ele>
        <time>2021-08-11T12:21:12Z</time>
      </trkpt>
      <trkpt lat="44.47561" lon="6.77999">
        <ele>1422.3</ele>
        <time>2021-08-11T12:21:16Z</time>
      </trkpt>
      <trkpt lat="44.47558" lon="6.7799">
        <ele>1422.7</ele>
        <time>2021-08-11T12:21:20Z</time>
      </trkpt>
      <trkpt lat="44.47553" lon="6.77977">
        <ele>1423.6</ele>
        <time>2021-08-11T12:21:24Z</time>
      </trkpt>
      <trkpt lat="44.47552" lon="6.77966">
        <ele>1423</ele>
        <time>2021-08-11T12:21:28Z</time>
      </trkpt>
      <trkpt lat="44.47551" lon="6.77958">
        <ele>1422.7</ele>
        <time>2021-08-11T12:21:32Z</time>
      </trkpt>
      <trkpt lat="44.47551" lon="6.77949">
        <ele>1421.8</ele>
        <time>2021-08-11T12:21:36Z</time>
      </trkpt>
      <trkpt lat="44.4755" lon="6.77944">
        <ele>1421.8</ele>
        <time>2021-08-11T12:21:44Z</time>
      </trkpt>
      <trkpt lat="44.47552" lon="6.77938">
        <ele>1420.4</ele>
        <time>2021-08-11T12:21:56Z</time>
      </trkpt>
      <trkpt lat="44.47554" lon="6.77936">
        <ele>1419.4</ele>
        <time>2021-08-11T12:22:08Z</time>
      </trkpt>
      <trkpt lat="44.47554" lon="6.7793">
        <ele>1418.8</ele>
        <time>2021-08-11T12:22:12Z</time>
      </trkpt>
      <trkpt lat="44.47553" lon="6.77925">
        <ele>1418.8</ele>
        <time>2021-08-11T12:22:16Z</time>
      </trkpt>
      <trkpt lat="44.47551" lon="6.77922">
        <ele>1419.3</ele>
        <time>2021-08-11T12:22:20Z</time>
      </trkpt>
      <trkpt lat="44.47549" lon="6.77917">
        <ele>1419.6</ele>
        <time>2021-08-11T12:22:24Z</time>
      </trkpt>
      <trkpt lat="44.4755" lon="6.7791">
        <ele>1418.2</ele>
        <time>2021-08-11T12:22:28Z</time>
      </trkpt>
      <trkpt lat="44.47548" lon="6.77904">
        <ele>1418</ele>
        <time>2021-08-11T12:22:32Z</time>
      </trkpt>
      <trkpt lat="44.47547" lon="6.77896">
        <ele>1417.1</ele>
        <time>2021-08-11T12:22:40Z</time>
      </trkpt>
      <trkpt lat="44.47546" lon="6.77885">
        <ele>1415.7</ele>
        <time>2021-08-11T12:22:44Z</time>
      </trkpt>
      <trkpt lat="44.47546" lon="6.77876">
        <ele>1414.3</ele>
        <time>2021-08-11T12:22:48Z</time>
      </trkpt>
      <trkpt lat="44.47544" lon="6.7787">
        <ele>1414</ele>
        <time>2021-08-11T12:22:52Z</time>
      </trkpt>
      <trkpt lat="44.47542" lon="6.77859">
        <ele>1412.7</ele>
        <time>2021-08-11T12:22:56Z</time>
      </trkpt>
      <trkpt lat="44.47541" lon="6.77852">
        <ele>1411.8</ele>
        <time>2021-08-11T12:23:00Z</time>
      </trkpt>
      <trkpt lat="44.47542" lon="6.77848">
        <ele>1410.9</ele>
        <time>2021-08-11T12:23:04Z</time>
      </trkpt>
      <trkpt lat="44.4754" lon="6.77847">
        <ele>1411.2</ele>
        <time>2021-08-11T12:23:08Z</time>
      </trkpt>
      <trkpt lat="44.47541" lon="6.77845">
        <ele>1410.6</ele>
        <time>2021-08-11T12:23:12Z</time>
      </trkpt>
      <trkpt lat="44.47542" lon="6.7784">
        <ele>1409.5</ele>
        <time>2021-08-11T12:23:16Z</time>
      </trkpt>
      <trkpt lat="44.47544" lon="6.77836">
        <ele>1408.4</ele>
        <time>2021-08-11T12:23:20Z</time>
      </trkpt>
      <trkpt lat="44.47544" lon="6.77833">
        <ele>1407.9</ele>
        <time>2021-08-11T12:23:28Z</time>
      </trkpt>
      <trkpt lat="44.47543" lon="6.7783">
        <ele>1407.6</ele>
        <time>2021-08-11T12:23:32Z</time>
      </trkpt>
      <trkpt lat="44.47541" lon="6.77825">
        <ele>1407.2</ele>
        <time>2021-08-11T12:23:36Z</time>
      </trkpt>
      <trkpt lat="44.4754" lon="6.77821">
        <ele>1406.7</ele>
        <time>2021-08-11T12:23:40Z</time>
      </trkpt>
      <trkpt lat="44.4754" lon="6.77818">
        <ele>1406.2</ele>
        <time>2021-08-11T12:23:48Z</time>
      </trkpt>
      <trkpt lat="44.4754" lon="6.77813">
        <ele>1405.3</ele>
        <time>2021-08-11T12:24:08Z</time>
      </trkpt>
      <trkpt lat="44.47543" lon="6.77809">
        <ele>1404</ele>
        <time>2021-08-11T12:24:12Z</time>
      </trkpt>
      <trkpt lat="44.47544" lon="6.77806">
        <ele>1403.3</ele>
        <time>2021-08-11T12:24:16Z</time>
      </trkpt>
      <trkpt lat="44.47544" lon="6.77801">
        <ele>1402.5</ele>
        <time>2021-08-11T12:24:20Z</time>
      </trkpt>
      <trkpt lat="44.47542" lon="6.77791">
        <ele>1401.1</ele>
        <time>2021-08-11T12:24:24Z</time>
      </trkpt>
      <trkpt lat="44.47543" lon="6.77782">
        <ele>1399.4</ele>
        <time>2021-08-11T12:24:28Z</time>
      </trkpt>
      <trkpt lat="44.47546" lon="6.77769">
        <ele>1396.9</ele>
        <time>2021-08-11T12:24:32Z</time>
      </trkpt>
      <trkpt lat="44.4755" lon="6.77759">
        <ele>1395</ele>
        <time>2021-08-11T12:24:36Z</time>
      </trkpt>
      <trkpt lat="44.47549" lon="6.77746">
        <ele>1393.2</ele>
        <time>2021-08-11T12:24:40Z</time>
      </trkpt>
      <trkpt lat="44.47547" lon="6.77731">
        <ele>1391.3</ele>
        <time>2021-08-11T12:24:44Z</time>
      </trkpt>
      <trkpt lat="44.47545" lon="6.77714">
        <ele>1389.1</ele>
        <time>2021-08-11T12:24:48Z</time>
      </trkpt>
      <trkpt lat="44.47543" lon="6.77701">
        <ele>1387.3</ele>
        <time>2021-08-11T12:24:52Z</time>
      </trkpt>
      <trkpt lat="44.47547" lon="6.77696">
        <ele>1386.9</ele>
        <time>2021-08-11T12:25:04Z</time>
      </trkpt>
      <trkpt lat="44.47549" lon="6.77697">
        <ele>1387.2</ele>
        <time>2021-08-11T12:25:08Z</time>
      </trkpt>
      <trkpt lat="44.4755" lon="6.77692">
        <ele>1386.6</ele>
        <time>2021-08-11T12:25:12Z</time>
      </trkpt>
      <trkpt lat="44.47549" lon="6.77686">
        <ele>1385.8</ele>
        <time>2021-08-11T12:25:20Z</time>
      </trkpt>
      <trkpt lat="44.47547" lon="6.77678">
        <ele>1384.6</ele>
        <time>2021-08-11T12:25:24Z</time>
      </trkpt>
      <trkpt lat="44.47546" lon="6.77674">
        <ele>1384</ele>
        <time>2021-08-11T12:25:28Z</time>
      </trkpt>
      <trkpt lat="44.47546" lon="6.7767">
        <ele>1383.5</ele>
        <time>2021-08-11T12:25:32Z</time>
      </trkpt>
      <trkpt lat="44.47548" lon="6.77667">
        <ele>1383.4</ele>
        <time>2021-08-11T12:25:36Z</time>
      </trkpt>
      <trkpt lat="44.47548" lon="6.77662">
        <ele>1383.2</ele>
        <time>2021-08-11T12:25:40Z</time>
      </trkpt>
      <trkpt lat="44.4755" lon="6.77661">
        <ele>1383.5</ele>
        <time>2021-08-11T12:25:44Z</time>
      </trkpt>
      <trkpt lat="44.4755" lon="6.77657">
        <ele>1383.3</ele>
        <time>2021-08-11T12:25:48Z</time>
      </trkpt>
      <trkpt lat="44.4755" lon="6.77651">
        <ele>1383.2</ele>
        <time>2021-08-11T12:25:52Z</time>
      </trkpt>
      <trkpt lat="44.47548" lon="6.77647">
        <ele>1382.8</ele>
        <time>2021-08-11T12:25:56Z</time>
      </trkpt>
      <trkpt lat="44.47545" lon="6.77644">
        <ele>1382.2</ele>
        <time>2021-08-11T12:26:00Z</time>
      </trkpt>
      <trkpt lat="44.47545" lon="6.7764">
        <ele>1382.1</ele>
        <time>2021-08-11T12:26:04Z</time>
      </trkpt>
      <trkpt lat="44.47549" lon="6.7764">
        <ele>1382.7</ele>
        <time>2021-08-11T12:26:08Z</time>
      </trkpt>
      <trkpt lat="44.47549" lon="6.77639">
        <ele>1382.7</ele>
        <time>2021-08-11T12:26:16Z</time>
      </trkpt>
      <trkpt lat="44.47552" lon="6.77638">
        <ele>1383.2</ele>
        <time>2021-08-11T12:26:28Z</time>
      </trkpt>
      <trkpt lat="44.47556" lon="6.7764">
        <ele>1383.9</ele>
        <time>2021-08-11T12:26:32Z</time>
      </trkpt>
      <trkpt lat="44.47555" lon="6.77634">
        <ele>1383.6</ele>
        <time>2021-08-11T12:27:00Z</time>
      </trkpt>
      <trkpt lat="44.47556" lon="6.7763">
        <ele>1383.7</ele>
        <time>2021-08-11T12:27:08Z</time>
      </trkpt>
      <trkpt lat="44.47557" lon="6.77628">
        <ele>1383.8</ele>
        <time>2021-08-11T12:27:12Z</time>
      </trkpt>
      <trkpt lat="44.47556" lon="6.77624">
        <ele>1383.6</ele>
        <time>2021-08-11T12:27:16Z</time>
      </trkpt>
      <trkpt lat="44.47555" lon="6.77619">
        <ele>1383.3</ele>
        <time>2021-08-11T12:27:20Z</time>
      </trkpt>
      <trkpt lat="44.47555" lon="6.77614">
        <ele>1383.2</ele>
        <time>2021-08-11T12:27:24Z</time>
      </trkpt>
      <trkpt lat="44.47556" lon="6.77609">
        <ele>1383.3</ele>
        <time>2021-08-11T12:27:28Z</time>
      </trkpt>
      <trkpt lat="44.47556" lon="6.77604">
        <ele>1383.2</ele>
        <time>2021-08-11T12:27:32Z</time>
      </trkpt>
      <trkpt lat="44.47554" lon="6.77601">
        <ele>1382.7</ele>
        <time>2021-08-11T12:27:36Z</time>
      </trkpt>
      <trkpt lat="44.47553" lon="6.77597">
        <ele>1382.4</ele>
        <time>2021-08-11T12:27:40Z</time>
      </trkpt>
      <trkpt lat="44.47552" lon="6.77591">
        <ele>1382</ele>
        <time>2021-08-11T12:27:44Z</time>
      </trkpt>
      <trkpt lat="44.47551" lon="6.77584">
        <ele>1381.6</ele>
        <time>2021-08-11T12:27:48Z</time>
      </trkpt>
      <trkpt lat="44.47549" lon="6.77575">
        <ele>1381.1</ele>
        <time>2021-08-11T12:27:52Z</time>
      </trkpt>
      <trkpt lat="44.47549" lon="6.77568">
        <ele>1381.1</ele>
        <time>2021-08-11T12:27:56Z</time>
      </trkpt>
      <trkpt lat="44.4755" lon="6.77565">
        <ele>1381.3</ele>
        <time>2021-08-11T12:28:00Z</time>
      </trkpt>
      <trkpt lat="44.4755" lon="6.77564">
        <ele>1381.3</ele>
        <time>2021-08-11T12:28:04Z</time>
      </trkpt>
      <trkpt lat="44.47551" lon="6.77559">
        <ele>1381.5</ele>
        <time>2021-08-11T12:28:12Z</time>
      </trkpt>
      <trkpt lat="44.47551" lon="6.77549">
        <ele>1381.5</ele>
        <time>2021-08-11T12:28:28Z</time>
      </trkpt>
      <trkpt lat="44.4755" lon="6.77546">
        <ele>1381.2</ele>
        <time>2021-08-11T12:28:32Z</time>
      </trkpt>
      <trkpt lat="44.47548" lon="6.77542">
        <ele>1380.7</ele>
        <time>2021-08-11T12:28:36Z</time>
      </trkpt>
      <trkpt lat="44.47547" lon="6.7754">
        <ele>1380.4</ele>
        <time>2021-08-11T12:28:40Z</time>
      </trkpt>
      <trkpt lat="44.47549" lon="6.77537">
        <ele>1380.9</ele>
        <time>2021-08-11T12:28:44Z</time>
      </trkpt>
      <trkpt lat="44.4755" lon="6.77535">
        <ele>1381.2</ele>
        <time>2021-08-11T12:28:48Z</time>
      </trkpt>
      <trkpt lat="44.47552" lon="6.77532">
        <ele>1381.7</ele>
        <time>2021-08-11T12:29:00Z</time>
      </trkpt>
      <trkpt lat="44.47553" lon="6.77529">
        <ele>1382</ele>
        <time>2021-08-11T12:29:04Z</time>
      </trkpt>
      <trkpt lat="44.47552" lon="6.77527">
        <ele>1381.7</ele>
        <time>2021-08-11T12:29:08Z</time>
      </trkpt>
      <trkpt lat="44.47551" lon="6.77524">
        <ele>1381.4</ele>
        <time>2021-08-11T12:29:12Z</time>
      </trkpt>
      <trkpt lat="44.47549" lon="6.77521">
        <ele>1380.8</ele>
        <time>2021-08-11T12:29:20Z</time>
      </trkpt>
      <trkpt lat="44.47548" lon="6.77514">
        <ele>1380.5</ele>
        <time>2021-08-11T12:29:24Z</time>
      </trkpt>
      <trkpt lat="44.47549" lon="6.77493">
        <ele>1380.4</ele>
        <time>2021-08-11T12:29:28Z</time>
      </trkpt>
      <trkpt lat="44.47547" lon="6.77468">
        <ele>1378.9</ele>
        <time>2021-08-11T12:29:32Z</time>
      </trkpt>
      <trkpt lat="44.47543" lon="6.77441">
        <ele>1376.8</ele>
        <time>2021-08-11T12:29:36Z</time>
      </trkpt>
      <trkpt lat="44.47544" lon="6.77409">
        <ele>1375.5</ele>
        <time>2021-08-11T12:29:40Z</time>
      </trkpt>
      <trkpt lat="44.47543" lon="6.77381">
        <ele>1372.8</ele>
        <time>2021-08-11T12:29:44Z</time>
      </trkpt>
      <trkpt lat="44.47546" lon="6.77373">
        <ele>1372.9</ele>
        <time>2021-08-11T12:30:00Z</time>
      </trkpt>
      <trkpt lat="44.4755" lon="6.77367">
        <ele>1373.4</ele>
        <time>2021-08-11T12:30:04Z</time>
      </trkpt>
      <trkpt lat="44.47552" lon="6.77351">
        <ele>1372.4</ele>
        <time>2021-08-11T12:30:08Z</time>
      </trkpt>
      <trkpt lat="44.47552" lon="6.77335">
        <ele>1371</ele>
        <time>2021-08-11T12:30:12Z</time>
      </trkpt>
      <trkpt lat="44.47547" lon="6.77332">
        <ele>1369.6</ele>
        <time>2021-08-11T12:30:20Z</time>
      </trkpt>
      <trkpt lat="44.47546" lon="6.77329">
        <ele>1369.2</ele>
        <time>2021-08-11T12:30:28Z</time>
      </trkpt>
      <trkpt lat="44.47543" lon="6.77329">
        <ele>1368.5</ele>
        <time>2021-08-11T12:30:32Z</time>
      </trkpt>
      <trkpt lat="44.47538" lon="6.77328">
        <ele>1367.4</ele>
        <time>2021-08-11T12:30:52Z</time>
      </trkpt>
      <trkpt lat="44.47532" lon="6.77323">
        <ele>1365.9</ele>
        <time>2021-08-11T12:31:12Z</time>
      </trkpt>
      <trkpt lat="44.47534" lon="6.77317">
        <ele>1366</ele>
        <time>2021-08-11T12:31:16Z</time>
      </trkpt>
      <trkpt lat="44.47533" lon="6.77314">
        <ele>1365.7</ele>
        <time>2021-08-11T12:31:20Z</time>
      </trkpt>
      <trkpt lat="44.47543" lon="6.77301">
        <ele>1366.8</ele>
        <time>2021-08-11T12:32:16Z</time>
      </trkpt>
      <trkpt lat="44.47543" lon="6.77298">
        <ele>1366.6</ele>
        <time>2021-08-11T12:32:20Z</time>
      </trkpt>
      <trkpt lat="44.47543" lon="6.77296">
        <ele>1366.5</ele>
        <time>2021-08-11T12:32:24Z</time>
      </trkpt>
      <trkpt lat="44.47543" lon="6.77292">
        <ele>1366.2</ele>
        <time>2021-08-11T12:32:28Z</time>
      </trkpt>
      <trkpt lat="44.47541" lon="6.77284">
        <ele>1365.5</ele>
        <time>2021-08-11T12:32:32Z</time>
      </trkpt>
      <trkpt lat="44.47538" lon="6.7727">
        <ele>1364.3</ele>
        <time>2021-08-11T12:32:36Z</time>
      </trkpt>
      <trkpt lat="44.47534" lon="6.77251">
        <ele>1363.1</ele>
        <time>2021-08-11T12:32:40Z</time>
      </trkpt>
      <trkpt lat="44.47532" lon="6.77234">
        <ele>1364.1</ele>
        <time>2021-08-11T12:32:44Z</time>
      </trkpt>
      <trkpt lat="44.47531" lon="6.77218">
        <ele>1365.4</ele>
        <time>2021-08-11T12:32:48Z</time>
      </trkpt>
      <trkpt lat="44.47534" lon="6.77204">
        <ele>1366.3</ele>
        <time>2021-08-11T12:32:52Z</time>
      </trkpt>
      <trkpt lat="44.47536" lon="6.77193">
        <ele>1366.8</ele>
        <time>2021-08-11T12:32:56Z</time>
      </trkpt>
      <trkpt lat="44.4754" lon="6.77176">
        <ele>1367.3</ele>
        <time>2021-08-11T12:33:00Z</time>
      </trkpt>
      <trkpt lat="44.47542" lon="6.77155">
        <ele>1366.5</ele>
        <time>2021-08-11T12:33:04Z</time>
      </trkpt>
      <trkpt lat="44.47545" lon="6.77131">
        <ele>1364.5</ele>
        <time>2021-08-11T12:33:08Z</time>
      </trkpt>
      <trkpt lat="44.47543" lon="6.77105">
        <ele>1362.7</ele>
        <time>2021-08-11T12:33:12Z</time>
      </trkpt>
      <trkpt lat="44.47539" lon="6.77067">
        <ele>1360.8</ele>
        <time>2021-08-11T12:33:16Z</time>
      </trkpt>
      <trkpt lat="44.47527" lon="6.77036">
        <ele>1358</ele>
        <time>2021-08-11T12:33:20Z</time>
      </trkpt>
      <trkpt lat="44.47516" lon="6.77009">
        <ele>1353.9</ele>
        <time>2021-08-11T12:33:24Z</time>
      </trkpt>
      <trkpt lat="44.47509" lon="6.7698">
        <ele>1348.7</ele>
        <time>2021-08-11T12:33:28Z</time>
      </trkpt>
      <trkpt lat="44.47503" lon="6.7695">
        <ele>1343.5</ele>
        <time>2021-08-11T12:33:32Z</time>
      </trkpt>
      <trkpt lat="44.47496" lon="6.76923">
        <ele>1341.5</ele>
        <time>2021-08-11T12:33:36Z</time>
      </trkpt>
      <trkpt lat="44.47491" lon="6.76893">
        <ele>1340.9</ele>
        <time>2021-08-11T12:33:40Z</time>
      </trkpt>
      <trkpt lat="44.47486" lon="6.76861">
        <ele>1339.9</ele>
        <time>2021-08-11T12:33:44Z</time>
      </trkpt>
      <trkpt lat="44.47478" lon="6.76828">
        <ele>1339</ele>
        <time>2021-08-11T12:33:48Z</time>
      </trkpt>
      <trkpt lat="44.47467" lon="6.76787">
        <ele>1336.1</ele>
        <time>2021-08-11T12:33:52Z</time>
      </trkpt>
      <trkpt lat="44.47452" lon="6.76751">
        <ele>1330.6</ele>
        <time>2021-08-11T12:33:56Z</time>
      </trkpt>
      <trkpt lat="44.47429" lon="6.76726">
        <ele>1328.3</ele>
        <time>2021-08-11T12:34:00Z</time>
      </trkpt>
      <trkpt lat="44.47404" lon="6.76705">
        <ele>1327.5</ele>
        <time>2021-08-11T12:34:04Z</time>
      </trkpt>
      <trkpt lat="44.4738" lon="6.76682">
        <ele>1325.5</ele>
        <time>2021-08-11T12:34:08Z</time>
      </trkpt>
      <trkpt lat="44.47354" lon="6.76666">
        <ele>1322.2</ele>
        <time>2021-08-11T12:34:12Z</time>
      </trkpt>
      <trkpt lat="44.47329" lon="6.76654">
        <ele>1321.8</ele>
        <time>2021-08-11T12:34:16Z</time>
      </trkpt>
      <trkpt lat="44.47305" lon="6.76643">
        <ele>1324.5</ele>
        <time>2021-08-11T12:34:20Z</time>
      </trkpt>
      <trkpt lat="44.47286" lon="6.76635">
        <ele>1325.9</ele>
        <time>2021-08-11T12:34:24Z</time>
      </trkpt>
      <trkpt lat="44.47271" lon="6.76629">
        <ele>1326.6</ele>
        <time>2021-08-11T12:34:28Z</time>
      </trkpt>
      <trkpt lat="44.47258" lon="6.76617">
        <ele>1325.2</ele>
        <time>2021-08-11T12:34:32Z</time>
      </trkpt>
      <trkpt lat="44.47245" lon="6.766">
        <ele>1322.9</ele>
        <time>2021-08-11T12:34:36Z</time>
      </trkpt>
      <trkpt lat="44.47231" lon="6.7658">
        <ele>1321.8</ele>
        <time>2021-08-11T12:34:40Z</time>
      </trkpt>
      <trkpt lat="44.47216" lon="6.76557">
        <ele>1321.5</ele>
        <time>2021-08-11T12:34:44Z</time>
      </trkpt>
      <trkpt lat="44.47201" lon="6.76534">
        <ele>1319.5</ele>
        <time>2021-08-11T12:34:48Z</time>
      </trkpt>
      <trkpt lat="44.47188" lon="6.76516">
        <ele>1316.8</ele>
        <time>2021-08-11T12:34:52Z</time>
      </trkpt>
      <trkpt lat="44.47175" lon="6.76505">
        <ele>1315</ele>
        <time>2021-08-11T12:34:56Z</time>
      </trkpt>
      <trkpt lat="44.47167" lon="6.76495">
        <ele>1313.6</ele>
        <time>2021-08-11T12:35:00Z</time>
      </trkpt>
      <trkpt lat="44.4716" lon="6.76487">
        <ele>1314.8</ele>
        <time>2021-08-11T12:35:04Z</time>
      </trkpt>
      <trkpt lat="44.47157" lon="6.76484">
        <ele>1315.2</ele>
        <time>2021-08-11T12:35:08Z</time>
      </trkpt>
      <trkpt lat="44.47154" lon="6.76485">
        <ele>1316.1</ele>
        <time>2021-08-11T12:35:12Z</time>
      </trkpt>
      <trkpt lat="44.47158" lon="6.76484">
        <ele>1315</ele>
        <time>2021-08-11T12:35:44Z</time>
      </trkpt>
      <trkpt lat="44.47158" lon="6.76483">
        <ele>1314.9</ele>
        <time>2021-08-11T12:38:00Z</time>
      </trkpt>
      <trkpt lat="44.47151" lon="6.76487">
        <ele>1317</ele>
        <time>2021-08-11T12:38:20Z</time>
      </trkpt>
      <trkpt lat="44.47157" lon="6.76486">
        <ele>1315.4</ele>
        <time>2021-08-11T12:40:32Z</time>
      </trkpt>
      <trkpt lat="44.47155" lon="6.76485">
        <ele>1315.8</ele>
        <time>2021-08-11T12:41:44Z</time>
      </trkpt>
      <trkpt lat="44.47154" lon="6.76486">
        <ele>1316.2</ele>
        <time>2021-08-11T12:42:08Z</time>
      </trkpt>
      <trkpt lat="44.47159" lon="6.7649">
        <ele>1315.3</ele>
        <time>2021-08-11T12:42:56Z</time>
      </trkpt>
      <trkpt lat="44.47159" lon="6.76491">
        <ele>1315.3</ele>
        <time>2021-08-11T12:43:00Z</time>
      </trkpt>
      <trkpt lat="44.47152" lon="6.76492">
        <ele>1317.3</ele>
        <time>2021-08-11T12:43:32Z</time>
      </trkpt>
      <trkpt lat="44.47152" lon="6.76487">
        <ele>1316.8</ele>
        <time>2021-08-11T12:45:00Z</time>
      </trkpt>
      <trkpt lat="44.47154" lon="6.76485">
        <ele>1316.1</ele>
        <time>2021-08-11T12:45:36Z</time>
      </trkpt>
      <trkpt lat="44.4715" lon="6.76478">
        <ele>1316.4</ele>
        <time>2021-08-11T12:45:40Z</time>
      </trkpt>
      <trkpt lat="44.47152" lon="6.76475">
        <ele>1315.6</ele>
        <time>2021-08-11T12:45:56Z</time>
      </trkpt>
      <trkpt lat="44.47147" lon="6.76468">
        <ele>1316</ele>
        <time>2021-08-11T12:46:00Z</time>
      </trkpt>
      <trkpt lat="44.47139" lon="6.7646">
        <ele>1316.8</ele>
        <time>2021-08-11T12:46:32Z</time>
      </trkpt>
      <trkpt lat="44.47136" lon="6.76453">
        <ele>1316.6</ele>
        <time>2021-08-11T12:46:36Z</time>
      </trkpt>
      <trkpt lat="44.47131" lon="6.76444">
        <ele>1316.4</ele>
        <time>2021-08-11T12:46:40Z</time>
      </trkpt>
      <trkpt lat="44.47127" lon="6.76436">
        <ele>1316</ele>
        <time>2021-08-11T12:46:44Z</time>
      </trkpt>
      <trkpt lat="44.47122" lon="6.76428">
        <ele>1315.6</ele>
        <time>2021-08-11T12:46:48Z</time>
      </trkpt>
      <trkpt lat="44.47116" lon="6.76416">
        <ele>1314.6</ele>
        <time>2021-08-11T12:46:52Z</time>
      </trkpt>
      <trkpt lat="44.47115" lon="6.76404">
        <ele>1313.4</ele>
        <time>2021-08-11T12:46:56Z</time>
      </trkpt>
      <trkpt lat="44.47115" lon="6.76393">
        <ele>1312.1</ele>
        <time>2021-08-11T12:47:00Z</time>
      </trkpt>
      <trkpt lat="44.47113" lon="6.76382">
        <ele>1311</ele>
        <time>2021-08-11T12:47:04Z</time>
      </trkpt>
      <trkpt lat="44.47105" lon="6.76373">
        <ele>1310.4</ele>
        <time>2021-08-11T12:47:08Z</time>
      </trkpt>
      <trkpt lat="44.47093" lon="6.76368">
        <ele>1310.4</ele>
        <time>2021-08-11T12:47:12Z</time>
      </trkpt>
      <trkpt lat="44.47082" lon="6.76361">
        <ele>1309.8</ele>
        <time>2021-08-11T12:47:16Z</time>
      </trkpt>
      <trkpt lat="44.4707" lon="6.76352">
        <ele>1309.3</ele>
        <time>2021-08-11T12:47:20Z</time>
      </trkpt>
      <trkpt lat="44.47058" lon="6.76343">
        <ele>1308.5</ele>
        <time>2021-08-11T12:47:24Z</time>
      </trkpt>
      <trkpt lat="44.47047" lon="6.76333">
        <ele>1307.2</ele>
        <time>2021-08-11T12:47:28Z</time>
      </trkpt>
      <trkpt lat="44.47036" lon="6.76325">
        <ele>1307.2</ele>
        <time>2021-08-11T12:47:32Z</time>
      </trkpt>
      <trkpt lat="44.47022" lon="6.76317">
        <ele>1307.2</ele>
        <time>2021-08-11T12:47:36Z</time>
      </trkpt>
      <trkpt lat="44.47006" lon="6.7631">
        <ele>1307.2</ele>
        <time>2021-08-11T12:47:40Z</time>
      </trkpt>
      <trkpt lat="44.46991" lon="6.76303">
        <ele>1307.7</ele>
        <time>2021-08-11T12:47:44Z</time>
      </trkpt>
      <trkpt lat="44.46975" lon="6.76296">
        <ele>1308.3</ele>
        <time>2021-08-11T12:47:48Z</time>
      </trkpt>
      <trkpt lat="44.46959" lon="6.76288">
        <ele>1308.3</ele>
        <time>2021-08-11T12:47:52Z</time>
      </trkpt>
      <trkpt lat="44.46944" lon="6.76281">
        <ele>1308</ele>
        <time>2021-08-11T12:47:56Z</time>
      </trkpt>
      <trkpt lat="44.46929" lon="6.76272">
        <ele>1306.9</ele>
        <time>2021-08-11T12:48:00Z</time>
      </trkpt>
      <trkpt lat="44.46913" lon="6.76264">
        <ele>1306</ele>
        <time>2021-08-11T12:48:04Z</time>
      </trkpt>
      <trkpt lat="44.46897" lon="6.76255">
        <ele>1305.6</ele>
        <time>2021-08-11T12:48:08Z</time>
      </trkpt>
      <trkpt lat="44.46882" lon="6.76247">
        <ele>1305.8</ele>
        <time>2021-08-11T12:48:12Z</time>
      </trkpt>
      <trkpt lat="44.46865" lon="6.76239">
        <ele>1306.7</ele>
        <time>2021-08-11T12:48:16Z</time>
      </trkpt>
      <trkpt lat="44.4685" lon="6.76232">
        <ele>1307.1</ele>
        <time>2021-08-11T12:48:20Z</time>
      </trkpt>
      <trkpt lat="44.46834" lon="6.76224">
        <ele>1307.3</ele>
        <time>2021-08-11T12:48:24Z</time>
      </trkpt>
      <trkpt lat="44.46818" lon="6.76216">
        <ele>1306.7</ele>
        <time>2021-08-11T12:48:28Z</time>
      </trkpt>
      <trkpt lat="44.46803" lon="6.76208">
        <ele>1305.9</ele>
        <time>2021-08-11T12:48:32Z</time>
      </trkpt>
      <trkpt lat="44.46786" lon="6.76201">
        <ele>1305.3</ele>
        <time>2021-08-11T12:48:36Z</time>
      </trkpt>
      <trkpt lat="44.4677" lon="6.76192">
        <ele>1304</ele>
        <time>2021-08-11T12:48:40Z</time>
      </trkpt>
      <trkpt lat="44.46753" lon="6.76183">
        <ele>1302.6</ele>
        <time>2021-08-11T12:48:44Z</time>
      </trkpt>
      <trkpt lat="44.46739" lon="6.7617">
        <ele>1302.9</ele>
        <time>2021-08-11T12:48:48Z</time>
      </trkpt>
      <trkpt lat="44.46726" lon="6.76149">
        <ele>1303.6</ele>
        <time>2021-08-11T12:48:52Z</time>
      </trkpt>
      <trkpt lat="44.46714" lon="6.76125">
        <ele>1303.2</ele>
        <time>2021-08-11T12:48:56Z</time>
      </trkpt>
      <trkpt lat="44.46704" lon="6.76101">
        <ele>1301.6</ele>
        <time>2021-08-11T12:49:00Z</time>
      </trkpt>
      <trkpt lat="44.46697" lon="6.7608">
        <ele>1299.7</ele>
        <time>2021-08-11T12:49:04Z</time>
      </trkpt>
      <trkpt lat="44.46686" lon="6.76056">
        <ele>1300</ele>
        <time>2021-08-11T12:49:08Z</time>
      </trkpt>
      <trkpt lat="44.46672" lon="6.7603">
        <ele>1299.4</ele>
        <time>2021-08-11T12:49:12Z</time>
      </trkpt>
      <trkpt lat="44.46657" lon="6.76006">
        <ele>1300.9</ele>
        <time>2021-08-11T12:49:16Z</time>
      </trkpt>
      <trkpt lat="44.46643" lon="6.75983">
        <ele>1303.1</ele>
        <time>2021-08-11T12:49:20Z</time>
      </trkpt>
      <trkpt lat="44.46632" lon="6.7596">
        <ele>1303.8</ele>
        <time>2021-08-11T12:49:24Z</time>
      </trkpt>
      <trkpt lat="44.46616" lon="6.75934">
        <ele>1304.5</ele>
        <time>2021-08-11T12:49:28Z</time>
      </trkpt>
      <trkpt lat="44.46604" lon="6.75908">
        <ele>1303.6</ele>
        <time>2021-08-11T12:49:32Z</time>
      </trkpt>
      <trkpt lat="44.46591" lon="6.75881">
        <ele>1303</ele>
        <time>2021-08-11T12:49:36Z</time>
      </trkpt>
      <trkpt lat="44.46578" lon="6.75855">
        <ele>1303.5</ele>
        <time>2021-08-11T12:49:40Z</time>
      </trkpt>
      <trkpt lat="44.46568" lon="6.75832">
        <ele>1304.6</ele>
        <time>2021-08-11T12:49:44Z</time>
      </trkpt>
      <trkpt lat="44.46557" lon="6.75809">
        <ele>1305.2</ele>
        <time>2021-08-11T12:49:48Z</time>
      </trkpt>
      <trkpt lat="44.46544" lon="6.75783">
        <ele>1304.1</ele>
        <time>2021-08-11T12:49:52Z</time>
      </trkpt>
      <trkpt lat="44.46531" lon="6.75757">
        <ele>1300.7</ele>
        <time>2021-08-11T12:49:56Z</time>
      </trkpt>
      <trkpt lat="44.46519" lon="6.75732">
        <ele>1298.8</ele>
        <time>2021-08-11T12:50:00Z</time>
      </trkpt>
      <trkpt lat="44.46509" lon="6.75708">
        <ele>1297.1</ele>
        <time>2021-08-11T12:50:04Z</time>
      </trkpt>
      <trkpt lat="44.46497" lon="6.75684">
        <ele>1295.4</ele>
        <time>2021-08-11T12:50:08Z</time>
      </trkpt>
      <trkpt lat="44.46494" lon="6.75663">
        <ele>1293.3</ele>
        <time>2021-08-11T12:50:12Z</time>
      </trkpt>
      <trkpt lat="44.46493" lon="6.75643">
        <ele>1292.2</ele>
        <time>2021-08-11T12:50:16Z</time>
      </trkpt>
      <trkpt lat="44.46495" lon="6.75623">
        <ele>1290.6</ele>
        <time>2021-08-11T12:50:20Z</time>
      </trkpt>
      <trkpt lat="44.46497" lon="6.75603">
        <ele>1289.2</ele>
        <time>2021-08-11T12:50:24Z</time>
      </trkpt>
      <trkpt lat="44.465" lon="6.75583">
        <ele>1288</ele>
        <time>2021-08-11T12:50:28Z</time>
      </trkpt>
      <trkpt lat="44.46503" lon="6.75562">
        <ele>1288</ele>
        <time>2021-08-11T12:50:32Z</time>
      </trkpt>
      <trkpt lat="44.46508" lon="6.75541">
        <ele>1288.3</ele>
        <time>2021-08-11T12:50:36Z</time>
      </trkpt>
      <trkpt lat="44.46511" lon="6.75518">
        <ele>1288.5</ele>
        <time>2021-08-11T12:50:40Z</time>
      </trkpt>
      <trkpt lat="44.46515" lon="6.75495">
        <ele>1288.9</ele>
        <time>2021-08-11T12:50:44Z</time>
      </trkpt>
      <trkpt lat="44.46519" lon="6.75471">
        <ele>1289.8</ele>
        <time>2021-08-11T12:50:48Z</time>
      </trkpt>
      <trkpt lat="44.46523" lon="6.75446">
        <ele>1290.8</ele>
        <time>2021-08-11T12:50:52Z</time>
      </trkpt>
      <trkpt lat="44.46527" lon="6.75419">
        <ele>1292.1</ele>
        <time>2021-08-11T12:50:56Z</time>
      </trkpt>
      <trkpt lat="44.4653" lon="6.75391">
        <ele>1294.9</ele>
        <time>2021-08-11T12:51:00Z</time>
      </trkpt>
      <trkpt lat="44.46531" lon="6.75363">
        <ele>1297.5</ele>
        <time>2021-08-11T12:51:04Z</time>
      </trkpt>
      <trkpt lat="44.46529" lon="6.75335">
        <ele>1299.3</ele>
        <time>2021-08-11T12:51:08Z</time>
      </trkpt>
      <trkpt lat="44.46524" lon="6.7531">
        <ele>1302.2</ele>
        <time>2021-08-11T12:51:12Z</time>
      </trkpt>
      <trkpt lat="44.46517" lon="6.75288">
        <ele>1303.5</ele>
        <time>2021-08-11T12:51:16Z</time>
      </trkpt>
      <trkpt lat="44.4651" lon="6.75268">
        <ele>1303.9</ele>
        <time>2021-08-11T12:51:20Z</time>
      </trkpt>
      <trkpt lat="44.46501" lon="6.75249">
        <ele>1302.8</ele>
        <time>2021-08-11T12:51:24Z</time>
      </trkpt>
      <trkpt lat="44.46491" lon="6.7523">
        <ele>1306.8</ele>
        <time>2021-08-11T12:51:28Z</time>
      </trkpt>
      <trkpt lat="44.46479" lon="6.75209">
        <ele>1309.6</ele>
        <time>2021-08-11T12:51:32Z</time>
      </trkpt>
      <trkpt lat="44.46468" lon="6.75191">
        <ele>1310.5</ele>
        <time>2021-08-11T12:51:36Z</time>
      </trkpt>
      <trkpt lat="44.46454" lon="6.75175">
        <ele>1308.2</ele>
        <time>2021-08-11T12:51:40Z</time>
      </trkpt>
      <trkpt lat="44.4644" lon="6.75158">
        <ele>1306.7</ele>
        <time>2021-08-11T12:51:44Z</time>
      </trkpt>
      <trkpt lat="44.46425" lon="6.75142">
        <ele>1305.4</ele>
        <time>2021-08-11T12:51:48Z</time>
      </trkpt>
      <trkpt lat="44.46411" lon="6.75125">
        <ele>1306.2</ele>
        <time>2021-08-11T12:51:52Z</time>
      </trkpt>
      <trkpt lat="44.46398" lon="6.75111">
        <ele>1307.8</ele>
        <time>2021-08-11T12:51:56Z</time>
      </trkpt>
      <trkpt lat="44.46384" lon="6.75093">
        <ele>1309.2</ele>
        <time>2021-08-11T12:52:00Z</time>
      </trkpt>
      <trkpt lat="44.46371" lon="6.75077">
        <ele>1309.6</ele>
        <time>2021-08-11T12:52:04Z</time>
      </trkpt>
      <trkpt lat="44.46356" lon="6.75061">
        <ele>1309.2</ele>
        <time>2021-08-11T12:52:08Z</time>
      </trkpt>
      <trkpt lat="44.46341" lon="6.75046">
        <ele>1307.8</ele>
        <time>2021-08-11T12:52:12Z</time>
      </trkpt>
      <trkpt lat="44.46327" lon="6.75032">
        <ele>1307.2</ele>
        <time>2021-08-11T12:52:16Z</time>
      </trkpt>
      <trkpt lat="44.46309" lon="6.75023">
        <ele>1305.4</ele>
        <time>2021-08-11T12:52:20Z</time>
      </trkpt>
      <trkpt lat="44.46289" lon="6.75018">
        <ele>1301.8</ele>
        <time>2021-08-11T12:52:24Z</time>
      </trkpt>
      <trkpt lat="44.4627" lon="6.75012">
        <ele>1298.3</ele>
        <time>2021-08-11T12:52:28Z</time>
      </trkpt>
      <trkpt lat="44.46252" lon="6.75002">
        <ele>1295.3</ele>
        <time>2021-08-11T12:52:32Z</time>
      </trkpt>
      <trkpt lat="44.46236" lon="6.74988">
        <ele>1295.4</ele>
        <time>2021-08-11T12:52:36Z</time>
      </trkpt>
      <trkpt lat="44.46221" lon="6.74971">
        <ele>1296</ele>
        <time>2021-08-11T12:52:40Z</time>
      </trkpt>
      <trkpt lat="44.46206" lon="6.74953">
        <ele>1296.1</ele>
        <time>2021-08-11T12:52:44Z</time>
      </trkpt>
      <trkpt lat="44.46192" lon="6.74935">
        <ele>1295.6</ele>
        <time>2021-08-11T12:52:48Z</time>
      </trkpt>
      <trkpt lat="44.46179" lon="6.74917">
        <ele>1294.8</ele>
        <time>2021-08-11T12:52:52Z</time>
      </trkpt>
      <trkpt lat="44.46167" lon="6.749">
        <ele>1295.1</ele>
        <time>2021-08-11T12:52:56Z</time>
      </trkpt>
      <trkpt lat="44.46153" lon="6.74881">
        <ele>1295.9</ele>
        <time>2021-08-11T12:53:00Z</time>
      </trkpt>
      <trkpt lat="44.46139" lon="6.74861">
        <ele>1296.4</ele>
        <time>2021-08-11T12:53:04Z</time>
      </trkpt>
      <trkpt lat="44.46126" lon="6.7484">
        <ele>1296.8</ele>
        <time>2021-08-11T12:53:08Z</time>
      </trkpt>
      <trkpt lat="44.46113" lon="6.7482">
        <ele>1296.9</ele>
        <time>2021-08-11T12:53:12Z</time>
      </trkpt>
      <trkpt lat="44.46099" lon="6.74799">
        <ele>1296.6</ele>
        <time>2021-08-11T12:53:16Z</time>
      </trkpt>
      <trkpt lat="44.46084" lon="6.74777">
        <ele>1295.6</ele>
        <time>2021-08-11T12:53:20Z</time>
      </trkpt>
      <trkpt lat="44.46066" lon="6.74755">
        <ele>1294.9</ele>
        <time>2021-08-11T12:53:24Z</time>
      </trkpt>
      <trkpt lat="44.46047" lon="6.74735">
        <ele>1294.7</ele>
        <time>2021-08-11T12:53:28Z</time>
      </trkpt>
      <trkpt lat="44.46026" lon="6.74716">
        <ele>1294.7</ele>
        <time>2021-08-11T12:53:32Z</time>
      </trkpt>
      <trkpt lat="44.46003" lon="6.747">
        <ele>1293.9</ele>
        <time>2021-08-11T12:53:36Z</time>
      </trkpt>
      <trkpt lat="44.4598" lon="6.74686">
        <ele>1295.7</ele>
        <time>2021-08-11T12:53:40Z</time>
      </trkpt>
      <trkpt lat="44.45954" lon="6.74676">
        <ele>1296.4</ele>
        <time>2021-08-11T12:53:44Z</time>
      </trkpt>
      <trkpt lat="44.45929" lon="6.7467">
        <ele>1296.2</ele>
        <time>2021-08-11T12:53:48Z</time>
      </trkpt>
      <trkpt lat="44.45903" lon="6.74667">
        <ele>1294.1</ele>
        <time>2021-08-11T12:53:52Z</time>
      </trkpt>
      <trkpt lat="44.45876" lon="6.74665">
        <ele>1290.7</ele>
        <time>2021-08-11T12:53:56Z</time>
      </trkpt>
      <trkpt lat="44.4585" lon="6.74658">
        <ele>1287.6</ele>
        <time>2021-08-11T12:54:00Z</time>
      </trkpt>
      <trkpt lat="44.45831" lon="6.74636">
        <ele>1286.4</ele>
        <time>2021-08-11T12:54:04Z</time>
      </trkpt>
      <trkpt lat="44.45822" lon="6.74608">
        <ele>1287.4</ele>
        <time>2021-08-11T12:54:08Z</time>
      </trkpt>
      <trkpt lat="44.4582" lon="6.74583">
        <ele>1288.5</ele>
        <time>2021-08-11T12:54:12Z</time>
      </trkpt>
      <trkpt lat="44.45818" lon="6.74562">
        <ele>1288.7</ele>
        <time>2021-08-11T12:54:16Z</time>
      </trkpt>
      <trkpt lat="44.45814" lon="6.74543">
        <ele>1288.8</ele>
        <time>2021-08-11T12:54:20Z</time>
      </trkpt>
      <trkpt lat="44.45809" lon="6.74525">
        <ele>1288.8</ele>
        <time>2021-08-11T12:54:24Z</time>
      </trkpt>
      <trkpt lat="44.458" lon="6.74507">
        <ele>1288.7</ele>
        <time>2021-08-11T12:54:28Z</time>
      </trkpt>
      <trkpt lat="44.45789" lon="6.74489">
        <ele>1289.3</ele>
        <time>2021-08-11T12:54:32Z</time>
      </trkpt>
      <trkpt lat="44.45773" lon="6.74471">
        <ele>1290.1</ele>
        <time>2021-08-11T12:54:36Z</time>
      </trkpt>
      <trkpt lat="44.45753" lon="6.74455">
        <ele>1290.4</ele>
        <time>2021-08-11T12:54:40Z</time>
      </trkpt>
      <trkpt lat="44.45732" lon="6.74439">
        <ele>1290.3</ele>
        <time>2021-08-11T12:54:44Z</time>
      </trkpt>
      <trkpt lat="44.4571" lon="6.74423">
        <ele>1290.1</ele>
        <time>2021-08-11T12:54:48Z</time>
      </trkpt>
      <trkpt lat="44.45685" lon="6.7441">
        <ele>1291.2</ele>
        <time>2021-08-11T12:54:52Z</time>
      </trkpt>
      <trkpt lat="44.45657" lon="6.74404">
        <ele>1291.9</ele>
        <time>2021-08-11T12:54:56Z</time>
      </trkpt>
      <trkpt lat="44.4563" lon="6.74404">
        <ele>1290.6</ele>
        <time>2021-08-11T12:55:00Z</time>
      </trkpt>
      <trkpt lat="44.45604" lon="6.74404">
        <ele>1289.3</ele>
        <time>2021-08-11T12:55:04Z</time>
      </trkpt>
      <trkpt lat="44.45579" lon="6.74394">
        <ele>1291.3</ele>
        <time>2021-08-11T12:55:08Z</time>
      </trkpt>
      <trkpt lat="44.45555" lon="6.74377">
        <ele>1294.5</ele>
        <time>2021-08-11T12:55:12Z</time>
      </trkpt>
      <trkpt lat="44.45526" lon="6.74365">
        <ele>1294.6</ele>
        <time>2021-08-11T12:55:16Z</time>
      </trkpt>
      <trkpt lat="44.45494" lon="6.74361">
        <ele>1291.5</ele>
        <time>2021-08-11T12:55:20Z</time>
      </trkpt>
      <trkpt lat="44.45466" lon="6.74359">
        <ele>1288.1</ele>
        <time>2021-08-11T12:55:24Z</time>
      </trkpt>
      <trkpt lat="44.45436" lon="6.74358">
        <ele>1284.1</ele>
        <time>2021-08-11T12:55:28Z</time>
      </trkpt>
      <trkpt lat="44.45407" lon="6.74358">
        <ele>1281.8</ele>
        <time>2021-08-11T12:55:32Z</time>
      </trkpt>
      <trkpt lat="44.45378" lon="6.74367">
        <ele>1281.3</ele>
        <time>2021-08-11T12:55:36Z</time>
      </trkpt>
      <trkpt lat="44.45351" lon="6.74379">
        <ele>1279.8</ele>
        <time>2021-08-11T12:55:40Z</time>
      </trkpt>
      <trkpt lat="44.45326" lon="6.74378">
        <ele>1280.4</ele>
        <time>2021-08-11T12:55:44Z</time>
      </trkpt>
      <trkpt lat="44.45303" lon="6.74365">
        <ele>1281.2</ele>
        <time>2021-08-11T12:55:48Z</time>
      </trkpt>
      <trkpt lat="44.45286" lon="6.74342">
        <ele>1279.5</ele>
        <time>2021-08-11T12:55:52Z</time>
      </trkpt>
      <trkpt lat="44.4527" lon="6.74319">
        <ele>1280.3</ele>
        <time>2021-08-11T12:55:56Z</time>
      </trkpt>
      <trkpt lat="44.45252" lon="6.743">
        <ele>1281.9</ele>
        <time>2021-08-11T12:56:00Z</time>
      </trkpt>
      <trkpt lat="44.4523" lon="6.74288">
        <ele>1287.1</ele>
        <time>2021-08-11T12:56:04Z</time>
      </trkpt>
      <trkpt lat="44.45208" lon="6.74275">
        <ele>1288.9</ele>
        <time>2021-08-11T12:56:08Z</time>
      </trkpt>
      <trkpt lat="44.45187" lon="6.74262">
        <ele>1286.4</ele>
        <time>2021-08-11T12:56:12Z</time>
      </trkpt>
      <trkpt lat="44.45167" lon="6.74246">
        <ele>1280.5</ele>
        <time>2021-08-11T12:56:16Z</time>
      </trkpt>
      <trkpt lat="44.45148" lon="6.74229">
        <ele>1279.7</ele>
        <time>2021-08-11T12:56:20Z</time>
      </trkpt>
      <trkpt lat="44.45127" lon="6.74211">
        <ele>1277.9</ele>
        <time>2021-08-11T12:56:24Z</time>
      </trkpt>
      <trkpt lat="44.45107" lon="6.74192">
        <ele>1275.4</ele>
        <time>2021-08-11T12:56:28Z</time>
      </trkpt>
      <trkpt lat="44.45089" lon="6.74173">
        <ele>1272.2</ele>
        <time>2021-08-11T12:56:32Z</time>
      </trkpt>
      <trkpt lat="44.45072" lon="6.74155">
        <ele>1272.3</ele>
        <time>2021-08-11T12:56:36Z</time>
      </trkpt>
      <trkpt lat="44.45055" lon="6.74136">
        <ele>1273.7</ele>
        <time>2021-08-11T12:56:40Z</time>
      </trkpt>
      <trkpt lat="44.45038" lon="6.74117">
        <ele>1274</ele>
        <time>2021-08-11T12:56:44Z</time>
      </trkpt>
      <trkpt lat="44.4502" lon="6.74098">
        <ele>1273.2</ele>
        <time>2021-08-11T12:56:48Z</time>
      </trkpt>
      <trkpt lat="44.45002" lon="6.74078">
        <ele>1272.4</ele>
        <time>2021-08-11T12:56:52Z</time>
      </trkpt>
      <trkpt lat="44.4498" lon="6.74065">
        <ele>1272.7</ele>
        <time>2021-08-11T12:56:56Z</time>
      </trkpt>
      <trkpt lat="44.44958" lon="6.74059">
        <ele>1271.6</ele>
        <time>2021-08-11T12:57:00Z</time>
      </trkpt>
      <trkpt lat="44.44934" lon="6.74055">
        <ele>1269.6</ele>
        <time>2021-08-11T12:57:04Z</time>
      </trkpt>
      <trkpt lat="44.4491" lon="6.7405">
        <ele>1268.3</ele>
        <time>2021-08-11T12:57:08Z</time>
      </trkpt>
      <trkpt lat="44.44889" lon="6.74044">
        <ele>1268.7</ele>
        <time>2021-08-11T12:57:12Z</time>
      </trkpt>
      <trkpt lat="44.44868" lon="6.74038">
        <ele>1269.1</ele>
        <time>2021-08-11T12:57:16Z</time>
      </trkpt>
      <trkpt lat="44.44848" lon="6.74032">
        <ele>1269.4</ele>
        <time>2021-08-11T12:57:20Z</time>
      </trkpt>
      <trkpt lat="44.44827" lon="6.74025">
        <ele>1270.1</ele>
        <time>2021-08-11T12:57:24Z</time>
      </trkpt>
      <trkpt lat="44.44805" lon="6.7402">
        <ele>1271.1</ele>
        <time>2021-08-11T12:57:28Z</time>
      </trkpt>
      <trkpt lat="44.44782" lon="6.74016">
        <ele>1271.9</ele>
        <time>2021-08-11T12:57:32Z</time>
      </trkpt>
      <trkpt lat="44.4476" lon="6.74017">
        <ele>1272.2</ele>
        <time>2021-08-11T12:57:36Z</time>
      </trkpt>
      <trkpt lat="44.44738" lon="6.74026">
        <ele>1272.3</ele>
        <time>2021-08-11T12:57:40Z</time>
      </trkpt>
      <trkpt lat="44.44716" lon="6.7404">
        <ele>1272</ele>
        <time>2021-08-11T12:57:44Z</time>
      </trkpt>
      <trkpt lat="44.44695" lon="6.74058">
        <ele>1270.8</ele>
        <time>2021-08-11T12:57:48Z</time>
      </trkpt>
      <trkpt lat="44.44674" lon="6.74078">
        <ele>1268.6</ele>
        <time>2021-08-11T12:57:52Z</time>
      </trkpt>
      <trkpt lat="44.44654" lon="6.74099">
        <ele>1269.6</ele>
        <time>2021-08-11T12:57:56Z</time>
      </trkpt>
      <trkpt lat="44.44636" lon="6.74119">
        <ele>1270.7</ele>
        <time>2021-08-11T12:58:00Z</time>
      </trkpt>
      <trkpt lat="44.44618" lon="6.74138">
        <ele>1270.5</ele>
        <time>2021-08-11T12:58:04Z</time>
      </trkpt>
      <trkpt lat="44.44599" lon="6.74156">
        <ele>1269.2</ele>
        <time>2021-08-11T12:58:08Z</time>
      </trkpt>
      <trkpt lat="44.44579" lon="6.74175">
        <ele>1268.3</ele>
        <time>2021-08-11T12:58:12Z</time>
      </trkpt>
      <trkpt lat="44.4456" lon="6.74194">
        <ele>1269.6</ele>
        <time>2021-08-11T12:58:16Z</time>
      </trkpt>
      <trkpt lat="44.4454" lon="6.7421">
        <ele>1270.2</ele>
        <time>2021-08-11T12:58:20Z</time>
      </trkpt>
      <trkpt lat="44.44518" lon="6.74223">
        <ele>1270.3</ele>
        <time>2021-08-11T12:58:24Z</time>
      </trkpt>
      <trkpt lat="44.44497" lon="6.74237">
        <ele>1269.2</ele>
        <time>2021-08-11T12:58:28Z</time>
      </trkpt>
      <trkpt lat="44.44474" lon="6.74249">
        <ele>1269</ele>
        <time>2021-08-11T12:58:32Z</time>
      </trkpt>
      <trkpt lat="44.44449" lon="6.74256">
        <ele>1271.1</ele>
        <time>2021-08-11T12:58:36Z</time>
      </trkpt>
      <trkpt lat="44.44425" lon="6.74258">
        <ele>1273.4</ele>
        <time>2021-08-11T12:58:40Z</time>
      </trkpt>
      <trkpt lat="44.44402" lon="6.74253">
        <ele>1273.2</ele>
        <time>2021-08-11T12:58:44Z</time>
      </trkpt>
      <trkpt lat="44.44378" lon="6.74243">
        <ele>1272.7</ele>
        <time>2021-08-11T12:58:48Z</time>
      </trkpt>
      <trkpt lat="44.44357" lon="6.74229">
        <ele>1274.3</ele>
        <time>2021-08-11T12:58:52Z</time>
      </trkpt>
      <trkpt lat="44.44335" lon="6.74216">
        <ele>1275.6</ele>
        <time>2021-08-11T12:58:56Z</time>
      </trkpt>
      <trkpt lat="44.44313" lon="6.74209">
        <ele>1276.3</ele>
        <time>2021-08-11T12:59:00Z</time>
      </trkpt>
      <trkpt lat="44.4429" lon="6.74205">
        <ele>1276.3</ele>
        <time>2021-08-11T12:59:04Z</time>
      </trkpt>
      <trkpt lat="44.44266" lon="6.74202">
        <ele>1275.9</ele>
        <time>2021-08-11T12:59:08Z</time>
      </trkpt>
      <trkpt lat="44.44242" lon="6.74199">
        <ele>1275</ele>
        <time>2021-08-11T12:59:12Z</time>
      </trkpt>
      <trkpt lat="44.44217" lon="6.74196">
        <ele>1273.1</ele>
        <time>2021-08-11T12:59:16Z</time>
      </trkpt>
      <trkpt lat="44.4419" lon="6.74189">
        <ele>1271.6</ele>
        <time>2021-08-11T12:59:20Z</time>
      </trkpt>
      <trkpt lat="44.44161" lon="6.74189">
        <ele>1270</ele>
        <time>2021-08-11T12:59:24Z</time>
      </trkpt>
      <trkpt lat="44.44131" lon="6.74202">
        <ele>1272.5</ele>
        <time>2021-08-11T12:59:28Z</time>
      </trkpt>
      <trkpt lat="44.4411" lon="6.74224">
        <ele>1270.5</ele>
        <time>2021-08-11T12:59:32Z</time>
      </trkpt>
      <trkpt lat="44.4409" lon="6.74248">
        <ele>1266.8</ele>
        <time>2021-08-11T12:59:36Z</time>
      </trkpt>
      <trkpt lat="44.4407" lon="6.74268">
        <ele>1265.8</ele>
        <time>2021-08-11T12:59:40Z</time>
      </trkpt>
      <trkpt lat="44.44041" lon="6.74266">
        <ele>1267.7</ele>
        <time>2021-08-11T12:59:44Z</time>
      </trkpt>
      <trkpt lat="44.44017" lon="6.74267">
        <ele>1269</ele>
        <time>2021-08-11T12:59:48Z</time>
      </trkpt>
      <trkpt lat="44.43991" lon="6.74271">
        <ele>1271</ele>
        <time>2021-08-11T12:59:52Z</time>
      </trkpt>
      <trkpt lat="44.43966" lon="6.7429">
        <ele>1272.3</ele>
        <time>2021-08-11T12:59:56Z</time>
      </trkpt>
      <trkpt lat="44.43949" lon="6.74319">
        <ele>1270</ele>
        <time>2021-08-11T13:00:00Z</time>
      </trkpt>
      <trkpt lat="44.43933" lon="6.74349">
        <ele>1267</ele>
        <time>2021-08-11T13:00:04Z</time>
      </trkpt>
      <trkpt lat="44.43912" lon="6.74371">
        <ele>1264.9</ele>
        <time>2021-08-11T13:00:08Z</time>
      </trkpt>
      <trkpt lat="44.43894" lon="6.74388">
        <ele>1261.3</ele>
        <time>2021-08-11T13:00:12Z</time>
      </trkpt>
      <trkpt lat="44.43867" lon="6.74381">
        <ele>1263.1</ele>
        <time>2021-08-11T13:00:16Z</time>
      </trkpt>
      <trkpt lat="44.43836" lon="6.74377">
        <ele>1264.4</ele>
        <time>2021-08-11T13:00:20Z</time>
      </trkpt>
      <trkpt lat="44.43807" lon="6.7438">
        <ele>1263.7</ele>
        <time>2021-08-11T13:00:24Z</time>
      </trkpt>
      <trkpt lat="44.43782" lon="6.74394">
        <ele>1260</ele>
        <time>2021-08-11T13:00:28Z</time>
      </trkpt>
      <trkpt lat="44.43754" lon="6.74406">
        <ele>1256.8</ele>
        <time>2021-08-11T13:00:32Z</time>
      </trkpt>
      <trkpt lat="44.43723" lon="6.74396">
        <ele>1259.2</ele>
        <time>2021-08-11T13:00:36Z</time>
      </trkpt>
      <trkpt lat="44.43693" lon="6.74386">
        <ele>1261.7</ele>
        <time>2021-08-11T13:00:40Z</time>
      </trkpt>
      <trkpt lat="44.43666" lon="6.74379">
        <ele>1263.3</ele>
        <time>2021-08-11T13:00:44Z</time>
      </trkpt>
      <trkpt lat="44.43642" lon="6.74366">
        <ele>1264.8</ele>
        <time>2021-08-11T13:00:48Z</time>
      </trkpt>
      <trkpt lat="44.43617" lon="6.74361">
        <ele>1263.6</ele>
        <time>2021-08-11T13:00:52Z</time>
      </trkpt>
      <trkpt lat="44.43593" lon="6.74372">
        <ele>1259.3</ele>
        <time>2021-08-11T13:00:56Z</time>
      </trkpt>
      <trkpt lat="44.43571" lon="6.74391">
        <ele>1255.9</ele>
        <time>2021-08-11T13:01:00Z</time>
      </trkpt>
      <trkpt lat="44.43546" lon="6.744">
        <ele>1255.7</ele>
        <time>2021-08-11T13:01:04Z</time>
      </trkpt>
      <trkpt lat="44.43518" lon="6.74399">
        <ele>1257.3</ele>
        <time>2021-08-11T13:01:08Z</time>
      </trkpt>
      <trkpt lat="44.4349" lon="6.74396">
        <ele>1257.4</ele>
        <time>2021-08-11T13:01:12Z</time>
      </trkpt>
      <trkpt lat="44.43459" lon="6.74388">
        <ele>1254.4</ele>
        <time>2021-08-11T13:01:16Z</time>
      </trkpt>
      <trkpt lat="44.43435" lon="6.7436">
        <ele>1253.1</ele>
        <time>2021-08-11T13:01:20Z</time>
      </trkpt>
      <trkpt lat="44.43419" lon="6.74318">
        <ele>1251.7</ele>
        <time>2021-08-11T13:01:24Z</time>
      </trkpt>
      <trkpt lat="44.43408" lon="6.74275">
        <ele>1250.5</ele>
        <time>2021-08-11T13:01:28Z</time>
      </trkpt>
      <trkpt lat="44.43395" lon="6.74233">
        <ele>1246.9</ele>
        <time>2021-08-11T13:01:32Z</time>
      </trkpt>
      <trkpt lat="44.43382" lon="6.74191">
        <ele>1240.9</ele>
        <time>2021-08-11T13:01:36Z</time>
      </trkpt>
      <trkpt lat="44.4337" lon="6.74151">
        <ele>1240.3</ele>
        <time>2021-08-11T13:01:40Z</time>
      </trkpt>
      <trkpt lat="44.43355" lon="6.74118">
        <ele>1243.5</ele>
        <time>2021-08-11T13:01:44Z</time>
      </trkpt>
      <trkpt lat="44.43336" lon="6.74094">
        <ele>1243.4</ele>
        <time>2021-08-11T13:01:48Z</time>
      </trkpt>
      <trkpt lat="44.43313" lon="6.74074">
        <ele>1246.3</ele>
        <time>2021-08-11T13:01:52Z</time>
      </trkpt>
      <trkpt lat="44.4329" lon="6.74056">
        <ele>1249.1</ele>
        <time>2021-08-11T13:01:56Z</time>
      </trkpt>
      <trkpt lat="44.43269" lon="6.74036">
        <ele>1249.8</ele>
        <time>2021-08-11T13:02:00Z</time>
      </trkpt>
      <trkpt lat="44.43249" lon="6.74008">
        <ele>1248.9</ele>
        <time>2021-08-11T13:02:04Z</time>
      </trkpt>
      <trkpt lat="44.4323" lon="6.73978">
        <ele>1253.2</ele>
        <time>2021-08-11T13:02:08Z</time>
      </trkpt>
      <trkpt lat="44.43213" lon="6.73948">
        <ele>1255.9</ele>
        <time>2021-08-11T13:02:12Z</time>
      </trkpt>
      <trkpt lat="44.43198" lon="6.73917">
        <ele>1256</ele>
        <time>2021-08-11T13:02:16Z</time>
      </trkpt>
      <trkpt lat="44.4318" lon="6.73888">
        <ele>1256</ele>
        <time>2021-08-11T13:02:20Z</time>
      </trkpt>
      <trkpt lat="44.43161" lon="6.73866">
        <ele>1254.8</ele>
        <time>2021-08-11T13:02:24Z</time>
      </trkpt>
      <trkpt lat="44.43138" lon="6.73853">
        <ele>1253.8</ele>
        <time>2021-08-11T13:02:28Z</time>
      </trkpt>
      <trkpt lat="44.43111" lon="6.73845">
        <ele>1249</ele>
        <time>2021-08-11T13:02:32Z</time>
      </trkpt>
      <trkpt lat="44.43086" lon="6.73829">
        <ele>1243.6</ele>
        <time>2021-08-11T13:02:36Z</time>
      </trkpt>
      <trkpt lat="44.43066" lon="6.73805">
        <ele>1246.6</ele>
        <time>2021-08-11T13:02:40Z</time>
      </trkpt>
      <trkpt lat="44.4305" lon="6.73775">
        <ele>1247.8</ele>
        <time>2021-08-11T13:02:44Z</time>
      </trkpt>
      <trkpt lat="44.43035" lon="6.73747">
        <ele>1246.3</ele>
        <time>2021-08-11T13:02:48Z</time>
      </trkpt>
      <trkpt lat="44.4302" lon="6.7372">
        <ele>1247.2</ele>
        <time>2021-08-11T13:02:52Z</time>
      </trkpt>
      <trkpt lat="44.43004" lon="6.73696">
        <ele>1246.4</ele>
        <time>2021-08-11T13:02:56Z</time>
      </trkpt>
      <trkpt lat="44.42988" lon="6.73675">
        <ele>1246.2</ele>
        <time>2021-08-11T13:03:00Z</time>
      </trkpt>
      <trkpt lat="44.42973" lon="6.73656">
        <ele>1246.1</ele>
        <time>2021-08-11T13:03:04Z</time>
      </trkpt>
      <trkpt lat="44.42954" lon="6.73643">
        <ele>1243.9</ele>
        <time>2021-08-11T13:03:08Z</time>
      </trkpt>
      <trkpt lat="44.42936" lon="6.73634">
        <ele>1240.8</ele>
        <time>2021-08-11T13:03:12Z</time>
      </trkpt>
      <trkpt lat="44.42917" lon="6.73628">
        <ele>1236.7</ele>
        <time>2021-08-11T13:03:16Z</time>
      </trkpt>
      <trkpt lat="44.42898" lon="6.73626">
        <ele>1237.4</ele>
        <time>2021-08-11T13:03:20Z</time>
      </trkpt>
      <trkpt lat="44.42879" lon="6.73628">
        <ele>1237.7</ele>
        <time>2021-08-11T13:03:24Z</time>
      </trkpt>
      <trkpt lat="44.42861" lon="6.73633">
        <ele>1237.5</ele>
        <time>2021-08-11T13:03:28Z</time>
      </trkpt>
      <trkpt lat="44.42842" lon="6.73639">
        <ele>1237.1</ele>
        <time>2021-08-11T13:03:32Z</time>
      </trkpt>
      <trkpt lat="44.42825" lon="6.73649">
        <ele>1235.8</ele>
        <time>2021-08-11T13:03:36Z</time>
      </trkpt>
      <trkpt lat="44.4281" lon="6.73662">
        <ele>1233.7</ele>
        <time>2021-08-11T13:03:40Z</time>
      </trkpt>
      <trkpt lat="44.4279" lon="6.73671">
        <ele>1233.1</ele>
        <time>2021-08-11T13:03:44Z</time>
      </trkpt>
      <trkpt lat="44.42768" lon="6.73675">
        <ele>1233</ele>
        <time>2021-08-11T13:03:48Z</time>
      </trkpt>
      <trkpt lat="44.42746" lon="6.73681">
        <ele>1232.8</ele>
        <time>2021-08-11T13:03:52Z</time>
      </trkpt>
      <trkpt lat="44.42724" lon="6.73686">
        <ele>1233.2</ele>
        <time>2021-08-11T13:03:56Z</time>
      </trkpt>
      <trkpt lat="44.42702" lon="6.73688">
        <ele>1233.6</ele>
        <time>2021-08-11T13:04:00Z</time>
      </trkpt>
      <trkpt lat="44.4268" lon="6.73689">
        <ele>1234.1</ele>
        <time>2021-08-11T13:04:04Z</time>
      </trkpt>
      <trkpt lat="44.42658" lon="6.73691">
        <ele>1234.2</ele>
        <time>2021-08-11T13:04:08Z</time>
      </trkpt>
      <trkpt lat="44.42636" lon="6.73692">
        <ele>1234.1</ele>
        <time>2021-08-11T13:04:12Z</time>
      </trkpt>
      <trkpt lat="44.42614" lon="6.73693">
        <ele>1234.1</ele>
        <time>2021-08-11T13:04:16Z</time>
      </trkpt>
      <trkpt lat="44.42592" lon="6.73693">
        <ele>1234.1</ele>
        <time>2021-08-11T13:04:20Z</time>
      </trkpt>
      <trkpt lat="44.4257" lon="6.73694">
        <ele>1233.6</ele>
        <time>2021-08-11T13:04:24Z</time>
      </trkpt>
      <trkpt lat="44.42548" lon="6.73696">
        <ele>1232.9</ele>
        <time>2021-08-11T13:04:28Z</time>
      </trkpt>
      <trkpt lat="44.42524" lon="6.73697">
        <ele>1232.2</ele>
        <time>2021-08-11T13:04:32Z</time>
      </trkpt>
      <trkpt lat="44.42501" lon="6.73699">
        <ele>1231.5</ele>
        <time>2021-08-11T13:04:36Z</time>
      </trkpt>
      <trkpt lat="44.42478" lon="6.73701">
        <ele>1230.9</ele>
        <time>2021-08-11T13:04:40Z</time>
      </trkpt>
      <trkpt lat="44.42455" lon="6.73702">
        <ele>1230.4</ele>
        <time>2021-08-11T13:04:44Z</time>
      </trkpt>
      <trkpt lat="44.42432" lon="6.73703">
        <ele>1229.9</ele>
        <time>2021-08-11T13:04:48Z</time>
      </trkpt>
      <trkpt lat="44.4241" lon="6.73705">
        <ele>1229.4</ele>
        <time>2021-08-11T13:04:52Z</time>
      </trkpt>
      <trkpt lat="44.42388" lon="6.73706">
        <ele>1228.7</ele>
        <time>2021-08-11T13:04:56Z</time>
      </trkpt>
      <trkpt lat="44.42364" lon="6.73707">
        <ele>1228</ele>
        <time>2021-08-11T13:05:00Z</time>
      </trkpt>
      <trkpt lat="44.42339" lon="6.73709">
        <ele>1227.1</ele>
        <time>2021-08-11T13:05:04Z</time>
      </trkpt>
      <trkpt lat="44.42313" lon="6.73711">
        <ele>1226.6</ele>
        <time>2021-08-11T13:05:08Z</time>
      </trkpt>
      <trkpt lat="44.42283" lon="6.73712">
        <ele>1226.3</ele>
        <time>2021-08-11T13:05:12Z</time>
      </trkpt>
      <trkpt lat="44.42254" lon="6.73713">
        <ele>1226.1</ele>
        <time>2021-08-11T13:05:16Z</time>
      </trkpt>
      <trkpt lat="44.42224" lon="6.73712">
        <ele>1224.5</ele>
        <time>2021-08-11T13:05:20Z</time>
      </trkpt>
      <trkpt lat="44.42194" lon="6.73708">
        <ele>1222.6</ele>
        <time>2021-08-11T13:05:24Z</time>
      </trkpt>
      <trkpt lat="44.42166" lon="6.73702">
        <ele>1221</ele>
        <time>2021-08-11T13:05:28Z</time>
      </trkpt>
      <trkpt lat="44.42139" lon="6.73693">
        <ele>1220.4</ele>
        <time>2021-08-11T13:05:32Z</time>
      </trkpt>
      <trkpt lat="44.42114" lon="6.73682">
        <ele>1219.9</ele>
        <time>2021-08-11T13:05:36Z</time>
      </trkpt>
      <trkpt lat="44.42088" lon="6.73671">
        <ele>1219.2</ele>
        <time>2021-08-11T13:05:40Z</time>
      </trkpt>
      <trkpt lat="44.42064" lon="6.73659">
        <ele>1219.2</ele>
        <time>2021-08-11T13:05:44Z</time>
      </trkpt>
      <trkpt lat="44.42041" lon="6.73642">
        <ele>1219.4</ele>
        <time>2021-08-11T13:05:48Z</time>
      </trkpt>
      <trkpt lat="44.4202" lon="6.73621">
        <ele>1219.6</ele>
        <time>2021-08-11T13:05:52Z</time>
      </trkpt>
      <trkpt lat="44.42011" lon="6.73589">
        <ele>1219.7</ele>
        <time>2021-08-11T13:05:56Z</time>
      </trkpt>
      <trkpt lat="44.4201" lon="6.73555">
        <ele>1220.5</ele>
        <time>2021-08-11T13:06:00Z</time>
      </trkpt>
      <trkpt lat="44.42001" lon="6.73523">
        <ele>1220.1</ele>
        <time>2021-08-11T13:06:04Z</time>
      </trkpt>
      <trkpt lat="44.41991" lon="6.73491">
        <ele>1220.9</ele>
        <time>2021-08-11T13:06:08Z</time>
      </trkpt>
      <trkpt lat="44.41981" lon="6.73459">
        <ele>1223.9</ele>
        <time>2021-08-11T13:06:12Z</time>
      </trkpt>
      <trkpt lat="44.41969" lon="6.7343">
        <ele>1225.8</ele>
        <time>2021-08-11T13:06:16Z</time>
      </trkpt>
      <trkpt lat="44.41955" lon="6.73401">
        <ele>1225.7</ele>
        <time>2021-08-11T13:06:20Z</time>
      </trkpt>
      <trkpt lat="44.41942" lon="6.73374">
        <ele>1224</ele>
        <time>2021-08-11T13:06:24Z</time>
      </trkpt>
      <trkpt lat="44.41927" lon="6.73352">
        <ele>1221.3</ele>
        <time>2021-08-11T13:06:28Z</time>
      </trkpt>
      <trkpt lat="44.41906" lon="6.73335">
        <ele>1218.9</ele>
        <time>2021-08-11T13:06:32Z</time>
      </trkpt>
      <trkpt lat="44.41885" lon="6.73317">
        <ele>1218.3</ele>
        <time>2021-08-11T13:06:36Z</time>
      </trkpt>
      <trkpt lat="44.41874" lon="6.73293">
        <ele>1217.5</ele>
        <time>2021-08-11T13:06:40Z</time>
      </trkpt>
      <trkpt lat="44.41869" lon="6.7327">
        <ele>1216.8</ele>
        <time>2021-08-11T13:06:44Z</time>
      </trkpt>
      <trkpt lat="44.41864" lon="6.73247">
        <ele>1216</ele>
        <time>2021-08-11T13:06:48Z</time>
      </trkpt>
      <trkpt lat="44.41859" lon="6.73225">
        <ele>1215.1</ele>
        <time>2021-08-11T13:06:52Z</time>
      </trkpt>
      <trkpt lat="44.41855" lon="6.73205">
        <ele>1214.3</ele>
        <time>2021-08-11T13:06:56Z</time>
      </trkpt>
      <trkpt lat="44.41852" lon="6.73188">
        <ele>1213.6</ele>
        <time>2021-08-11T13:07:00Z</time>
      </trkpt>
      <trkpt lat="44.41847" lon="6.73172">
        <ele>1212.8</ele>
        <time>2021-08-11T13:07:04Z</time>
      </trkpt>
      <trkpt lat="44.41851" lon="6.73161">
        <ele>1213.1</ele>
        <time>2021-08-11T13:07:08Z</time>
      </trkpt>
      <trkpt lat="44.41856" lon="6.73155">
        <ele>1213.6</ele>
        <time>2021-08-11T13:07:12Z</time>
      </trkpt>
      <trkpt lat="44.41858" lon="6.73149">
        <ele>1214</ele>
        <time>2021-08-11T13:07:16Z</time>
      </trkpt>
      <trkpt lat="44.41861" lon="6.73142">
        <ele>1214.5</ele>
        <time>2021-08-11T13:07:20Z</time>
      </trkpt>
      <trkpt lat="44.41866" lon="6.73138">
        <ele>1214.9</ele>
        <time>2021-08-11T13:07:24Z</time>
      </trkpt>
      <trkpt lat="44.4187" lon="6.73132">
        <ele>1215.4</ele>
        <time>2021-08-11T13:07:28Z</time>
      </trkpt>
      <trkpt lat="44.41874" lon="6.73126">
        <ele>1215.9</ele>
        <time>2021-08-11T13:07:32Z</time>
      </trkpt>
    </trkseg>
  </trk>
</gpx>